     2.11           OBSERVATION DATA    G (GPS)             RINEX VERSION / TYPE
teqc 2010Oct21 OPUS Account 20111028 01:20:43UTC            PGM / RUN BY / DATE
U 1382                                                      MARKER NAME
2086                                                        MARKER NUMBER
CSMIDDLETON NGS                                             OBSERVER / AGENCY
0220269730 TRIMBLE 5700 NP 1.22 / SP 1.22                   REC # / TYPE / VERS
60041226 TRM41249.00 NONE                                   ANT # / TYPE
  -749616.1106 -5573524.5374  2999022.9561                  APPROX POSITION XYZ
        2.0010        0.0000        0.0000                  ANTENNA: DELTA H/E/N
     1     1                                                WAVELENGTH FACT L1/2
     5    L1    L2    C1    P1    P2                        # / TYPES OF OBSERV
    15                                                      LEAP SECONDS
  2011     8    21     0     0   30.0000000     GPS         TIME OF FIRST OBS
                                                            END OF HEADER
 11  8 21  0  0 30.0000000  0  7G17G10G09G12G04G05G02
 -77181651.49257 -60113680.97454  23026447.9064                   23026449.2114
 -42748605.74657 -33285126.71155  21091914.0314                   21091914.0204
 -34827790.03556 -27084250.48654  23347691.8984                   23347693.6454
 -28034602.98457 -21761074.26155  22013804.0864                   22013803.6374
 -63174448.03557 -49197541.18055  21411002.3594                   21411002.1764
 -19927166.11357 -15501477.40755  22680166.7344                   22680168.1484
 -50582634.71558 -39387209.99756  20806037.9694                   20806035.1764
 11  8 21  0  1  0.0000000  0  7G17G10G09G12G04G05G02
 -77205398.81247 -60132185.39244  23021929.2424                   23021930.2934
 -42838644.10547 -33355286.44145  21074780.4614                   21074780.5594
 -34828264.78946 -27084620.56544  23347600.8364                   23347603.7544
 -28178639.34447 -21873310.32845  21986395.1094                   21986394.6374
 -63174144.46547 -49197304.66145  21411060.2894                   21411060.0394
 -20096040.69147 -15633067.87445  22648030.8204                   22648032.8014
 -50663368.78148 -39450119.64146  20790674.4844                   20790672.0394
 11  8 21  0  1 30.0000000  0  7G17G10G09G12G04G05G02
 -77228909.04747 -60150505.09444  23017456.0234                   23017456.1994
 -42927972.66447 -33424893.08845  21057781.4384                   21057781.4344
 -34828363.97346 -27084697.96444  23347582.4844                   23347585.0314
 -28322226.50847 -21985196.38545  21959071.5864                   21959070.8484
 -63173538.98047 -49196832.89145  21411175.5234                   21411175.2424
 -20264600.72747 -15764413.23945  22615954.7344                   22615956.9924
 -50743681.25848 -39512700.77446  20775391.7584                   20775389.4884
 11  8 21  0  2  0.0000000  0  7G17G10G09G12G04G05G02
 -77252185.93447 -60168642.94244  23013026.6804                   23013026.7814
 -43016595.05147 -33493949.46245  21040917.3364                   21040917.1454
 -34828095.59446 -27084489.02244  23347634.2894                   23347636.2664
 -28465366.65247 -22096734.12245  21931832.5634                   21931832.3054
 -63172638.63347 -49196131.34745  21411346.7734                   21411346.6604
 -20432847.50047 -15895514.50045  22583938.1804                   22583940.1994
 -50823577.94948 -39574957.90946  20760187.5234                   20760185.5514
 11  8 21  0  2 30.0000000  0  7G17G10G09G12G04G05G02
 -77275230.37947 -60186599.70644  23008641.5394                   23008640.9104
 -43104511.52047 -33562455.78345  21024187.4534                   21024187.4064
 -34827464.66846 -27083997.51343  23347753.7194                   23347756.6524
 -28608059.23047 -22207923.10945  21904679.0864                   21904678.5474
 -63171447.09447 -49195202.89845  21411573.3524                   21411573.3554
 -20600779.91447 -16026370.80145  22551981.8054                   22551983.4884
 -50903061.57448 -39636893.19446  20745062.8444                   20745060.2154
 11  8 21  0  3  0.0000000  0  7G17G10G09G12G04G05G02
 -77298039.07847 -60204372.75044  23004301.1024                   23004301.0664
 -43191718.68047 -33630409.37545  21007592.5084                   21007592.3794
 -34826471.90646 -27083224.09743  23347942.7584                   23347945.4064
 -28750298.84447 -22318759.12345  21877611.7114                   21877611.1524
 -63169964.14847 -49194047.37545  21411855.6724                   21411855.9064
 -20768392.14547 -16156977.59745  22520086.0314                   22520088.0044
 -50982130.44947 -39698505.27446  20730016.4924                   20730014.2424
 11  8 21  0  3 30.0000000  0  8G17G10G09G12G04G05G02G30
 -77320613.35947 -60221963.14444  23000005.5234                   23000005.2814
 -43278217.32847 -33697810.88246  20991131.9384                   20991132.3364
 -34825122.77046 -27082173.00843  23348199.4844                   23348202.7344
 -28892084.92247 -22429241.73945  21850630.2344                   21850630.4384
 -63168193.80147 -49192667.89245  21412192.4694                   21412192.5124
 -20935683.29747 -16287334.20845  22488251.3284                   22488253.5164
 -51060787.55947 -39759796.50146  20715048.4534                   20715045.9884
   -256523.17615                  24407160.086
 11  8 21  0  4  0.0000000  0  9G17G10G09G12G04G05G02G30G25
 -77342968.78947 -60239382.99844  22995751.8834                   22995751.4494
 -43364022.57047 -33764672.07245  20974804.0394                   20974804.0204
 -34823436.67646 -27080859.22243  23348519.7344                   23348523.7034
 -29033431.17247 -22539381.63645  21823733.0084                   21823733.3324
 -63166154.41447 -49191078.78945  21412580.5944                   21412580.6804
 -21102666.27347 -16417450.69545  22456476.0004                   22456477.3484
 -51139050.22747 -39820780.38146  20700155.4924                   20700152.9774
   -431957.090 5                  24373776.172
   -254829.03155   -155989.98852  24697777.6094                   24697780.2194
 11  8 21  0  4 30.0000000  0  9G17G10G09G12G04G05G02G30G25
 -77365122.11747 -60256645.37944  22991536.1724                   22991535.8284
 -43449150.64547 -33831005.60246  20958604.3364                   20958604.7304
 -34821434.30546 -27079299.11843  23348900.7504                   23348904.8054
 -29174352.29747 -22649190.28045  21796916.5554                   21796916.7504
 -63163865.55147 -49189295.25545  21413016.6334                   21413016.0554
 -21269355.70747 -16547338.42545  22424755.9144                   22424757.4494
 -51216936.59447 -39881471.02546  20685334.1094                   20685331.8284
   -607149.48446   -430083.55552  24340438.2194                   24340437.2774
   -428456.25845   -291283.82442  24664736.4064                   24664739.8244
 11  8 21  0  5  0.0000000  0  9G17G10G09G12G04G05G02G30G25
 -77387079.50847 -60273755.07344  22987357.4144                   22987358.1334
 -43533607.82448 -33896816.35345  20942532.9454                   20942533.0864
 -34819126.05546 -27077500.63443  23349340.9614                   23349344.0164
 -29314852.42647 -22758670.86945  21770179.9774                   21770180.6294
 -63161336.17647 -49187324.32745  21413497.4304                   21413497.7304
 -21435755.75047 -16677000.66345  22393090.6804                   22393092.2704
 -51294454.78948 -39941874.79046  20670582.9454                   20670580.6604
   -782104.58645   -566412.05043  24307145.0164                   24307145.3984
   -601920.93445   -426451.09243  24631727.2664                   24631730.7114
 11  8 21  0  5 30.0000000  0  9G17G10G09G12G04G05G02G30G25
 -77408838.10247 -60290709.86444  22983217.1884                   22983217.3014
 -43617390.52747 -33962101.54445  20926589.5634                   20926589.3284
 -34816513.34846 -27075464.89543  23349837.9384                   23349841.6414
 -29454927.17247 -22867819.99945  21743525.0314                   21743524.7734
 -63158566.44147 -49185166.11145  21414025.0164                   21414024.7274
 -21601860.93447 -16806433.13345  22361481.7274                   22361483.4454
 -51371603.16047 -40001990.38646  20655902.0864                   20655899.4654
   -956817.34446   -702551.86043  24273898.2974                   24273899.5084
   -775218.20346   -561487.75843  24598749.8984                   24598753.6214
 11  8 21  0  6  0.0000000  0  9G17G10G09G12G04G05G02G30G25
 -77430390.75847 -60307504.17145  22979115.7274                   22979116.4144
 -43700491.31247 -34026855.38245  20910775.8834                   20910775.7304
 -34813592.35246 -27073188.92344  23350394.3204                   23350397.3794
 -29594567.21947 -22976630.39845  21716952.3674                   21716952.1724
 -63155551.61347 -49182816.91345  21414598.2034                   21414598.8794
 -21767661.53947 -16935628.28045  22329931.2974                   22329932.1914
 -51448375.98447 -40061813.35046  20641292.7344                   20641290.0904
  -1131278.18446   -838495.23442  24240700.1094                   24240700.7194
   -948339.07446   -696387.09443  24565805.7974                   24565810.3794
 11  8 21  0  6 30.0000000  0  9G17G10G09G12G04G05G02G30G25
 -77451734.72347 -60324135.87545  22975053.9924                   22975054.9924
 -43782907.62547 -34091075.84645  20895092.8204                   20895092.5744
 -34810364.88347 -27070674.10444  23351009.1724                   23351011.6214
 -29733767.96947 -23085098.50445  21690463.1954                   21690462.7624
 -63152291.89548 -49180276.87545  21415218.2974                   21415218.9774
 -21933152.69547 -17064582.29145  22298438.9694                   22298440.3594
 -51524772.67247 -40121343.21446  20626754.6644                   20626752.2894
  -1305482.55146   -974238.77042  24207549.3594                   24207550.1454
  -1121279.05546   -831145.42343  24532896.3914                   24532900.7894
 11  8 21  0  7  0.0000000  0  9G17G10G09G12G04G05G02G30G25
 -77472867.29347 -60340602.84445  22971032.7424                   22971033.5004
 -43864636.48847 -34154760.63745  20879540.1884                   20879540.0474
 -34806832.17647 -27067921.47944  23351681.7424                   23351683.9454
 -29872525.18047 -23193220.98645  21664058.6804                   21664057.7424
 -63148787.60247 -49177546.27745  21415885.6564                   21415885.7274
 -22098329.64147 -17193291.46945  22267006.6174                   22267008.2974
 -51600792.19547 -40180579.19846  20612288.6644                   20612286.6564
  -1479425.70346  -1109778.79743  24174448.6884                   24174450.0164
  -1294033.54746   -965759.20543  24500022.8914                   24500026.6684
 11  8 21  0  7 30.0000000  0  9G17G10G09G12G04G05G02G30G25
 -77493781.06247 -60356899.32945  22967052.6414                   22967053.9884
 -43945670.29347 -34217903.84546  20864119.9614                   20864120.0124
 -34802990.84047 -27064928.38744  23352412.4534                   23352415.8794
 -30010829.61747 -23300990.65845  21637740.5944                   21637739.9614
 -63145033.92647 -49174621.35145  21416599.7034                   21416600.0744
 -22263182.46547 -17321748.05945  22235636.3594                   22235637.4264
 -51676428.75847 -40239516.75946  20597895.7034                   20597893.1724
  -1653097.92246  -1245107.66843  24141400.5234                   24141400.8954
  -1466593.43446  -1100221.27943  24467185.4064                   24467188.8244
 11  8 21  0  8  0.0000000  0  9G17G10G09G12G04G05G02G30G25
 -77514471.95747 -60373022.12845  22963115.2974                   22963116.5594
 -44026004.69547 -34280502.04645  20848832.6484                   20848832.5784
 -34798840.64547 -27061694.57444  23353201.5704                   23353205.1684
 -30148674.97347 -23408402.61146  21611509.2894                   21611508.5004
 -63141029.59847 -49171501.09545  21417361.9144                   21417361.9144
 -22427704.63347 -17449947.02645  22204328.3674                   22204329.2704
 -51751679.89547 -40298153.98746  20583575.9844                   20583572.7114
  -1826492.94146  -1380220.60242  24108404.3524                   24108404.6374
  -1638952.55146  -1234526.99243  24434386.8444                   24434390.3834
 11  8 21  0  8 30.0000000  0  9G17G10G09G12G04G05G02G30G25
 -77534940.40647 -60388971.60644  22959220.6334                   22959221.5784
 -44105640.25447 -34342555.69545  20833678.5314                   20833678.5514
 -34794386.12147 -27058223.66644  23354050.1174                   23354053.1134
 -30286059.93747 -23515455.83446  21585365.6884                   21585364.9614
 -63136777.85548 -49168188.06745  21418170.8754                   21418170.7304
 -22591894.40247 -17577886.97045  22173083.8674                   22173084.8484
 -51826547.96947 -40356492.73446  20569328.7424                   20569326.2034
  -1999609.15246  -1515116.27742  24075460.7734                   24075461.6994
  -1811109.58246  -1368675.27443  24401626.5004                   24401630.2074
 11  8 21  0  9  0.0000000  0  9G17G10G09G12G04G05G02G30G25
 -77555187.27347 -60404748.41844  22955367.4224                   22955368.5044
 -44184577.50047 -34404065.22445  20818657.5944                   20818657.1604
 -34789632.23046 -27054519.48844  23354954.2194                   23354958.1054
 -30422983.73047 -23622149.68746  21559310.0784                   21559309.2704
 -63132282.56248 -49164685.26845  21419026.3984                   21419026.4924
 -22755750.42647 -17705566.82645  22141902.8674                   22141904.2664
 -51901035.23448 -40414534.74546  20555154.5164                   20555151.9614
  -2172445.28946  -1649793.71542  24042571.6094                   24042572.0634
  -1983063.62646  -1502665.28543  24368904.6724                   24368908.0634
 11  8 21  0  9 30.0000000  0  9G17G10G09G12G04G05G02G30G25
 -77575215.17247 -60420354.62344  22951556.4304                   22951557.1994
 -44262818.77747 -34465032.42645  20803768.2974                   20803768.3634
 -34784585.69147 -27050587.27744  23355915.1644                   23355918.4734
 -30559446.53547 -23728484.31546  21533342.1804                   21533341.1214
 -63127548.65647 -49160996.52645  21419926.9924                   21419927.1454
 -22919272.46947 -17832986.46445  22110785.6024                   22110787.0394
 -51975146.00448 -40472283.38246  20541051.5234                   20541049.0474
  -2345001.66846  -1784253.19142  24009734.9144                   24009735.7424
  -2154815.15246  -1636497.64943  24336220.6094                   24336224.2894
 11  8 21  0 10  0.0000000  0  9G17G10G09G12G04G05G02G30G25
 -77595015.69547 -60435783.64044  22947789.0944                   22947789.2934
 -44340355.71147 -34525450.78145  20789013.6024                   20789013.5474
 -34779241.91447 -27046423.43243  23356931.3284                   23356935.4614
 -30695438.18047 -23834451.83346  21507463.8674                   21507462.6254
 -63122570.62147 -49157117.57245  21420874.5944                   21420874.8054
 -23082450.18447 -17960137.81445  22079734.0554                   22079735.1604
 -52048873.55547 -40529733.40146  20527021.6644                   20527019.0784
  -2517267.59846  -1918486.33242  23976954.0394                   23976954.6374
  -2326353.83646  -1770164.04143  24303577.9534                   24303582.0664
 11  8 21  0 10 30.0000000  0  9G17G10G09G12G04G05G02G30G25
 -77614591.32447 -60451037.42444  22944063.9774                   22944064.0704
 -44417190.72347 -34585322.19746  20774392.7274                   20774392.0944
 -34773607.37547 -27042033.04644  23358003.8834                   23358008.0944
 -30830959.83647 -23940053.11846  21481675.1644                   21481674.0434
 -63117353.33647 -49153052.18345  21421867.5314                   21421867.7974
 -23245283.29747 -18087020.64145  22048748.0634                   22048748.8324
 -52122221.89548 -40586887.94746  20513063.8834                   20513061.3244
  -2689243.15646  -2052493.19142  23944228.1484                   23944229.2934
  -2497680.03946  -1903664.96443  24270975.2664                   24270979.1914
 11  8 21  0 11  0.0000000  0  9G17G10G09G12G04G05G02G30G25
 -77633940.21547 -60466114.53044  22940381.9144                   22940381.6374
 -44493322.39847 -34644645.55046  20759905.2584                   20759904.6564
 -34767684.48846 -27037417.94543  23359130.8674                   23359134.7544
 -30966007.62947 -24045285.16246  21455976.3134                   21455975.5204
 -63111898.16047 -49148801.41145  21422905.0394                   21422905.6334
 -23407768.09047 -18213632.03145  22017827.8444                   22017829.2624
 -52195191.23447 -40643747.15346  20499178.7814                   20499176.2464
  -2860924.78546  -2186271.06642  23911558.1644                   23911558.6214
  -2668790.37546  -2036997.67043  24238414.4454                   24238417.5234
 11  8 21  0 11 30.0000000  0  9G17G10G09G12G04G05G02G30G25
 -77653065.16047 -60481017.14644  22936742.7664                   22936743.2664
 -44568753.32047 -34703422.87146  20745551.0314                   20745550.6524
 -34761479.94146 -27032583.38844  23360312.5164                   23360316.1214
 -31100582.59847 -24150148.76546  21430367.1724                   21430366.4534
 -63106210.28147 -49144369.32845  21423987.7894                   21423988.1024
 -23569904.92247 -18339972.30645  21986974.0704                   21986975.5204
 -52267786.01247 -40700314.49646  20485364.2894                   20485361.6994
  -3032312.95746  -2319820.25442  23878944.0164                   23878944.2854
  -2839685.64846  -2170162.79643  24205894.1564                   24205897.2154
 11  8 21  0 12  0.0000000  0  9G17G10G09G12G04G05G02G30G25
 -76096541.95347 -59268141.94444  23232938.7424                   23232939.3324
 -43068057.56248 -33534049.53746  21031123.8054                   21031123.7384
 -33179574.42646 -25799929.93644  23661339.0164                   23661342.6954
 -29659254.70347 -23027036.10046  21704642.9614                   21704642.1174
 -61524869.43447 -47912155.69145  21724907.2344                   21724907.4144
 -22156262.45747 -17238432.60345  22255981.6954                   22255982.9064
 -50764581.75447 -39528986.48846  20771414.0864                   20771411.8984
  -1627976.09046  -1225531.72742  24146180.9064                   24146181.0554
  -1434934.63346  -1075551.53243  24473209.2664                   24473212.9844
 11  8 21  0 12 30.0000000  0  9G17G10G09G12G04G05G02G30G25
 -76115215.02747 -59282692.40544  23229385.7114                   23229385.9964
 -43142083.68447 -33591732.21245  21017037.3914                   21017037.1844
 -33172814.75846 -25794662.83643  23662625.1094                   23662629.0204
 -29792874.52347 -23131155.43646  21679215.8594                   21679215.1724
 -61518720.84847 -47907364.60145  21726077.1024                   21726077.5984
 -22317692.69547 -17364222.28645  22225262.0394                   22225263.4264
 -50836428.55147 -39584970.97746  20757742.2034                   20757739.9884
  -1798766.73446  -1358615.34842  24113679.8204                   24113680.6214
  -1605389.92246  -1208373.84643  24440773.1644                   24440776.1524
 11  8 21  0 13  0.0000000  0  9G17G10G09G12G04G05G02G30G25
 -76133653.14547 -59297059.79944  23225877.2664                   23225877.4884
 -43215398.56647 -33648860.67346  21003085.8204                   21003085.7814
 -33165774.69546 -25789177.20443  23663964.7664                   23663968.7584
 -29926004.78947 -23234893.28646  21653881.6954                   21653881.3484
 -61512336.82847 -47902390.06545  21727292.1094                   21727292.5944
 -22478757.28547 -17489727.05245  22194612.2424                   22194613.7544
 -50907894.73847 -39640658.91346  20744142.6484                   20744140.2814
  -1969246.37146  -1491456.59443  24081238.6414                   24081239.8914
  -1775613.33646  -1341015.46643  24408381.1484                   24408384.1484
 11  8 21  0 13 30.0000000  0  9G17G10G09G12G04G05G02G30G25
 -76151862.57047 -59311248.99944  23222411.7664                   23222412.0704
 -43288008.19547 -33705439.58046  20989268.8594                   20989268.7344
 -33158464.00046 -25783480.73443  23665356.6804                   23665360.5864
 -30058649.89847 -23338253.10446  21628640.2734                   21628639.5864
 -61505725.85947 -47897238.68245  21728550.2034                   21728550.5704
 -22639459.82847 -17614949.72145  22164031.7274                   22164033.1254
 -50978988.08647 -39696056.32446  20730613.9064                   20730611.5394
  -2139418.59846  -1624058.34243  24048855.8444                   24048857.1334
  -1945608.78946  -1473479.37943  24376031.1024                   24376034.7854
 11  8 21  0 14  0.0000000  0  9G17G10G09G12G04G05G02G30G25
 -76169839.55547 -59325257.06844  23218991.7034                   23218991.1564
 -43359908.90647 -33761466.07746  20975586.4534                   20975586.2464
 -33150883.12146 -25777573.72843  23666799.1414                   23666803.1174
 -30190804.37147 -23441230.57246  21603492.4144                   21603491.9804
 -61498887.03947 -47891909.75645  21729851.3524                   21729851.4614
 -22799794.16047 -17739885.44245  22133520.8984                   22133522.1884
 -51049706.77347 -39751161.76746  20717156.5944                   20717154.2584
  -2309277.76246  -1756416.11043  24016532.7894                   24016534.6254
  -2115370.83646  -1605761.48143  24343726.7974                   24343730.9344
 11  8 21  0 14 30.0000000  0  9G17G10G09G12G04G05G02G30G25
 -76187586.52047 -59339085.89444  23215614.1484                   23215614.5204
 -43431103.44547 -33816942.33145  20962038.4534                   20962038.5314
 -33143038.66446 -25771461.28843  23668290.9304                   23668296.1334
 -30322469.00447 -23543826.37345  21578437.2274                   21578436.9574
 -61491825.63347 -47886407.37145  21731195.2814                   21731195.2504
 -22959760.52747 -17864534.45545  22103080.1804                   22103081.2074
 -51120055.05947 -39805978.60846  20703769.7974                   20703767.1724
  -2478823.87946  -1888529.80943  23984269.1884                   23984271.4414
  -2284899.87146  -1737861.99543  24311466.0704                   24311470.1484
 11  8 21  0 15  0.0000000  0  9G17G10G09G12G04G05G02G30G25
 -76205102.35947 -59352734.63344  23212280.6174                   23212281.4264
 -43501591.57847 -33871868.12145  20948625.3674                   20948624.7384
 -33134933.52346 -25765145.77743  23669834.8594                   23669838.3594
 -30453641.00447 -23646038.30946  21553475.7664                   21553475.7114
 -61484543.27747 -47880732.81245  21732580.9924                   21732580.8794
 -23119355.82447 -17988894.31745  22072710.7974                   22072711.4774
 -51190033.64847 -39860507.36746  20690453.1334                   20690450.8284
  -2648053.98846  -2020397.34343  23952065.8134                   23952066.9224
  -2454192.98046  -1869778.63743  24279251.2814                   24279254.8444
 11  8 21  0 15 30.0000000  0  9G17G10G09G12G04G05G02G30G25
 -76222384.63347 -59366201.33844  23208991.9224                   23208992.8284
 -43571370.94547 -33926241.62646  20935346.0634                   20935346.0354
 -33126569.29346 -25758628.32343  23671425.6724                   23671430.0594
 -30584315.96147 -23747862.91346  21528609.2894                   21528608.7584
 -61477040.10947 -47874886.17645  21734009.1094                   21734009.0354
 -23278575.38747 -18112961.38945  22042411.5864                   22042413.2774
 -51259641.97347 -39914747.58746  20677207.1174                   20677204.8014
  -2816963.25446  -2152014.96543  23919924.0394                   23919924.7034
  -2623245.72346  -2001507.99043  24247081.3834                   24247085.0044
 11  8 21  0 16  0.0000000  0  9G17G10G09G12G04G05G02G30G25
 -76239429.95747 -59379483.46144  23205747.6254                   23205749.0744
 -43640438.46547 -33980060.43745  20922203.1024                   20922202.8204
 -33117946.58646 -25751909.45943  23673067.5314                   23673070.8134
 -30714488.89547 -23849296.33746  21503838.2034                   21503837.8014
 -61469315.18747 -47868866.76345  21735478.2584                   21735478.9304
 -23437413.31647 -18236731.09445  22012185.7424                   22012186.8444
 -51328877.82047 -39968697.58746  20664032.0944                   20664029.3524
  -2985546.09446  -2283378.20743  23887843.5164                   23887844.3444
  -2792052.57446  -2133045.69443  24214958.1484                   24214961.5514
 11  8 21  0 16 30.0000000  0  9G17G10G09G12G04G05G02G30G25
 -76256241.73447 -59392583.57844  23202549.4844                   23202549.9844
 -43708797.23447 -34033326.98745  20909195.0634                   20909194.5744
 -33109072.66446 -25744994.84143  23674756.0554                   23674759.9774
 -30844161.28547 -23950339.74946  21479162.1954                   21479161.5944
 -61461374.39847 -47862679.10145  21736989.5394                   21736990.4804
 -23595870.41447 -18360204.05745  21982032.1254                   21982033.8404
 -51397746.25847 -40022361.28446  20650926.7584                   20650924.1454
  -3153803.52746  -2414487.71043  23855825.0704                   23855825.7034
  -2960614.87946  -2264392.86943  24182881.5784                   24182885.1994
 11  8 21  0 17  0.0000000  0  9G17G10G09G12G04G05G02G30G25
 -76272823.62946 -59405504.58044  23199393.3134                   23199394.8524
 -43776451.79347 -34086044.80345  20896320.4694                   20896320.2544
 -33099955.42646 -25737890.62243  23676491.6094                   23676494.1024
 -30973335.31647 -24050994.80046  21454581.0944                   21454581.0784
 -61453224.42647 -47856328.45345  21738540.1334                   21738540.9574
 -23753948.32447 -18483381.53645  21951951.2504                   21951952.1604
 -51466253.19147 -40075743.27246  20637890.5944                   20637887.6644
  -3321737.02046  -2545344.95143  23823867.9924                   23823869.2344
  -3128934.44546  -2395550.87744  24150851.2344                   24150855.2154
 11  8 21  0 17 30.0000000  0  9G17G10G09G12G04G05G02G30G25
 -76289169.62147 -59418241.76444  23196283.5314                   23196284.0274
 -43843396.15247 -34138209.19845  20883581.5474                   20883581.4024
 -33090592.44547 -25730594.97643  23678273.3834                   23678276.6684
 -31102002.85247 -24151255.19346  21430096.6414                   21430096.4024
 -61444861.37147 -47849811.78445  21740132.3524                   21740132.6214
 -23911638.70747 -18606257.04245  21921943.6254                   21921944.2894
 -51534393.79347 -40128839.82346  20624923.5234                   20624921.1644
  -3489338.31646  -2675943.26343  23791974.8134                   23791975.7274
  -3297003.08246  -2526513.38344  24118868.9224                   24118872.6484
 11  8 21  0 18  0.0000000  0  9G17G10G09G12G04G05G02G30G25
 -76305278.18447 -59430793.92044  23193217.9694                   23193218.9104
 -43909629.37947 -34189819.48145  20870977.8054                   20870977.6684
 -33080986.43447 -25723109.88043  23680101.6334                   23680104.7624
 -31230160.72747 -24251118.45046  21405709.3054                   21405708.6254
 -61436286.43747 -47843129.99145  21741763.6564                   21741764.2854
 -24068937.88747 -18728827.72345  21892010.3364                   21892010.9264
 -51602168.52047 -40181651.26346  20612026.6954                   20612023.8324
  -3656603.60546  -2806279.72443  23760145.3284                   23760145.8554
  -3464817.35246  -2657277.66744  24086935.0004                   24086938.8634
 11  8 21  0 18 30.0000000  0  9G17G10G09G12G04G05G02G30G25
 -76321151.58647 -59443162.86244  23190197.3364                   23190198.8794
 -43975153.84447 -34240877.49745  20858509.3054                   20858508.6214
 -33071143.31247 -25715440.05443  23681973.8754                   23681978.3164
 -31357808.87547 -24350584.51946  21381418.4224                   21381417.8754
 -61427504.16447 -47836286.65645  21743435.0084                   21743435.3634
 -24225845.28947 -18851093.13345  21862151.8754                   21862152.4614
 -51669581.25447 -40234180.62146  20599198.2734                   20599195.8794
  -3823532.70746  -2936354.33643  23728379.5314                   23728379.9304
  -3632377.18446  -2787843.64344  24055049.4924                   24055052.3524
 11  8 21  0 19  0.0000000  0  9G17G10G09G12G04G05G02G30G25
 -76336789.95347 -59455348.66644  23187221.4144                   23187222.6024
 -44039970.51247 -34291383.97745  20846175.2504                   20846174.2304
 -33061067.22747 -25707588.69544  23683891.6954                   23683895.2894
 -31484946.53147 -24449652.80446  21357224.6334                   21357224.2894
 -61418517.62147 -47829284.13045  21745145.0234                   21745145.1884
 -24382359.29347 -18973052.00445  21832367.6644                   21832368.5944
 -51736634.05547 -40286429.53046  20586439.0084                   20586436.2584
  -3990123.72746  -3066165.39643  23696678.1254                   23696679.4804
  -3799681.05546  -2918210.23043  24023212.4774                   24023215.7274
 11  8 21  0 19 30.0000000  0  9G17G10G09G12G04G05G02G30G25
 -76352193.06647 -59467351.10744  23184290.5164                   23184291.0084
 -44104079.46548 -34341339.00345  20833975.6094                   20833975.0164
 -33050762.03547 -25699558.85743  23685853.0474                   23685856.8914
 -31611571.44547 -24548321.54446  21333128.9304                   21333128.0784
 -61409329.00047 -47822124.16545  21746893.2424                   21746893.7544
 -24538477.32847 -19094702.31945  21802659.2114                   21802660.4574
 -51803328.43747 -40338399.16246  20573747.3134                   20573744.6214
  -4156374.03546  -3195711.05343  23665041.3524                   23665042.4694
  -3966726.51246  -3048375.41644  23991424.9304                   23991428.3954
 11  8 21  0 20  0.0000000  0  9G17G10G09G12G04G05G02G30G25
 -76367358.64547 -59479168.49944  23181404.4144                   23181405.0594
 -44167479.39147 -34390741.52745  20821910.7344                   20821909.8754
 -33040229.28947 -25691351.66943  23687856.9614                   23687861.3164
 -31737679.88747 -24646587.83946  21309131.5944                   21309130.5744
 -61399938.53147 -47814806.92645  21748680.7814                   21748680.7974
 -24694194.94547 -19216040.63345  21773027.7034                   21773028.3324
 -51869663.66847 -40390088.90946  20561123.9924                   20561121.2704
  -4322279.43746  -3324987.89343  23633471.1254                   23633471.3204
  -4133509.34846  -3178335.99044  23959686.6024                   23959689.8204
 11  8 21  0 20 30.0000000  0  9G17G10G09G12G04G05G02G30G25
 -76382284.28547 -59490798.91644  23178564.4844                   23178565.0084
 -44230168.23448 -34439589.96145  20809981.4304                   20809980.7664
 -33029470.82846 -25682968.59843  23689904.5474                   23689909.2074
 -31863267.76647 -24744448.51246  21285232.6024                   21285232.1174
 -61390346.73047 -47807332.77245  21750505.3834                   21750506.4184
 -24849507.46547 -19337063.28846  21743472.4534                   21743473.7504
 -51935639.55147 -40441498.66746  20548569.0554                   20548566.4414
  -4487835.23046  -3453992.35543  23601966.8364                   23601966.9964
  -4300025.28146  -3308088.60144  23927999.6254                   23928003.0044
 11  8 21  0 21  0.0000000  0  9G17G10G09G12G04G05G02G30G25
 -76396973.56647 -59502245.14844  23175769.5314                   23175770.2274
 -44292149.49248 -34487887.03345  20798186.6094                   20798186.6604
 -33018493.84746 -25674415.25943  23691993.1414                   23691998.5984
 -31988336.47347 -24841904.63246  21261433.1334                   21261432.0664
 -61380558.87547 -47799705.87045  21752368.6334                   21752368.6054
 -25004415.88347 -19457771.04146  21713994.6414                   21713995.4654
 -52001260.69147 -40492631.99846  20536081.7584                   20536079.2974
  -4653042.24246  -3582724.96843  23570529.0314                   23570529.5124
  -4466275.38346  -3437634.02343  23896363.3444                   23896366.4964
 11  8 21  0 21 30.0000000  0  9G17G10G09G12G04G05G02G30G25
 -76411421.20747 -59513503.10944  23173020.1024                   23173020.9494
 -44353418.78547 -34535629.34545  20786527.7274                   20786527.1914
 -33007296.96546 -25665690.53143  23694124.6334                   23694129.2194
 -32112879.01247 -24938950.73546  21237733.5554                   21237732.7234
 -61370572.49247 -47791924.26145  21754268.9304                   21754269.1134
 -25158912.78147 -19578158.14045  21684594.2344                   21684594.9964
 -52066523.78147 -40543486.32746  20523662.7734                   20523659.9654
  -4817893.00446  -3711180.03143  23539158.7584                   23539159.3834
  -4632252.30946  -3566966.64744  23864779.5394                   23864782.1484
 11  8 21  0 22  0.0000000  0  9G17G10G09G12G04G05G02G30G25
 -76425630.15247 -59524575.03344  23170315.8444                   23170316.5004
 -44413979.67647 -34582819.63345  20775003.1414                   20775002.9884
 -32995886.97346 -25656799.76343  23696295.2974                   23696299.9734
 -32236896.70747 -25035587.87546  21214133.1884                   21214132.6844
 -61360392.94547 -47783992.14945  21756205.2894                   21756206.3794
 -25312998.40247 -19698224.76845  21655273.1094                   21655273.0594
 -52131433.30147 -40594065.14446  20511310.7664                   20511307.7154
  -4982388.17246  -3839358.09643  23507856.4534                   23507857.0634
  -4797956.89847  -3696087.02043  23833246.4844                   23833249.2894
 11  8 21  0 22 30.0000000  0  9G17G10G09G12G04G05G02G30G25
 -76439597.31647 -59535458.56044  23167658.8914                   23167658.7424
 -44473830.17648 -34629456.38045  20763614.3524                   20763613.8094
 -32984265.50046 -25647744.15543  23698507.3834                   23698511.4694
 -32360385.28547 -25131812.71046  21190634.4614                   21190633.4964
 -61350020.00047 -47775909.34045  21758179.8834                   21758180.3134
 -25466668.49647 -19817967.59845  21626030.2974                   21626031.3674
 -52195988.39147 -40644367.78446  20499026.2584                   20499023.7274
  -5146522.85246  -3967255.19643  23476622.3444                   23476622.9264
  -4963384.55146  -3824991.63343  23801766.7504                   23801769.7274
 11  8 21  0 23  0.0000000  0  9G17G10G09G12G04G05G02G30G25
 -76453324.09447 -59546154.79344  23165045.9144                   23165046.1524
 -44532971.98448 -34675540.89946  20752359.5474                   20752359.3634
 -32972437.27746 -25638527.53243  23700758.4144                   23700763.2344
 -32483344.19147 -25227624.80846  21167236.5084                   21167235.4344
 -61339456.96547 -47767678.41945  21760189.9614                   21760190.0274
 -25619921.25447 -19937385.22746  21596867.1484                   21596867.8054
 -52260191.95747 -40694396.52346  20486808.5084                   20486806.1994
  -5310295.75846  -4094870.35943  23445457.7504                   23445458.1414
  -5128534.07046  -3953679.51343  23770339.5084                   23770342.7734
 11  8 21  0 23 30.0000000  0  9G17G10G09G12G04G05G02G30G25
 -74891391.22747 -58329064.29644  23462272.6644                   23462272.5434
 -43015985.14548 -33493473.22445  21041032.5164                   21041032.1134
 -31384987.66446 -24401553.95743  24002840.1024                   24002844.5474
 -31030348.87147 -24095420.63046  21443732.0084                   21443731.0784
 -59753288.14547 -46531702.71845  22062027.9064                   22062028.2664
 -24197331.19547 -18828873.40346  21867577.1094                   21867577.8984
 -50748624.64847 -39516551.85346  20774450.6024                   20774447.9614
  -3898280.44546  -2994598.68043  23714155.0474                   23714155.5164
  -3717979.19946  -2854545.79643  24038760.0554                   24038762.5204
 11  8 21  0 24  0.0000000  0  9G17G10G09G12G04G05G02G30G25
 -74904640.09447 -58339388.07644  23459750.8984                   23459751.3594
 -43073714.73048 -33538457.29946  21030046.6954                   21030047.1884
 -31372760.39146 -24392026.36244  24005166.7664                   24005171.6414
 -31152246.15647 -24190405.47746  21420535.6954                   21420534.9804
 -59742355.58647 -46523183.85745  22064108.2974                   22064108.8054
 -24349746.55947 -18947638.50945  21838573.3054                   21838573.7154
 -50812133.12947 -39566038.96546  20762364.9454                   20762362.3874
  -4061325.98046  -3121647.06743  23683128.2034                   23683128.6994
  -3882569.31246  -2982797.84644  24007439.1804                   24007441.6484
 11  8 21  0 24 30.0000000  0  9G17G10G09G12G04G05G02G30G25
 -74917648.09046 -58349524.20144  23457275.1884                   23457276.1294
 -43130737.50048 -33582890.61746  21019196.0234                   21019195.6334
 -31360337.83646 -24382346.59643  24007531.1174                   24007535.6524
 -31273608.29747 -24284973.33746  21397441.4064                   21397440.5744
 -59731240.14847 -46514522.49445  22066223.3754                   22066223.5824
 -24501737.77047 -19066073.12946  21809650.5554                   21809650.6054
 -50875294.91447 -39615255.94346  20750345.8444                   20750343.3484
  -4224002.63746  -3248408.10243  23652172.3204                   23652172.2074
  -4046874.80946  -3110828.05143  23976172.3754                   23976174.9384
 11  8 21  0 25  0.0000000  0  9G17G10G09G12G04G05G02G30G25
 -74930413.59446 -58359471.35943  23454845.7274                   23454847.1024
 -43187052.30948 -33626772.27246  21008479.6954                   21008479.1454
 -31347721.61746 -24372515.88744  24009932.4384                   24009936.4104
 -31394431.80547 -24379121.49246  21374448.9534                   21374448.4924
 -59719942.04347 -46505718.77545  22068373.3524                   22068373.6024
 -24653300.84447 -19184174.12545  21780808.5004                   21780809.3014
 -50938109.58647 -39664202.43946  20738392.3524                   20738389.6254
  -4386305.94146  -3374878.15743  23621286.6644                   23621286.7854
  -4210891.40247  -3238633.15644  23944961.3054                   23944964.0554
 11  8 21  0 25 30.0000000  0  9G17G10G09G12G04G05G02G30G25
 -74942934.37946 -58369227.90943  23452462.7894                   23452464.4064
 -43242658.02348 -33670101.39446  20997898.4064                   20997897.8834
 -31334914.22346 -24362536.19543  24012368.9144                   24012373.3134
 -31514713.43747 -24472847.37946  21351560.2114                   21351559.4304
 -59708461.92647 -46496773.25644  22070557.5944                   22070557.7774
 -24804431.78147 -19301938.42545  21752049.4774                   21752050.2814
 -51000577.12947 -39712878.45946  20726505.6884                   20726502.7624
  -4548232.02746  -3501054.24843  23590472.9614                   23590472.9884
  -4374615.27046  -3366210.14444  23913805.4144                   23913808.4144
 11  8 21  0 26  0.0000000  0  9G17G10G09G12G04G05G02G30G25
 -74955215.37946 -58378797.54444  23450126.6174                   23450128.5004
 -43297559.77348 -33712881.97146  20987450.7274                   20987450.6484
 -31321923.75046 -24352413.88944  24014841.3054                   24014846.3094
 -31634455.79747 -24566153.07346  21328773.9694                   21328773.0164
 -59696806.60247 -46487691.20944  22072775.3674                   22072775.5704
 -24955132.41847 -19419367.38446  21723371.9064                   21723372.3874
 -51062703.63347 -39761288.72346  20714682.8524                   20714680.4224
  -4709782.72346  -3626937.81443  23559730.4224                   23559731.6214
  -4538048.62547  -3493560.71344  23882705.0944                   23882708.1174
 11  8 21  0 26 30.0000000  0  9G17G10G09G12G04G05G02G30G25
 -74967256.23046 -58388180.06744  23447835.8984                   23447836.9494
 -43351758.59448 -33755114.80246  20977136.8134                   20977136.4964
 -31308753.92646 -24342151.87743  24017347.4224                   24017353.0314
 -31753657.12547 -24659037.17446  21306090.8674                   21306089.6954
 -59684978.32447 -46478474.40444  22075026.9774                   22075026.2424
 -25105400.89547 -19536459.60346  21694776.4534                   21694777.1374
 -51124490.94147 -39809434.70246  20702925.4064                   20702922.7154
  -4870955.93446  -3752527.26343  23529060.5634                   23529060.7424
  -4701189.34446  -3620683.30943  23851660.1484                   23851663.4694
 11  8 21  0 27  0.0000000  0  9G17G10G09G12G04G05G02G30G25
 -74979058.55946 -58397376.71544  23445589.8984                   23445590.9574
 -43405256.67648 -33796801.60546  20966956.8444                   20966956.4414
 -31295410.12546 -24331754.17343  24019886.3054                   24019892.2584
 -31872317.47347 -24751499.74946  21283510.6724                   21283509.4774
 -59672981.01247 -46469125.87644  22077309.8984                   22077309.5084
 -25255236.36747 -19653214.44046  21666263.9534                   21666264.6134
 -51185942.28147 -39857318.88546  20691231.6644                   20691229.1134
  -5031750.85246  -3877821.87943  23498462.3284                   23498462.8364
  -4864036.89547  -3747577.41144  23820671.8524                   23820674.4804
 11  8 21  0 27 30.0000000  0  9G17G10G09G12G04G05G02G30G25
 -74990617.54746 -58406383.71144  23443389.2274                   23443391.0594
 -43458050.56648 -33837939.68645  20956910.3674                   20956909.9144
 -31281891.52046 -24321220.35743  24022459.5394                   24022464.6604
 -31990430.32047 -24843535.69746  21261034.7344                   21261033.2584
 -59660812.28947 -46459643.79344  22079625.3134                   22079625.3484
 -25404632.03147 -19769626.54545  21637834.5004                   21637835.1334
 -51247054.53948 -39904938.83946  20679602.3914                   20679599.7664
  -5192160.37546  -4002816.20143  23467936.7814                   23467938.2274
  -5026584.28146  -3874237.60543  23789740.2974                   23789741.9844
 11  8 21  0 28  0.0000000  0  9G17G10G09G12G04G05G02G30G25
 -75001934.60546 -58415202.27144  23441235.8914                   23441237.4614
 -43510141.94948 -33878530.32546  20946997.5004                   20946997.2854
 -31268203.40246 -24310554.42843  24025064.0004                   24025069.7194
 -32107995.78547 -24935145.10546  21238662.4304                   21238661.4264
 -59648475.70347 -46450030.89545  22081973.2734                   22081972.9104
 -25553586.64147 -19885694.97745  21609489.5634                   21609490.0474
 -51307830.63348 -39952296.83946  20668036.9454                   20668034.4414
  -5352183.38346  -4127509.37543  23437485.3914                   23437486.6134
  -5188830.63747  -4000663.23343  23758864.9694                   23758867.9144
 11  8 21  0 28 30.0000000  0  9G17G10G09G12G04G05G02G30G25
 -75013009.01646 -58423831.67544  23439128.7504                   23439129.8594
 -43561530.94947 -33918573.68446  20937218.2894                   20937218.3204
 -31254348.35946 -24299758.41943  24027700.8594                   24027706.1414
 -32225011.25847 -25026325.96946  21216394.9774                   21216394.2934
 -59635972.61747 -46440288.24345  22084352.7344                   22084352.5514
 -25702097.26647 -20001417.45446  21581228.9614                   21581229.0204
 -51368271.49247 -39999393.62346  20656535.9224                   20656533.0204
  -5511816.73846  -4251898.90143  23407108.4694                   23407109.2464
  -5350772.96147  -4126851.96244  23728048.3524                   23728051.3134
 11  8 21  0 29  0.0000000  0  9G17G10G09G12G04G05G02G30G25
 -75023836.49246 -58432268.74244  23437068.8674                   23437069.5704
 -43612214.87147 -33958067.60545  20927573.6484                   20927573.5744
 -31240326.36346 -24288832.29043  24030369.1254                   24030373.8914
 -32341471.19947 -25117073.93546  21194232.8284                   21194232.5554
 -59623301.21547 -46430414.44445  22086763.6804                   22086764.2304
 -25850157.81647 -20116789.23445  21553053.9454                   21553054.5474
 -51428374.87948 -40046227.43146  20645098.9614                   20645095.6564
  -5671054.23046  -4375979.92443  23376806.7664                   23376806.9454
  -5512405.00446  -4252798.89244  23697290.7894                   23697293.8054
 11  8 21  0 29 30.0000000  0  9G17G10G09G12G04G05G02G30G25
 -75034423.75446 -58440518.59144  23435054.1094                   23435055.2734
 -43662201.45747 -33997018.18645  20918061.1804                   20918061.2894
 -31226147.93746 -24277784.33343  24033067.5784                   24033071.6294
 -32457380.59847 -25207392.92546  21172176.2424                   21172175.7854
 -59610470.78947 -46420416.72045  22089205.5004                   22089205.6684
 -25997772.96547 -20231813.93246  21524963.7894                   21524964.1024
 -51488149.11748 -40092804.75846  20633723.6954                   20633721.4574
  -5829900.19546  -4499755.94143  23346578.8914                   23346579.4574
  -5673731.50046  -4378507.72243  23666591.6414                   23666594.1174
 11  8 21  0 30  0.0000000  0  9G17G10G09G12G04G05G02G30G25
 -75044765.80947 -58448577.36244  23433086.2734                   23433087.1844
 -43711486.35947 -34035421.97845  20908683.0004                   20908682.7304
 -31211811.43746 -24266613.15743  24035795.9454                   24035799.1524
 -32572732.70747 -25297277.66646  21150225.7664                   21150224.8794
 -59597478.08647 -46410292.54245  22091677.5784                   22091677.9264
 -26144935.06647 -20346485.62046  21496959.4924                   21496959.8914
 -51547590.74248 -40139122.89746  20622412.4064                   20622409.8834
  -5988347.01246  -4623220.89843  23316427.5784                   23316427.6484
  -5834744.79347  -4503972.52644  23635951.6884                   23635955.0434
 11  8 21  0 30 30.0000000  0  9G17G10G09G12G04G05G02G30G25
 -75054861.87946 -58456444.44044  23431164.5084                   23431165.8014
 -43760070.05547 -34073279.38045  20899437.9384                   20899437.2664
 -31197320.57446 -24255321.68243  24038553.9924                   24038556.7424
 -32687525.80147 -25386726.81146  21128380.9144                   21128380.3954
 -59584325.21147 -46400043.54944  22094180.5634                   22094181.4454
 -26291641.72747 -20460802.40446  21469042.2814                   21469042.6844
 -51606700.99248 -40185182.81746  20611163.6174                   20611161.4064
  -6146392.17646  -4746372.87243  23286352.1254                   23286353.1374
  -5995442.56247  -4629191.47244  23605371.3444                   23605374.6764
 11  8 21  0 31  0.0000000  0  9G17G10G09G12G04G05G02G30G25
 -75064713.85946 -58464121.36144  23429289.6174                   23429291.3094
 -43807955.22347 -34110592.47045  20890325.6414                   20890325.1054
 -31182680.68746 -24243914.11243  24041339.6954                   24041343.0394
 -32801759.75447 -25475740.27846  21106643.2894                   21106642.3594
 -59571015.61347 -46389672.44645  22096713.3364                   22096714.0594
 -26437892.23447 -20574763.74746  21441211.3674                   21441212.1334
 -51665483.07848 -40230987.03246  20599977.8594                   20599975.1844
  -6304034.68746  -4869211.13043  23256354.4304                   23256354.4264
  -6155823.96547  -4754163.87844  23574852.4304                   23574855.0824
 11  8 21  0 31 30.0000000  0  9G17G10G09G12G04G05G02G30G25
 -75074320.28946 -58471606.91943  23427462.0314                   23427463.1374
 -43855141.41447 -34147360.90845  20881345.9924                   20881345.8634
 -31167893.94146 -24232392.19743  24044153.7734                   24044157.4454
 -32915431.72347 -25564315.84046  21085012.2034                   21085010.8984
 -59557550.27347 -46379179.98645  22099275.4844                   22099276.0664
 -26583682.80948 -20688366.71546  21413468.5784                   21413468.9494
 -51723937.39548 -40276535.82746  20588854.2814                   20588851.8364
  -6461270.94146  -4991732.81343  23226432.6884                   23226433.0864
  -6315885.52747  -4878887.09544  23544393.0314                   23544396.4304
 11  8 21  0 32  0.0000000  0  9G17G10G09G12G04G05G02G30G25
 -75083683.91046 -58478903.23644  23425679.7424                   23425681.3834
 -43901632.53948 -34183587.72445  20872499.7034                   20872498.8244
 -31152966.70346 -24220760.68643  24046992.7814                   24046998.4494
 -33028542.82047 -25652454.36446  21063488.1024                   21063486.6604
 -59543934.12147 -46368570.05344  22101867.0394                   22101867.1564
 -26729014.10548 -20801611.80346  21385812.9844                   21385813.3554
 -51782068.18048 -40321832.51446  20577792.5634                   20577790.0044
  -6618101.25046  -5113938.15543  23196588.9454                   23196589.0984
  -6475627.68747  -5003361.40444  23513995.2734                   23513998.8094
 11  8 21  0 32 30.0000000  0  9G17G10G09G12G04G05G02G30G25
 -75092799.82046 -58486006.57744  23423945.1174                   23423946.3634
 -43947424.99248 -34219270.14145  20863785.3984                   20863784.9964
 -31137898.31246 -24209019.30343  24049860.5084                   24049866.1054
 -33141086.66847 -25740150.87446  21042071.3674                   21042070.3794
 -59530164.41447 -46357840.42845  22104486.9534                   22104487.8244
 -26873878.98448 -20914493.45446  21358245.6724                   21358246.1214
 -51839872.36748 -40366874.72446  20566792.7504                   20566790.0554
  -6774518.42646  -5235821.59443  23166823.5314                   23166824.0554
  -6635043.35247  -5127581.34444  23483659.3594                   23483662.6214
 11  8 21  0 33  0.0000000  0  9G17G10G09G12G04G05G02G30G25
 -75101666.07046 -58492915.38844  23422258.3984                   23422259.4024
 -43992518.18747 -34254407.68446  20855204.7344                   20855204.1844
 -31122690.42246 -24197169.13543  24052754.9774                   24052760.6254
 -33253060.08648 -25827402.89446  21020763.5004                   21020762.5204
 -59516241.52747 -46346991.47044  22107136.6254                   22107137.1174
 -27018274.24648 -21027009.15546  21330768.6644                   21330768.8444
 -51897349.99648 -40411662.46246  20555855.1804                   20555852.4964
  -6930518.44946  -5357379.95643  23137137.8594                   23137138.3404
  -6794128.57447  -5251543.74444  23453386.6174                   23453388.9924
 11  8 21  0 33 30.0000000  0  9G17G10G09G12G04G05G02G30G25
 -75110286.00446 -58499632.19843  23420618.3054                   23420619.0864
 -44036916.29347 -34289003.61245  20846755.6884                   20846755.4804
 -31107349.61346 -24185215.46143  24055674.1884                   24055680.3714
 -33364464.49248 -25914211.53046  20999564.2734                   20999563.3554
 -59502170.53147 -46336027.10144  22109814.5234                   22109813.9654
 -27162200.25048 -21139159.21046  21303380.2814                   21303380.3914
 -51954505.50448 -40456199.18946  20544978.7584                   20544976.3364
  -7086101.93046  -5478613.79943  23107531.4064                   23107532.3524
  -6952884.17647  -5375249.33544  23423176.1564                   23423179.0314
 11  8 21  0 34  0.0000000  0  9G17G10G09G12G04G05G02G30G25
 -75118657.15246 -58506155.22043  23419024.2034                   23419025.8834
 -44080618.41448 -34323057.21946  20838439.5234                   20838439.0474
 -31091877.52746 -24173159.45543  24058619.0314                   24058624.9494
 -33475296.46548 -26000574.10646  20978473.2584                   20978473.1174
 -59487951.50847 -46324947.39844  22112520.0084                   22112520.2504
 -27305652.53547 -21250940.13646  21276081.5554                   21276081.8674
 -52011338.50048 -40500484.63046  20534163.6724                   20534161.2734
  -7241264.27346  -5599519.43343  23078005.1414                   23078005.6884
  -7111305.55946  -5498694.47644  23393029.6884                   23393032.3204
 11  8 21  0 34 30.0000000  0  9G17G10G09G12G04G05G02G30G25
 -75126780.60546 -58512485.19843  23417479.9534                   23417480.6374
 -44123626.86748 -34356570.27946  20830255.2114                   20830254.9024
 -31076278.90646 -24161004.89243  24061587.3444                   24061593.2154
 -33585555.32448 -26086490.10746  20957492.5704                   20957491.2304
 -59473587.57847 -46313754.75344  22115253.3754                   22115253.0664
 -27448630.14548 -21362351.19246  21248873.9534                   21248873.9924
 -52067851.43748 -40544520.65946  20523409.4774                   20523407.4184
  -7396004.24246  -5720095.95143  23048558.8914                   23048560.0664
  -7269391.68747  -5621878.38244  23362947.0164                   23362949.8984
 11  8 21  0 35  0.0000000  0  9G17G10G09G12G04G05G02G30G25
 -73559235.68746 -57291021.61443  23715773.2504                   23715774.3404
 -42590520.39148 -33161941.85646  21121995.9304                   21121995.1414
 -29485137.56146 -22921154.61543  24364372.9534                   24364377.9064
 -32119815.61348 -24944355.27346  21236412.9304                   21236412.0234
 -57883660.64147 -45074850.71544  22417806.2424                   22417806.3714
 -26015705.89548 -20245786.76346  21521550.2664                   21521550.8594
 -50548623.37148 -39360706.57346  20812509.2194                   20812506.5704
  -5974893.74646  -4612737.07043  23318987.5554                   23318987.5744
  -5851714.37546  -4517194.70744  23632721.2424                   23632724.5634
 11  8 21  0 35 30.0000000  0  9G17G10G09G12G04G05G02G30G25
 -73566860.81646 -57296963.30144  23714322.2114                   23714323.4104
 -42632141.24648 -33194373.69746  21114075.6334                   21114074.6914
 -29469293.67246 -22908809.05343  24367387.9694                   24367393.0044
 -32228920.98448 -25029372.45446  21215650.9534                   21215649.6804
 -57869009.73047 -45063434.45744  22420593.8364                   22420594.6054
 -26157724.51648 -20356450.54646  21494525.0314                   21494525.3834
 -50604498.39848 -39404245.53146  20801876.4224                   20801873.6914
  -6128778.52746  -4732647.20643  23289704.3674                   23289704.0434
  -6009119.85247  -4639848.23144  23602768.4774                   23602771.2074
 11  8 21  0 36  0.0000000  0  9G17G10G09G12G04G05G02G30G25
 -73574237.71946 -57302711.54144  23712918.3594                   23712919.9064
 -42673071.78148 -33226267.62546  21106286.8054                   21106286.3634
 -29453333.62546 -22896372.90143  24370424.6414                   24370430.0704
 -32337448.57448 -25113939.41046  21194998.8754                   21194998.0124
 -57854219.53147 -45051909.64644  22423408.9614                   22423409.3324
 -26299261.79348 -20466739.24146  21467591.3524                   21467591.6414
 -50660058.01648 -39447538.72446  20791303.9384                   20791301.4804
  -6282233.44247  -4852222.43843  23260502.1884                   23260502.6024
  -6166182.79747  -4762234.87144  23572880.0704                   23572883.1134
 11  8 21  0 36 30.0000000  0  9G17G10G09G12G04G05G02G30G25
 -73581364.62946 -57308264.99544  23711562.7504                   23711563.5864
 -42713310.87547 -33257622.75045  21098629.0704                   21098628.7814
 -29437259.12146 -22883847.53843  24373483.9534                   24373488.8444
 -32445395.10248 -25198053.59246  21174457.2894                   21174456.3244
 -57839290.23047 -45040276.46144  22426249.3134                   22426250.6094
 -26440313.52748 -20576649.61046  21440749.9064                   21440750.1294
 -50715301.64548 -39490585.69746  20780791.1724                   20780788.7424
  -6435254.25047  -4971459.30943  23231382.7974                   23231383.6254
  -6322899.00847  -4884351.34744  23543057.8674                   23543061.6454
 11  8 21  0 37  0.0000000  0  9G17G10G09G12G04G05G02G30G25
 -73588245.60246 -57313626.81844  23710253.9454                   23710254.6134
 -42752864.19947 -33288443.50645  21091102.4774                   21091102.0554
 -29421078.11747 -22871239.20943  24376563.7034                   24376569.1844
 -32552763.17248 -25281717.00946  21154025.8444                   21154024.8284
 -57824228.01647 -45028539.69544  22429116.4224                   22429117.0164
 -26580881.81248 -20686183.26846  21414001.0164                   21414001.1884
 -50770235.34848 -39533391.18746  20770337.7034                   20770335.1994
  -6587842.57446  -5090359.26344  23202346.1644                   23202346.9844
  -6479270.35947  -5006199.05044  23513302.2974                   23513304.9534
 11  8 21  0 37 30.0000000  0  9G17G10G09G12G04G05G02G30G25
 -73594876.40246 -57318793.71844  23708991.4144                   23708992.6954
 -42791729.39547 -33318728.05545  21083706.3524                   21083706.1684
 -29404790.05946 -22858547.42743  24379663.1174                   24379668.0354
 -32659547.32847 -25364925.44146  21133705.5554                   21133704.2774
 -57809030.96947 -45016697.87645  22432008.0394                   22432008.8324
 -26720960.36748 -20795335.32046  21387344.9304                   21387344.3094
 -50824856.69948 -39575953.27346  20759943.6954                   20759941.5554
  -6739992.07447  -5208917.23744  23173393.5944                   23173394.6454
  -6635290.41847  -5127773.04344  23483612.2584                   23483614.8014
 11  8 21  0 38  0.0000000  0  9G17G10G09G12G04G05G02G30G25
 -73601254.86746 -57323763.96444  23707777.8134                   23707779.0514
 -42829905.18447 -33348475.40445  21076442.3674                   21076441.6334
 -29388396.22346 -22845773.25143  24382782.0394                   24382787.9964
 -32765744.03948 -25447676.10246  21113496.9924                   21113495.8524
 -57793698.40647 -45004750.46644  22434926.1644                   22434926.1954
 -26860544.73848 -20904102.28146  21360782.6954                   21360782.4024
 -50879165.02748 -39618271.45246  20749609.1884                   20749606.3284
  -6891698.13347  -5327129.69744  23144524.5394                   23144525.2194
  -6790954.68747  -5249069.81844  23453990.3444                   23453991.8984
 11  8 21  0 38 30.0000000  0  9G17G10G09G12G04G05G02G30G25
 -73607378.50446 -57328535.64144  23706612.0084                   23706614.1524
 -42867390.39547 -33377684.63345  21069308.8754                   21069308.7584
 -29371897.78146 -22832917.46443  24385921.4774                   24385927.4344
 -32871349.04348 -25529965.69846  21093400.7424                   21093400.1724
 -57778229.86747 -44992697.07744  22437869.6884                   22437869.4494
 -26999630.43048 -21012480.67046  21334315.0944                   21334315.1214
 -50933159.15648 -39660344.79746  20739334.5554                   20739331.8524
  -7042955.74646  -5444992.68343  23115740.6024                   23115742.3244
  -6946258.24647  -5370085.49744  23424436.2344                   23424438.7664
 11  8 21  0 39  0.0000000  0  9G17G10G09G12G04G05G02G30G25
 -73613248.22346 -57333109.50344  23705495.3524                   23705496.9774
 -42904187.24247 -33406357.48445  21062306.7734                   21062306.5394
 -29355298.65246 -22819983.32843  24389079.5234                   24389085.8714
 -32976361.87547 -25611793.87546  21073417.3914                   21073416.7234
 -57762628.21947 -44980539.96144  22440838.3594                   22440838.3094
 -27138216.17248 -21120469.48946  21307943.6884                   21307943.2774
 -50986841.42248 -39702175.12046  20729119.0234                   20729116.3054
  -7193763.39846  -5562505.07344  23087042.8674                   23087044.2304
  -7101199.58647  -5490818.92744  23394952.5394                   23394954.6764
 11  8 21  0 39 30.0000000  0  9G17G10G09G12G04G05G02G30G25
 -73618869.19146 -57337489.54644  23704426.5554                   23704427.3444
 -42940302.51647 -33434499.24345  21055434.1334                   21055433.8634
 -29338608.19946 -22806977.96543  24392256.7814                   24392262.7774
 -33080786.69948 -25693163.85446  21053546.3834                   21053545.2544
 -57746900.75047 -44968284.81844  22443830.6024                   22443831.4494
 -27276304.90648 -21228071.01546  21281665.3524                   21281665.5314
 -51040219.13348 -39743768.13546  20718961.2274                   20718958.9264
  -7344124.14147  -5679669.20344  23058430.4304                   23058430.8674
  -7255781.88747  -5611272.60844  23365536.0784                   23365538.5004
 11  8 21  0 40  0.0000000  0  9G17G10G09G12G04G05G02G30G25
 -73624240.16846 -57341674.75844  23703403.7114                   23703404.6094
 -42975736.35247 -33462110.01045  21048691.5554                   21048691.2114
 -29321828.91046 -22793903.38643  24395449.8524                   24395456.6214
 -33184621.33248 -25774073.93746  21033787.0004                   21033785.9734
 -57731048.28147 -44955932.28144  22446847.2504                   22446847.9224
 -27413893.92648 -21335283.16246  21255483.6094                   21255483.3674
 -51093292.70748 -39785124.15846  20708862.2274                   20708859.5124
  -7494034.54346  -5796482.46144  23029903.7114                   23029904.2274
  -7410001.66446  -5731443.78144  23336188.7734                   23336191.5434
 11  8 21  0 40 30.0000000  0  9G17G10G09G12G04G05G02G30G25
 -73629354.63746 -57345660.04744  23702430.4144                   23702431.6254
 -43010483.86747 -33489185.96245  21042079.3284                   21042078.9614
 -29304957.60946 -22780757.16343  24398661.3134                   24398665.6804
 -33287857.38348 -25854517.60146  21014142.1174                   21014140.8754
 -57715065.84446 -44943478.45744  22449888.9064                   22449890.0824
 -27550974.41848 -21442099.05446  21229397.8984                   21229397.6994
 -51146056.84048 -39826239.06746  20698821.4694                   20698818.6214
  -7643485.45346  -5912937.66443  23001464.2894                   23001464.5704
  -7563849.98846  -5851325.51844  23306912.8524                   23306915.1294
 11  8 21  0 41  0.0000000  0  9G17G10G09G12G04G05G02G30G25
 -73634217.18446 -57349449.10844  23701505.0784                   23701506.1094
 -43044551.32047 -33515732.00245  21035596.8364                   21035595.9304
 -29288002.60246 -22767545.61843  24401887.8674                   24401893.5554
 -33390498.23447 -25934497.46046  20994609.7814                   20994608.9384
 -57698960.02346 -44930928.44244  22452954.2664                   22452954.9264
 -27687549.00448 -21548520.73846  21203408.4224                   21203408.2734
 -51198517.72348 -39867117.65546  20688838.2664                   20688835.6524
  -7792479.22346  -6029036.67343  22973111.5164                   22973112.1764
  -7717329.14146  -5970919.62944  23277706.5234                   23277709.3674
 11  8 21  0 41 30.0000000  0  9G17G10G09G12G04G05G02G30G25
 -73638829.48046 -57353043.13543  23700627.4454                   23700628.8524
 -43077941.86747 -33541750.59445  21029242.4144                   21029242.0634
 -29270968.26646 -22754272.21443  24405128.9774                   24405135.3594
 -33492544.41848 -26014013.95346  20975191.0084                   20975190.1484
 -57682734.52047 -44918285.20044  22456041.7584                   22456042.5314
 -27823617.20348 -21654547.83846  21177515.5004                   21177515.4964
 -51250678.78548 -39907762.62546  20678912.2424                   20678909.6334
  -7941015.07847  -6144778.82444  22944846.2274                   22944846.6454
  -7870438.40646  -6090225.49744  23248570.7194                   23248573.1094
 11  8 21  0 42  0.0000000  0  9G17G10G09G12G04G05G02G30G25
 -73643190.31646 -57356441.19443  23699797.8524                   23699798.4884
 -43110655.71947 -33567241.88545  21023016.6094                   21023016.2114
 -29253857.24246 -22740939.12743  24408385.4614                   24408391.8554
 -33593993.10248 -26093064.84946  20955886.1644                   20955885.2194
 -57666389.88747 -44905549.13344  22459151.6254                   22459153.1094
 -27959175.84448 -21760177.87346  21151719.6414                   21151719.5044
 -51302540.31648 -39948174.18846  20669043.2894                   20669040.7704
  -8089089.69147  -6260161.60044  22916668.1804                   22916668.7934
  -8023174.48047  -6209240.56344  23219505.8284                   23219508.5744
 11  8 21  0 42 30.0000000  0  9G17G10G09G12G04G05G02G30G25
 -73647297.89146 -57359641.91543  23699016.2504                   23699016.4574
 -43142692.47747 -33592205.57645  21016920.4304                   21016920.1884
 -29236671.35246 -22727547.63443  24411656.5004                   24411662.3204
 -33694841.61748 -26171648.09046  20936695.3284                   20936694.3834
 -57649926.31647 -44892720.39544  22462284.7274                   22462285.9494
 -28094220.93748 -21865407.73646  21126021.4144                   21126021.4304
 -51354102.27048 -39988352.31646  20659231.4454                   20659228.9654
  -8236698.83247  -6375181.62343  22888579.2424                   22888579.8594
  -8175533.12547  -6327961.51644  23190512.6334                   23190515.1054
 11  8 21  0 43  0.0000000  0  9G17G10G09G12G04G05G02G30G25
 -73651151.69946 -57362644.85843  23698283.0084                   23698282.8094
 -43174052.98447 -33616642.30345  21010952.6954                   21010952.5354
 -29219413.80546 -22714100.36343  24414941.1804                   24414946.3834
 -33795088.25048 -26249762.31546  20917618.6884                   20917618.0784
 -57633345.09047 -44879799.99444  22465439.8984                   22465441.1024
 -28228750.06248 -21970235.56246  21100421.0784                   21100420.9924
 -51405365.34048 -40028297.55646  20649476.1804                   20649474.0944
  -8383839.57047  -6489836.71244  22860579.1174                   22860579.8444
  -8327511.47347  -6446386.17544  23161592.2274                   23161595.1054
 11  8 21  0 43 30.0000000  0  9G17G10G09G12G04G05G02G30G25
 -73654749.72746 -57365448.50743  23697598.3364                   23697597.5554
 -43204737.34847 -33640552.16445  21005113.6724                   21005113.3284
 -29202085.79746 -22700598.12843  24418237.8134                   24418244.2154
 -33894729.59048 -26327404.90246  20898657.8594                   20898657.1024
 -57616646.19147 -44866787.90544  22468617.9774                   22468618.5864
 -28362759.31648 -22074658.28346  21074920.2974                   21074920.0354
 -51456329.37548 -40068009.77146  20639778.6174                   20639775.7974
  -8530507.80147  -6604123.59044  22832669.3834                   22832669.4414
  -8479105.32047  -6564511.17444  23132745.0634                   23132747.5554
 11  8 21  0 44  0.0000000  0  9G17G10G09G12G04G05G02G30G25
 -73658094.58646 -57368054.93043  23696961.6094                   23696961.7384
 -43234749.56247 -33663938.27745  20999402.5634                   20999402.3014
 -29184693.40646 -22687045.81843  24421547.4144                   24421554.0004
 -33993766.84047 -26404576.75846  20879811.8444                   20879811.0634
 -57599833.62547 -44853687.18944  22471817.3754                   22471817.5514
 -28496249.23048 -22178676.33946  21049518.0554                   21049517.7384
 -51506998.13748 -40107491.88746  20630136.6954                   20630133.9414
  -8676703.46147  -6718042.21544  22804849.2664                   22804849.0044
  -8630314.82846  -6682336.73444  23103970.1884                   23103973.1334
 11  8 21  0 44 30.0000000  0  9G17G10G09G12G04G05G02G30G25
 -73661185.35246 -57370463.28343  23696372.6954                   23696373.6994
 -43264090.75047 -33686801.52145  20993819.6024                   20993818.6054
 -29167239.07846 -22673445.16843  24424869.5784                   24424875.9964
 -34092197.93048 -26481276.27746  20861080.6334                   20861080.2464
 -57582908.25847 -44840498.59144  22475037.6024                   22475038.3484
 -28629216.90248 -22282287.44946  21024214.9224                   21024214.6134
 -51557372.52748 -40146744.63646  20620550.6804                   20620547.7234
  -8822423.49647  -6831590.21144  22777119.3674                   22777119.3014
  -8781136.81647  -6799860.33944  23075270.0864                   23075272.7344
 11  8 21  0 45  0.0000000  0  9G17G10G09G12G04G05G02G30G25
 -73664019.71546 -57372671.83843  23695834.9064                   23695834.8364
 -43292760.05147 -33709141.20745  20988363.8444                   20988363.2194
 -29149724.04346 -22659797.25643  24428202.2194                   24428208.6564
 -34190019.40648 -26557500.78146  20842466.0554                   20842465.1764
 -57565869.87147 -44827221.94544  22478280.3524                   22478280.4414
 -28761658.35548 -22385488.50646  20999012.1644                   20999011.8674
 -51607451.78947 -40185767.41046  20611020.6414                   20611018.1374
  -8967663.29747  -6944764.01343  22749481.1094                   22749480.9454
  -8931566.60947  -6917078.31344  23046644.9924                   23046646.9384
 11  8 21  0 45 30.0000000  0  9G17G10G09G12G04G05G02G30G25
 -73666601.49246 -57374683.63543  23695342.7894                   23695343.5664
 -43320762.84047 -33730961.54045  20983035.0474                   20983034.4344
 -29132155.50045 -22646107.61843  24431544.9224                   24431551.8054
 -34287233.98447 -26633252.36746  20823966.5004                   20823965.4384
 -57548724.03547 -44813861.58244  22481543.1954                   22481543.8244
 -28893575.07048 -22488280.68546  20973908.8524                   20973908.8984
 -51657241.24648 -40224564.35146  20601546.1254                   20601543.2974
  -9112424.30547  -7057564.76044  22721933.9534                   22721933.7504
  -9081605.73047  -7033991.86244  23018093.1484                   23018095.5474
 11  8 21  0 46  0.0000000  0  9G17G10G09G12G04G05G02G30G25
 -73668926.45346 -57376495.32744  23694900.2814                   23694901.4964
 -43348096.14148 -33752260.19745  20977833.7974                   20977833.5394
 -29114532.45346 -22632375.51643  24434898.0164                   24434905.1724
 -34383836.09048 -26708526.69646  20805583.9774                   20805582.6764
 -57531467.79347 -44800415.20744  22484826.6954                   22484827.6254
 -29024960.75048 -22590659.08146  20948907.1724                   20948907.0044
 -51706737.99248 -40263133.20546  20592127.0474                   20592124.1604
  -9256699.77747  -7169987.13644  22694479.3134                   22694479.8204
  -9231247.44147  -7150595.73044  22989617.0234                   22989619.2814
 11  8 21  0 46 30.0000000  0  9G17G10G09G12G04G05G02G30G25
 -73670996.04346 -57378107.93543  23694506.3674                   23694507.0824
 -43374763.43048 -33773039.91745  20972759.0394                   20972758.8164
 -29096859.78546 -22618604.69643  24438261.4064                   24438268.1174
 -34479826.08648 -26783324.06546  20787317.0634                   20787316.2974
 -57514104.69947 -44786885.53944  22488131.4454                   22488131.7734
 -29155815.41848 -22692623.69646  20924006.3594                   20924006.0824
 -51755944.92648 -40301476.23846  20582763.5004                   20582760.4654
  -9400488.97346  -7282030.58944  22667116.8594                   22667117.1994
  -9380490.92647  -7266889.30544  22961215.8364                   22961218.8484
 11  8 21  0 47  0.0000000  0  9G17G10G09G12G04G05G02G30G25
 -73672809.21946 -57379520.80343  23694161.0234                   23694162.2734
 -43400765.88747 -33793301.57845  20967811.0634                   20967810.6884
 -29079140.10946 -22604797.34842  24441633.1884                   24441639.6254
 -34575202.07447 -26857642.97646  20769168.3834                   20769167.1484
 -57496635.35547 -44773273.07544  22491455.7424                   22491455.9384
 -29286135.89848 -22794172.06346  20899206.5944                   20899206.7974
 -51804862.65648 -40339593.91046  20573454.5314                   20573452.0434
  -9543788.68446  -7393692.65444  22639847.3674                   22639847.4264
  -9529332.93047  -7382870.02944  22932893.5864                   22932895.3244
 11  8 21  0 47 30.0000000  0  9G17G10G09G12G04G05G02G30G25
 -72098947.93046 -56153135.33244  23993656.6174                   23993658.0704
 -41850686.32847 -32585447.38545  21262781.2274                   21262780.6374
 -27485959.25046 -21363357.88743  24744806.3834                   24744812.6524
 -33094541.13748 -25703881.17846  21050928.7664                   21050927.7584
 -55903643.95747 -43531981.10744  22794591.6414                   22794592.4844
 -27840497.87148 -21667700.82246  21174302.7734                   21174302.6644
 -50278073.10248 -39149887.71646  20863992.6884                   20863990.0434
  -8111173.83247  -6277369.33644  22912465.3444                   22912464.9774
  -8102348.17647  -6270933.83544  23204438.9694                   23204440.8054
 11  8 21  0 48  0.0000000  0  9G17G10G09G12G04G05G02G30G25
 -72100248.59046 -56154148.84843  23993410.2034                   23993410.3754
 -41875364.31247 -32604676.98545  21258085.0704                   21258084.7074
 -27468155.35546 -21349484.87142  24748194.2664                   24748200.1994
 -33188685.78948 -25777240.61446  21033013.6024                   21033012.3834
 -55885967.43747 -43518207.20844  22797955.7344                   22797956.3244
 -27969744.06247 -21768412.07646  21149707.7734                   21149707.7464
 -50326417.46948 -39187558.62246  20854793.1094                   20854790.4774
  -8253487.87947  -6388263.36144  22885383.2814                   22885384.0234
  -8250380.53147  -6386283.66644  23176269.2584                   23176272.0164
 11  8 21  0 48 30.0000000  0  9G17G10G09G12G04G05G02G30G25
 -72101295.13346 -56154964.31643  23993210.0164                   23993211.7664
 -41899384.28148 -32623393.82645  21253514.0234                   21253513.4774
 -27450316.42646 -21335584.69743  24751589.1884                   24751595.4454
 -33282214.88348 -25850120.39146  21015215.3054                   21015214.1724
 -55868191.76247 -43504356.01344  22801337.6804                   22801338.7544
 -28098452.56247 -21868704.35646  21125215.3524                   21125215.5124
 -50374479.17248 -39225009.27346  20845647.5634                   20845644.6724
  -8395307.51247  -6498772.11544  22858396.1884                   22858396.3364
  -8398006.41047  -6501316.77244  23148177.5394                   23148179.8794
 11  8 21  0 49  0.0000000  0  9G17G10G09G12G04G05G02G30G25
 -72102084.39146 -56155579.31344  23993059.8754                   23993061.5904
 -41922745.02347 -32641597.02645  21249068.5864                   21249068.1914
 -27432442.90646 -21321657.43042  24754990.5084                   24754996.0084
 -33375124.45747 -25922517.43046  20997534.9454                   20997534.1174
 -55850315.55147 -43490426.50744  22804739.3134                   22804739.6644
 -28226618.41847 -21968573.80246  21100826.1334                   21100825.9654
 -50422256.80148 -39262238.56846  20836555.8364                   20836552.9964
  -8536627.48447  -6608891.55244  22831504.0554                   22831503.7894
  -8545220.53147  -6616029.07044  23120163.2894                   23120165.6954
 11  8 21  0 49 30.0000000  0  9G17G10G09G12G04G05G02G30G25
 -72102617.50446 -56155994.75443  23992958.1954                   23992959.8984
 -41945450.12947 -32659289.29745  21244748.2974                   21244747.6214
 -27414538.93746 -21307706.49743  24758398.7504                   24758403.8014
 -33467414.77747 -25994431.92946  20979973.0164                   20979971.7034
 -55832341.77047 -43476420.95944  22808159.8204                   22808160.1174
 -28354241.16847 -22068020.03146  21076540.2664                   21076540.0824
 -50469753.27748 -39299248.78646  20827517.2034                   20827514.3714
  -8677446.75447  -6718620.83144  22804706.9614                   22804706.7584
  -8692021.73847  -6730419.56444  23092228.0474                   23092229.7814
 11  8 21  0 50  0.0000000  0  9G17G10G09G12G04G05G02G30G25
 -72102895.75046 -56156211.55343  23992905.7424                   23992906.9224
 -41967502.32447 -32676472.81645  21240551.8054                   21240551.0434
 -27396608.94946 -21293735.30143  24761810.5554                   24761816.0554
 -33559085.75047 -26065863.83146  20962528.4534                   20962527.5634
 -55814272.93546 -43462341.42044  22811598.4774                   22811598.2664
 -28481319.50847 -22167042.05846  21052358.1094                   21052357.9454
 -50516970.39148 -39336041.31246  20818532.1094                   20818529.1684
  -8817763.90647  -6827958.84744  22778005.4224                   22778005.8324
  -8838408.64847  -6844487.25444  23064371.2034                   23064372.9264
 11  8 21  0 50 30.0000000  0  9G17G10G09G12G04G05G02G30G25
 -72102919.06246 -56156229.77643  23992901.6644                   23992902.6254
 -41988903.30947 -32693148.92445  21236479.2734                   21236478.4574
 -27378656.14846 -21279746.27743  24765226.6484                   24765233.2074
 -33650136.14548 -26136812.14646  20945202.1254                   20945201.0784
 -55796110.27747 -43448188.62144  22815054.1884                   22815054.9304
 -28607851.65247 -22265638.46446  21028279.6644                   21028279.3914
 -50563909.95348 -39372617.56146  20809600.0704                   20809597.2154
  -8957576.78947  -6936903.90244  22751399.7814                   22751400.4064
  -8984378.96547  -6958230.32244  23036594.0084                   23036596.1604
 11  8 21  0 51  0.0000000  0  9G17G10G09G12G04G05G02G30G25
 -72102684.69146 -56156047.19943  23992946.4844                   23992947.4414
 -42009652.42247 -32709317.02245  21232530.6414                   21232530.5004
 -27360681.23846 -21265740.10143  24768646.8444                   24768654.2274
 -33740562.41448 -26207274.13146  20927994.4694                   20927993.3484
 -55777853.27347 -43433962.41744  22818528.1414                   22818528.8834
 -28733833.41047 -22363805.99846  21004306.5164                   21004305.9574
 -50610570.87548 -39408976.70646  20800720.4614                   20800717.7034
  -9096880.35947  -7045452.10944  22724891.2974                   22724891.9924
  -9129927.65647  -7071644.82144  23008896.9614                   23008899.5744
 11  8 21  0 51 30.0000000  0  9G17G10G09G12G04G05G02G30G25
 -72102192.64846 -56155663.76143  23993039.6414                   23993040.4344
 -42029751.25047 -32724978.43645  21228705.9224                   21228705.5354
 -27342687.03546 -21251718.84243  24772072.1334                   24772079.0634
 -33830363.36348 -26277248.87646  20910905.8984                   20910905.2894
 -55759502.95747 -43419663.47944  22822020.9454                   22822021.1024
 -28859262.46947 -22461542.87146  20980438.1174                   20980437.7464
 -50656954.14148 -39445119.49846  20791894.5634                   20791891.4924
  -9235672.13747  -7153601.55844  22698480.4614                   22698480.6884
  -9275052.13347  -7184728.82644  22981280.6174                   22981283.4494
 11  8 21  0 52  0.0000000  0  9G17G10G09G12G04G05G02G30G25
 -72101444.77046 -56155081.02243  23993182.7584                   23993183.0784
 -42049203.49247 -32740135.99845  21225004.5314                   21225003.9384
 -27324678.94146 -21237686.79043  24775498.7194                   24775506.0354
 -33919539.53547 -26346736.77846  20893936.2814                   20893935.2894
 -55741063.00447 -43405294.70444  22825530.2034                   22825530.1524
 -28984138.93747 -22558849.15046  20956674.5084                   20956674.2114
 -50703063.07048 -39481048.53746  20783119.8754                   20783116.9884
  -9373951.82846  -7261351.91444  22672166.6564                   22672166.9804
  -9419751.98847  -7297481.91044  22953745.4694                   22953747.2504
 11  8 21  0 52 30.0000000  0  9G17G10G09G12G04G05G02G30G25
 -72100443.19146 -56154300.55943  23993372.9064                   23993373.4844
 -42068013.63347 -32754793.22745  21221425.0314                   21221424.7624
 -27306662.37946 -21223648.13643  24778926.6254                   24778934.3834
 -34008093.09047 -26415739.51846  20877085.1564                   20877084.0434
 -55722537.23447 -43390859.05344  22829055.2734                   22829055.5004
 -29108463.11347 -22655725.07146  20933016.5394                   20933016.1914
 -50748901.48048 -39516766.76746  20774397.2034                   20774394.3364
  -9511719.39147  -7368703.24144  22645950.8204                   22645950.3874
  -9564027.17247  -7409904.08144  22926290.4694                   22926292.9654
 11  8 21  0 53  0.0000000  0  9G17G10G09G12G04G05G02G30G25
 -72099185.88746 -56153320.84543  23993611.4924                   23993612.6804
 -42086181.07047 -32768949.65745  21217968.1724                   21217967.5354
 -27288638.17246 -21209603.56543  24782356.9614                   24782364.4414
 -34096020.53548 -26484254.38146  20860352.9304                   20860351.7384
 -55703924.64147 -43376355.82444  22832597.5234                   22832597.8324
 -29232231.50447 -22752167.89746  20909464.2424                   20909463.7504
 -50794468.78948 -39552273.76046  20765725.8054                   20765723.2854
  -9648970.50447  -7475652.12644  22619832.0394                   22619831.7774
  -9707873.26247  -7521991.92544  22898917.5944                   22898920.4654
 11  8 21  0 53 30.0000000  0  9G17G10G09G12G04G05G02G30G25
 -72097672.91446 -56152141.90943  23993900.1414                   23993901.3594
 -42103708.11347 -32782607.09745  21214632.7114                   21214632.3874
 -27270609.78946 -21195555.70543  24785786.6414                   24785795.0084
 -34183320.65647 -26552280.41646  20843740.2424                   20843739.1334
 -55685227.06647 -43361786.31344  22836155.3284                   22836155.3244
 -29355442.29748 -22848176.25846  20886018.0784                   20886017.4734
 -50839766.33648 -39587570.56646  20757106.4774                   20757103.6054
  -9785702.86346  -7582196.79744  22593812.7114                   22593812.9614
  -9851287.83247  -7633743.47744  22871626.3984                   22871629.0354
 11  8 21  0 54  0.0000000  0  9G17G10G09G12G04G05G02G30G25
 -72095900.69546 -56150760.93243  23994236.6644                   23994237.7584
 -42120593.18447 -32795764.24545  21211419.4924                   21211418.7234
 -27252576.47346 -21181503.96243  24789219.8284                   24789226.9454
 -34269989.41448 -26619814.49846  20827247.7274                   20827246.6954
 -55666442.25447 -43347148.88344  22839729.6414                   22839730.5904
 -29478089.93747 -22943745.78046  20862678.9384                   20862678.3594
 -50884791.82047 -39622655.36746  20748538.0474                   20748535.0784
  -9921910.68747  -7688332.75844  22567892.7814                   22567893.5664
  -9994264.95747  -7745154.19144  22844418.4224                   22844421.9184
 11  8 21  0 54 30.0000000  0  9G17G10G09G12G04G05G02G30G25
 -72093872.08246 -56149180.17843  23994623.3284                   23994623.7894
 -42136841.13347 -32808424.95445  21208327.8284                   21208327.1294
 -27234544.39846 -21167453.25443  24792651.0634                   24792658.7584
 -34356028.83248 -26686858.18446  20810875.2664                   20810874.0124
 -55647574.81247 -43332447.02444  22843319.7034                   22843320.6254
 -29600175.69147 -23038877.47846  20839446.5784                   20839446.2814
 -50929549.59447 -39657531.55246  20740020.9454                   20740017.9264
 -10057594.65247  -7794060.45244  22542073.8444                   22542073.8164
 -10136805.20347  -7856224.47144  22817293.9304                   22817297.1644
 11  8 21  0 55  0.0000000  0  9G17G10G09G12G04G05G02G30G25
 -72091589.88746 -56147401.84843  23995057.4614                   23995058.6294
 -42152456.70347 -32820592.89645  21205356.2584                   21205355.6454
 -27216519.52046 -21153408.01243  24796081.0084                   24796087.8594
 -34441440.44948 -26753412.68046  20794621.6174                   20794620.7504
 -55628628.44147 -43317683.65244  22846925.2424                   22846926.1294
 -29721700.52747 -23133572.09546  20816320.8914                   20816320.4414
 -50974043.30147 -39692202.00246  20731554.4064                   20731551.3244
 -10192755.12947  -7899380.28444  22516353.4534                   22516353.8094
 -10278908.87947  -7966954.54644  22790253.0474                   22790255.8094
 11  8 21  0 55 30.0000000  0  9G17G10G09G12G04G05G02G30G25
 -72089051.57446 -56145423.95743  23995540.8754                   23995541.2384
 -42167439.37147 -32832267.68445  21202504.7814                   21202504.6414
 -27198502.43046 -21139368.91043  24799510.5784                   24799517.4184
 -34526220.62948 -26819475.15646  20778488.6884                   20778487.4804
 -55609602.33247 -43302858.14044  22850546.3754                   22850546.6054
 -29842660.12547 -23227826.26346  20793303.4304                   20793303.0234
 -51018272.14148 -39726666.04546  20723137.7194                   20723135.0234
 -10327387.37947  -8004288.49244  22490733.6724                   22490733.8014
 -10420571.07847  -8077340.64544  22763295.0634                   22763297.5474
 11  8 21  0 56  0.0000000  0  9G17G10G09G12G04G05G02G30G25
 -72086253.14546 -56143243.33143  23996072.6334                   23996073.4694
 -42181787.11347 -32843447.72745  21199774.6254                   21199774.3674
 -27180492.22346 -21125335.15643  24802937.3834                   24802944.0594
 -34610364.86348 -26885042.08646  20762476.5784                   20762475.4414
 -55590493.76247 -43287968.38844  22854182.2894                   22854183.3954
 -29963048.57447 -23321635.37846  20770393.7584                   20770393.5474
 -51062233.57048 -39760921.71846  20714772.2424                   20714769.5044
 -10461485.24247  -8108780.31244  22465215.4454                   22465216.0984
 -10561785.59447  -8187377.90144  22736423.3054                   22736425.4454
 11  8 21  0 56 30.0000000  0  8G17G10G12G04G05G02G30G25
 -72083198.91046 -56140863.42543  23996653.6884                   23996654.9494
 -42195506.36747 -32854138.04245  21197163.8134                   21197163.5004
 -34693876.82848 -26950116.34146  20746584.4774                   20746583.7344
 -55571308.51647 -43273018.87544  22857833.5234                   22857834.6054
 -30082868.89848 -23415001.80646  20747592.6954                   20747592.3404
 -51105933.12948 -39794973.32246  20706456.5554                   20706453.6134
 -10595050.80547  -8212857.32144  22439798.9774                   22439799.2854
 -10702554.30947  -8297067.74944  22709635.5234                   22709637.7344
 11  8 21  0 57  0.0000000  0  8G17G10G12G04G05G02G30G25
 -72079886.66046 -56138282.36343  23997284.3914                   23997285.5084
 -42208597.05947 -32864338.57945  21194672.8134                   21194672.1214
 -34776753.15648 -27014695.30546  20730814.0944                   20730812.7894
 -55552045.60247 -43258008.80544  22861498.3984                   22861499.8164
 -30202117.07048 -23507922.41246  20724900.7584                   20724899.9534
 -51149369.87548 -39828820.13546  20698190.4224                   20698187.6134
 -10728079.57447  -8316516.07044  22414483.7894                   22414485.1804
 -10842872.61747  -8406406.63145  22682934.4454                   22682936.3594
 11  8 21  0 57 30.0000000  0  8G17G10G12G04G05G02G30G25
 -72076307.94946 -56135493.78043  23997965.7504                   23997966.5704
 -42221052.57447 -32874044.18945  21192302.8364                   21192302.0824
 -34858984.19148 -27078771.42346  20715165.7344                   20715164.9574
 -55532697.93746 -43242932.74844  22865180.4774                   22865181.0944
 -30320782.64848 -23600389.04546  20702319.0164                   20702318.9064
 -51192536.39548 -39862456.37946  20689976.1724                   20689973.3954
 -10860560.70747  -8419748.08044  22389273.3054                   22389273.8874
 -10982729.52747  -8515386.00845  22656319.9144                   22656323.1374
 11  8 21  0 58  0.0000000  0  8G17G10G12G04G05G02G30G25
 -72072458.71546 -56132494.37243  23998697.3284                   23998699.6954
 -42232870.93447 -32883253.29545  21190053.9224                   21190053.3594
 -34940565.35548 -27142341.16546  20699641.6724                   20699640.4614
 -55513262.67246 -43227788.42444  22868879.4064                   22868879.5664
 -30438859.78948 -23692397.14746  20679849.7734                   20679849.5234
 -51235430.03548 -39895879.97546  20681813.9304                   20681811.1094
 -10992488.05546  -8522548.53844  22364168.9384                   22364168.9574
 -11122118.70747  -8624000.89745  22629795.4304                   22629797.4844
 11  8 21  0 58 30.0000000  0  8G17G10G12G04G05G02G30G25
 -72068334.07846 -56129280.39643  23999482.8984                   23999483.8164
 -42244049.68047 -32891964.01745  21187926.2974                   21187925.8324
 -35021491.47748 -27205400.49146  20684242.2584                   20684240.8794
 -55493736.47346 -43212573.23244  22872594.1174                   22872595.9384
 -30556342.53948 -23783942.10546  20657493.5634                   20657493.0824
 -51278047.52748 -39929088.38646  20673703.6954                   20673701.2854
 -11123854.69147  -8624912.12144  22339170.6484                   22339170.7734
 -11261033.16047  -8732245.86845  22603360.8204                   22603363.2034
 11  8 21  0 59  0.0000000  0  8G17G10G12G04G05G02G30G25
 -72063939.15246 -56125855.73643  24000318.7114                   24000319.8794
 -42254595.68447 -32900181.69645  21185919.7274                   21185919.1334
 -35101766.64148 -27267952.55846  20668966.1484                   20668965.1454
 -55474125.55946 -43197292.05444  22876326.1644                   22876327.4224
 -30673233.92248 -23875026.22846  20635250.1174                   20635249.6294
 -51320395.05148 -39962086.42446  20665645.2424                   20665642.9264
 -11254663.25447  -8726840.80344  22314278.4304                   22314278.8364
 -11399475.29747  -8840122.80545  22577016.2894                   22577018.3554
 11  8 21  0 59 30.0000000  0  8G17G10G12G04G05G02G30G25
 -72059275.67646 -56122221.83143  24001206.3284                   24001207.1374
 -42264512.71947 -32907909.26445  21184032.3134                   21184031.8244
 -35181391.56248 -27329997.96046  20653813.8674                   20653812.7424
 -55454432.85246 -43181947.16943  22880074.1254                   22880074.2034
 -30789534.15248 -23965649.73546  20613118.6884                   20613118.3054
 -51362475.29748 -39994876.19246  20657637.8594                   20657634.9304
 -11384913.34847  -8828334.31744  22289493.1804                   22289493.1214
 -11537444.54747  -8947631.26945  22550761.0234                   22550763.4534
 11  8 21  1  0  0.0000000  0  8G17G10G12G04G05G02G30G25
 -70478927.71146 -54890781.77643  24301937.5084                   24301937.5394
 -40698386.89147 -31687551.48845  21482056.1254                   21482055.5274
 -33684946.93448 -26163937.21246  20938577.5004                   20938576.4734
 -53859244.47346 -41938943.29043  23183628.7424                   23183628.2584
 -29329821.57448 -22828211.30746  20890892.7584                   20890892.2384
 -49828872.37948 -38799860.89046  20949472.6884                   20949470.0864
  -9939182.51647  -7701790.71444  22564606.3054                   22564606.1604
 -10099517.98847  -7827168.92445  22824389.5394                   22824392.1844
 11  8 21  1  0 30.0000000  0  8G17G10G12G04G05G02G30G25
 -70473732.59846 -54886733.61643  24302924.9534                   24302926.2734
 -40707058.32847 -31694308.44245  21480406.1024                   21480405.4104
 -33763274.75848 -26224971.88146  20923672.3914                   20923671.5514
 -53839397.53546 -41923478.17844  23187405.3054                   23187404.7074
 -29444939.75848 -22917913.74246  20868986.1564                   20868985.7974
 -49870427.91848 -38832241.78146  20941564.8834                   20941562.2704
 -10068314.65647  -7802413.12144  22540033.1724                   22540033.3134
 -10236539.95347  -7933939.23045  22798315.1334                   22798317.7114
 11  8 21  1  1  0.0000000  0  8G17G10G12G04G05G02G30G25
 -70468271.96946 -54882478.55843  24303965.0004                   24303966.1604
 -40715109.98847 -31700582.45545  21478874.2424                   21478873.6994
 -33840953.25448 -26285500.57146  20908890.5394                   20908889.4774
 -53819475.41846 -41907954.48743  23191196.4844                   23191196.9024
 -29559464.60948 -23007153.82346  20847192.9774                   20847192.5514
 -49911722.98848 -38864419.72446  20933706.4064                   20933703.9534
 -10196884.70347  -7902597.51144  22515566.7974                   22515567.1334
 -10373084.86747  -8040337.77344  22772331.4694                   22772334.2074
 11  8 21  1  1 30.0000000  0  8G17G10G12G04G05G02G30G25
 -70462548.16446 -54878018.41343  24305053.7664                   24305054.6724
 -40722546.75047 -31706377.32045  21477459.1484                   21477458.2664
 -33917983.96948 -26345524.49846  20894232.1564                   20894231.1804
 -53799481.69946 -41892374.96744  23195001.2194                   23195001.6334
 -29673397.20348 -23095932.42346  20825512.2814                   20825511.7974
 -49952761.20348 -38896397.51346  20925897.4774                   20925894.1994
 -10324892.98047  -8002344.12444  22491207.3364                   22491207.8244
 -10509152.76647  -8146364.64645  22746438.5864                   22746440.9774
 11  8 21  1  2  0.0000000  0  8G17G10G12G04G05G02G30G25
 -70456567.01646 -54873357.75943  24306192.3134                   24306192.6174
 -40729376.82047 -31711699.41145  21476159.0634                   21476158.3284
 -33994372.52048 -26405048.03446  20879695.9064                   20879694.8204
 -53779423.73046 -41876745.36944  23198818.0784                   23198818.5554
 -29786741.94948 -23184252.94146  20803943.2504                   20803942.6644
 -49993549.83248 -38928180.82446  20918135.7194                   20918132.6484
 -10452343.25047  -8101655.98644  22466954.5084                   22466954.8484
 -10644747.34447  -8252022.66845  22720635.9614                   22720638.3524
 11  8 21  1  2 30.0000000  0  8G17G10G12G04G05G02G30G25
 -70450327.16046 -54868495.44943  24307378.1884                   24307378.6174
 -40735600.52747 -31716549.05045  21474974.9224                   21474974.2034
 -34070116.13748 -26464069.02546  20865282.6024                   20865281.0634
 -53759300.84846 -41861065.22744  23202646.8204                   23202647.8054
 -29899495.31248 -23272112.64846  20782487.0784                   20782486.6524
 -50034088.50047 -38959769.36546  20910421.4144                   20910418.4224
 -10579231.68047  -8200530.00044  22442808.4384                   22442808.6764
 -10779864.52747  -8357308.69245  22694923.4694                   22694925.9144
 11  8 21  1  3  0.0000000  0  8G17G10G12G04G05G02G30G25
 -70443830.49646 -54863433.04343  24308614.7894                   24308615.7774
 -40741222.19947 -31720929.55645  21473905.1174                   21473904.7584
 -34145216.55148 -26522588.81946  20850991.3524                   20850990.1884
 -53739116.22746 -41845336.94544  23206487.8054                   23206489.6724
 -30011657.94548 -23359512.04546  20761143.3134                   20761142.5354
 -50074380.08648 -38991165.36146  20902753.7734                   20902750.9734
 -10705558.16047  -8298966.14345  22418769.3204                   22418769.3284
 -10914504.00047  -8462222.48745  22669302.5864                   22669305.0474
 11  8 21  1  3 30.0000000  0  8G17G10G12G04G05G02G30G25
 -70437076.37546 -54858170.01643  24309900.4454                   24309901.5084
 -40746243.35947 -31724842.13045  21472949.4614                   21472949.2464
 -34219672.61348 -26580606.52546  20836822.7504                   20836821.8674
 -53718870.24246 -41829560.85544  23210341.2974                   23210342.2814
 -30123227.46148 -23446449.29346  20739912.4224                   20739911.9184
 -50114425.47348 -39022369.54946  20895133.5474                   20895130.4654
 -10831320.02047  -8396962.33145  22394838.1884                   22394838.1094
 -11048662.84447  -8566761.75445  22643772.3054                   22643774.9024
 11  8 21  1  4  0.0000000  0  8G17G10G12G04G05G02G30G25
 -70430066.28146 -54852707.59043  24311234.6414                   24311235.7664
 -40750667.93047 -31728289.82245  21472107.8444                   21472107.1844
 -34293484.91048 -26638122.59046  20822777.0164                   20822776.0864
 -53698565.83246 -41813739.26344  23214204.3834                   23214206.2934
 -30234204.43048 -23532924.79346  20718794.3364                   20718793.4534
 -50154227.33248 -39053383.95146  20887559.7114                   20887556.4774
 -10956516.66447  -8494518.08245  22371013.2894                   22371013.3444
 -11182340.23047  -8670925.88444  22618334.3914                   22618336.4694
 11  8 21  1  4 30.0000000  0  8G17G10G12G04G05G02G30G25
 -70422796.94546 -54847043.11343  24312617.5314                   24312619.0084
 -40754494.85247 -31731271.81645  21471379.4224                   21471378.8284
 -34366649.50448 -26695133.95446  20808854.0784                   20808853.0044
 -53678200.56246 -41797870.25244  23218080.4064                   23218081.2584
 -30344583.59848 -23618934.48146  20697789.6024                   20697789.1334
 -50193783.14148 -39084206.63946  20880032.8834                   20880029.2384
 -11081142.46147  -8591629.00545  22347297.9064                   22347298.0664
 -11315530.43047  -8774710.37045  22592989.4454                   22592990.6844
 11  8 21  1  5  0.0000000  0  8G17G10G12G04G05G02G30G25
 -70415266.29346 -54841175.01443  24314050.9694                   24314051.8484
 -40757723.74247 -31733787.78345  21470764.8594                   21470764.0314
 -34439164.13748 -26751638.85346  20795055.0944                   20795053.7624
 -53657773.18746 -41781952.84544  23221967.7734                   23221968.6334
 -30454361.33248 -23704475.53246  20676899.7114                   20676899.0084
 -50233092.10548 -39114836.98146  20872552.3204                   20872549.1604
 -11205193.23847  -8688291.87845  22323691.5004                   22323691.4924
 -11448228.89547  -8878111.69145  22567737.3754                   22567739.4884
 11  8 21  1  5 30.0000000  0  8G17G10G12G04G05G02G30G25
 -70407481.89846 -54835109.22643  24315531.8054                   24315532.8984
 -40760364.58647 -31735845.56745  21470262.3204                   21470261.7974
 -34511035.48448 -26807642.49546  20781377.9614                   20781377.0594
 -53637292.41446 -41765993.83444  23225865.0474                   23225865.5234
 -30563543.83248 -23789552.76146  20656122.4694                   20656122.1524
 -50272162.73448 -39145281.61246  20865117.1174                   20865114.2344
 -11328674.37947  -8784510.85945  22300194.3674                   22300193.6174
 -11580440.80147  -8981133.85845  22542578.0944                   22542580.4494
 11  8 21  1  6  0.0000000  0  8G17G10G12G04G05G02G30G25
 -70399443.06646 -54828845.16744  24317061.7424                   24317062.0984
 -40762419.39847 -31737446.71145  21469871.1644                   21469870.6604
 -34582262.31247 -26863143.90946  20767824.1414                   20767823.0984
 -53616758.69146 -41749993.56044  23229772.5004                   23229772.7424
 -30672128.83248 -23874164.40346  20635459.4064                   20635459.2304
 -50310995.53947 -39175540.93046  20857727.3364                   20857724.4924
 -11451583.23847  -8880283.92744  22276805.1954                   22276805.2934
 -11712163.25047  -9083774.68945  22517512.3444                   22517514.9804
 11  8 21  1  6 30.0000000  0  8G17G10G12G04G05G02G30G25
 -70391150.77746 -54822383.56044  24318639.9144                   24318641.4614
 -40763891.02047 -31738593.43245  21469590.8134                   21469590.6374
 -34652845.09047 -26918143.47246  20754392.8524                   20754392.1334
 -53596173.94546 -41733953.49044  23233689.5634                   23233689.8634
 -30780115.80948 -23958310.05346  20614910.4144                   20614910.0904
 -50349592.70347 -39205616.62646  20850382.5634                   20850379.7974
 -11573918.67647  -8975610.16744  22253525.4924                   22253525.6804
 -11843394.85547  -9186033.02545  22492539.8444                   22492541.9414
 11  8 21  1  7  0.0000000  0  8G17G10G12G04G05G02G30G25
 -70382608.16046 -54815726.94544  24320265.0864                   24320266.4924
 -40764785.14847 -31739290.15645  21469421.1724                   21469420.5474
 -34722786.34847 -26972643.14246  20741083.0944                   20741082.4614
 -53575542.44946 -41717877.01043  23237615.2344                   23237615.4884
 -30887506.61748 -24041991.16746  20594474.3594                   20594474.0514
 -50387958.48047 -39235512.04146  20843081.7114                   20843079.0084
 -11695681.90647  -9070490.52645  22230354.8054                   22230354.4144
 -11974136.53947  -9287909.61545  22467660.6804                   22467662.5274
 11  8 21  1  7 30.0000000  0  9G17G10G29G12G04G05G02G30G25
 -70373824.42246 -54808882.43844  24321936.5474                   24321937.6684
 -40765113.05547 -31739545.68245  21469359.8204                   21469358.3134
   7709136.93016                  24588035.203
 -34792094.96947 -27026649.85846  20727894.5704                   20727893.3634
 -53554874.07046 -41701771.83743  23241548.1644                   23241548.1334
 -30994308.76648 -24125213.57446  20574150.6804                   20574150.0164
 -50426102.93447 -39265234.98646  20835823.3364                   20835820.1214
 -11816879.72347  -9164930.29944  22207291.6724                   22207291.7504
 -12104394.88347  -9389409.56045  22442873.1954                   22442875.5354
 11  8 21  1  8  0.0000000  0  9G17G10G29G12G04G05G02G30G25
 -70364805.68446 -54801854.83744  24323653.7664                   24323653.9104
 -40764883.19947 -31739366.58345  21469402.1644                   21469401.3054
   7568357.37546   5923928.33453  24561246.1024                   24561246.8714
 -34860776.96547 -27080168.27446  20714824.4064                   20714823.5004
 -53534176.05146 -41685643.55043  23245487.5554                   23245487.1134
 -31100527.37948 -24207981.26846  20553937.8444                   20553937.1804
 -50464033.25047 -39294791.05446  20828605.4144                   20828602.2074
 -11937516.49247  -9258932.92345  22184335.3284                   22184335.4454
 -12234173.92647  -9490536.01945  22418177.3444                   22418179.0664
 11  8 21  1  8 30.0000000  0  9G17G10G29G12G04G05G02G30G25
 -70355553.88346 -54794645.56444  24325413.1954                   24325414.4414
 -40764099.61347 -31738756.01445  21469551.9614                   21469550.6374
   7427544.00446   5814203.80543  24534450.1414                   24534451.2074
 -34928833.53147 -27133199.35146  20701873.5554                   20701873.0164
 -53513451.28146 -41669494.36043  23249431.0944                   23249430.6844
 -31206162.62148 -24290294.40446  20533836.4064                   20533835.8054
 -50501752.55547 -39324182.72946  20821427.6954                   20821424.9614
 -12057592.04747  -9352498.21945  22161485.1334                   22161484.8484
 -12363473.14147  -9591288.60345  22393572.3444                   22393574.4184
 11  8 21  1  9  0.0000000  0  9G17G10G29G12G04G05G02G30G25
 -70346065.27046 -54787251.79844  24327219.0394                   24327219.9884
 -40762760.77347 -31737712.77645  21469806.6024                   21469805.5594
   7286701.04346   5704456.25543  24507648.7034                   24507650.0664
 -34996259.81247 -27185739.28746  20689043.0634                   20689041.9144
 -53492696.68746 -41653321.92143  23253380.6804                   23253381.2234
 -31311209.30148 -24372148.91546  20513846.5314                   20513845.6994
 -50539258.09847 -39353407.81746  20814290.7584                   20814287.8794
 -12177100.44147  -9445621.57244  22138744.0234                   22138743.1054
 -12492286.37147  -9691662.47245  22369059.2974                   22369062.0944
 11  8 21  1  9 30.0000000  0  9G17G10G29G12G04G05G02G30G25
 -70336338.46546 -54779672.39444  24329069.3284                   24329071.1024
 -40760868.07447 -31736237.95945  21470166.5314                   21470165.9654
   7145830.44546   5594687.17143  24480841.8674                   24480843.3364
 -35063054.85547 -27237787.35546  20676332.5004                   20676331.2464
 -53471912.01246 -41637126.04343  23257335.3674                   23257336.4494
 -31415664.99248 -24453542.90846  20493969.1564                   20493968.7894
 -50576549.53947 -39382466.07746  20807194.1334                   20807191.2854
 -12296038.39147  -9538300.45745  22116110.2974                   22116110.2234
 -12620610.10947  -9791654.94245  22344640.6174                   22344642.5744
 11  8 21  1 10  0.0000000  0  9G17G10G29G12G04G05G02G30G25
 -70326372.66846 -54771906.78443  24330965.5554                   24330967.2384
 -40758422.53947 -31734332.37745  21470631.8284                   21470631.4024
   7004933.96146   5484897.91343  24454029.4144                   24454031.8524
 -35129216.95347 -27289342.21546  20663742.3754                   20663741.0514
 -53451097.12146 -41620906.65643  23261296.6564                   23261296.8914
 -31519527.02748 -24534474.32046  20474204.8284                   20474204.3834
 -50613626.62147 -39411357.31346  20800138.7974                   20800135.4494
 -12414402.77747  -9630532.40545  22093585.7584                   22093586.5124
 -12748440.84447  -9891263.27845  22320315.3984                   22320316.8714
 11  8 21  1 10 30.0000000  0  9G17G10G29G12G04G05G02G30G25
 -70316165.35546 -54763952.96043  24332907.8914                   24332909.4924
 -40755424.34447 -31731996.10645  21471202.3674                   21471202.0204
   6864014.35246   5375090.68843  24427212.7894                   24427215.4184
 -35194743.65247 -27340401.95146  20651272.7034                   20651271.7274
 -53430250.66846 -41604662.64744  23265263.7734                   23265264.4344
 -31622791.71148 -24614940.25946  20454554.3754                   20454553.5594
 -50650488.32847 -39440080.70346  20793124.0554                   20793120.9844
 -12532189.52047  -9722314.25145  22071171.9614                   22071171.9144
 -12875774.24247  -9990484.04345  22296084.5554                   22296086.1214
 11  8 21  1 11  0.0000000  0  9G17G10G29G12G04G05G02G30G25
 -70305720.23046 -54755813.89743  24334896.1804                   24334897.1294
 -40751879.40647 -31729233.82845  21471876.9454                   21471876.4654
   6723068.68846   5265263.12543  24400392.0084                   24400393.6454
 -35259637.82847 -27390968.80046  20638923.7274                   20638922.6484
 -53409377.09847 -41588397.50543  23269235.9614                   23269236.2114
 -31725461.67248 -24694942.78846  20435016.7034                   20435016.3874
 -50687138.87148 -39468639.56646  20786149.9534                   20786146.8754
 -12649400.11347  -9813647.13744  22048867.2894                   22048867.0554
 -13002611.35547 -10089318.12745  22271948.2034                   22271949.9184
 11  8 21  1 11 30.0000000  0  9G17G10G29G12G04G05G02G30G25
 -70295034.08246 -54747486.97743  24336929.5634                   24336931.2074
 -40747786.79347 -31726044.77545  21472655.6254                   21472655.3134
   6582100.94546   5155418.31543  24373566.5864                   24373568.3524
 -35323896.00848 -27441040.09346  20626695.8834                   20626694.6094
 -53388473.71146 -41572109.20443  23273213.0784                   23273214.0664
 -31827532.15248 -24774478.18146  20415593.4694                   20415592.5124
 -50723576.22348 -39497032.30746  20779216.2584                   20779213.0664
 -12766029.18047  -9904526.91845  22026673.9144                   22026673.6254
 -13128946.62547 -10187761.16845  22247907.3524                   22247909.4614
 11  8 21  1 12  0.0000000  0  9G17G10G29G12G04G05G02G30G25
 -70284104.33245 -54738970.18442  24339009.7504                   24339009.9654
 -40743146.50047 -31722428.95845  21473538.4614                   21473538.2704
   6441114.21546   5045558.69643  24346738.0704                   24346739.4964
 -35387515.73047 -27490613.86346  20614589.5164                   20614588.2704
 -53367539.04246 -41555796.38143  23277196.8914                   23277197.9384
 -31928999.34848 -24853543.46046  20396285.0704                   20396283.8594
 -50759799.01248 -39525257.84046  20772322.8054                   20772319.9264
 -12882072.62947  -9994950.36245  22004591.5084                   22004591.1564
 -13254775.54347 -10285809.64445  22223962.5784                   22223964.6564
 11  8 21  1 12 30.0000000  0  9G17G10G29G12G04G05G02G30G25
 -68697513.80945 -53502665.84042  24640927.6024                   24640927.4384
 -39162543.39147 -30490790.15845  21774317.1024                   21774317.3954
   7875531.15246   6163286.32943  24619698.3054                   24619699.3874
 -33875076.95748 -26312090.09146  20902396.9924                   20902395.8754
 -51771157.14846 -40311862.52243  23580978.2584                   23580979.3094
 -30454441.38748 -23704537.21546  20676883.5864                   20676883.0824
 -49220389.49248 -38325717.94746  21065263.2034                   21065260.2384
 -11422107.02047  -8857314.76945  22282413.6414                   22282413.4184
 -11804674.04347  -9155860.40045  22499908.1024                   22499909.9454
 11  8 21  1 13  0.0000000  0  8G10G29G12G04G05G02G30G25
 -39156815.80547 -30486327.10745  21775407.2424                   21775407.2544
   7734507.12146   6053397.57943  24592861.0394                   24592862.6954
 -33937419.74247 -26360668.85046  20890533.2424                   20890531.9844
 -51750163.58246 -40295503.93843  23584973.6484                   23584974.2274
 -30554699.73048 -23782660.53346  20657805.2584                   20657804.4964
 -49256187.14847 -38353612.21546  21058450.7584                   21058448.4144
 -11536974.28947  -8946821.71345  22260554.8444                   22260555.0004
 -11929484.39547  -9253115.18745  22476157.1414                   22476159.1094
 11  8 21  1 13 30.0000000  0  8G10G29G12G04G05G02G30G25
 -39150546.72747 -30481442.12445  21776600.4064                   21776599.9614
   7593466.76246   5943495.98543  24566022.9534                   24566023.7344
 -33999122.49248 -26408748.86846  20878791.7974                   20878790.3204
 -51729140.57446 -40279122.31943  23588974.2504                   23588974.7034
 -30654350.77048 -23860310.63346  20638842.1174                   20638841.4344
 -49291772.30947 -38381340.89746  21051679.5554                   21051676.0354
 -11651249.35247  -9035867.17045  22238809.4064                   22238809.3754
 -12053780.83247  -9349969.52245  22452504.3754                   22452506.3714
 11  8 21  1 14  0.0000000  0  8G10G29G12G04G05G02G30G25
 -39143731.18447 -30476131.32045  21777897.4384                   21777896.7814
   7452418.36346   5833588.12542  24539181.9614                   24539182.9384
 -34060177.23048 -26456323.95246  20867173.5084                   20867172.5314
 -51708081.10946 -40262712.34343  23592981.4534                   23592981.8754
 -30753385.47748 -23937480.49046  20619996.8054                   20619995.7584
 -49327138.19947 -38408898.71946  21044949.1414                   21044946.3834
 -11764922.67647  -9124443.77545  22217177.8834                   22217177.9494
 -12177553.51247  -9446415.74645  22428951.2194                   22428952.8244
 11  8 21  1 14 30.0000000  0  8G10G29G12G04G05G02G30G25
 -39136364.25847 -30470390.84145  21779299.5784                   21779298.9734
   7311370.21546   5723680.46942  24512341.5164                   24512343.9304
 -34120576.39148 -26503388.19646  20855680.3284                   20855678.5474
 -51686978.63746 -40246268.91243  23596996.8524                   23596997.1024
 -30851795.09847 -24014163.25746  20601269.7664                   20601268.8954
 -49362278.53947 -38436280.79446  21038262.0164                   21038259.3874
 -11877984.93747  -9212544.18945  22195662.8364                   22195662.8754
 -12300792.69147  -9542446.23245  22405499.7034                   22405501.3674
 11  8 21  1 15  0.0000000  0  8G10G29G12G04G05G02G30G25
 -39128446.91847 -30464221.48745  21780805.7664                   21780805.0234
   7170324.31645   5613774.53542  24485501.0314                   24485502.5634
 -34180318.53148 -26549940.48346  20844311.3054                   20844310.4304
 -51665832.26646 -40229791.23343  23601022.0234                   23601021.3874
 -30949576.87548 -24090356.78846  20582662.4694                   20582661.5514
 -49397192.86347 -38463486.74246  21031618.4614                   21031615.3634
 -11990432.94147  -9300165.98445  22174264.3914                   22174264.4574
 -12423494.85547  -9638058.27545  22382149.6334                   22382152.2584
 11  8 21  1 15 30.0000000  0  8G10G29G12G04G05G02G30G25
 -39119985.29347 -30457628.01145  21782416.1724                   21782415.2664
   7029277.76646   5503868.10242  24458660.9924                   24458662.0314
 -34239407.09048 -26595983.48446  20833066.8674                   20833065.8284
 -51644647.07446 -40213283.35843  23605052.6484                   23605052.5394
 -31046734.29748 -24166063.81246  20564173.9454                   20564173.0274
 -49431885.68447 -38490520.09946  21025016.8444                   21025013.6094
 -12102268.75047  -9387310.72245  22152983.0554                   22152982.8674
 -12545661.55547  -9733253.06245  22358902.6334                   22358905.1254
 11  8 21  1 16  0.0000000  0  8G10G29G12G04G05G02G30G25
 -39110984.91447 -30450614.72345  21784128.7424                   21784128.1334
   6888228.37546   5393959.42143  24431820.3284                   24431821.9184
 -34297845.24647 -26641519.67946  20821946.6334                   20821945.5124
 -51623426.41046 -40196747.77643  23609090.9064                   23609091.0824
 -31143268.79348 -24241285.45546  20545803.7584                   20545803.2704
 -49466361.02348 -38517383.98346  21018455.9534                   21018453.0864
 -12213493.53147  -9473979.33644  22131817.4454                   22131817.1334
 -12667293.64847  -9828031.27845  22335756.7274                   22335758.2154
 11  8 21  1 16 30.0000000  0  8G10G29G12G04G05G02G30G25
 -39101448.61347 -30443183.81945  21785943.2114                   21785942.6054
   6747176.43046   5284048.72043  24404979.6334                   24404980.8754
 -34355633.08648 -26686549.14046  20810949.7664                   20810948.2734
 -51602171.55547 -40180185.58143  23613136.5164                   23613136.4144
 -31239179.73047 -24316021.18946  20527552.7344                   20527551.9694
 -49500620.32447 -38544079.52946  21011936.6724                   21011933.5474
 -12324106.00847  -9560170.84145  22110768.6724                   22110769.1914
 -12788389.53147  -9922391.64845  22312713.0394                   22312714.8094
 11  8 21  1 17  0.0000000  0  8G10G29G12G04G05G02G30G25
 -39091380.05547 -30435338.18245  21787859.6484                   21787858.4924
   6606121.59446   5174135.92943  24378137.3444                   24378138.0514
 -34412771.89548 -26731072.87446  20800076.5474                   20800075.3554
 -51580884.02747 -40163597.90843  23617186.5634                   23617187.2704
 -31334467.23447 -24390271.13946  20509419.8754                   20509419.4694
 -49534665.51647 -38570608.23146  21005458.2424                   21005455.2274
 -12434105.27747  -9645884.55645  22089836.6414                   22089836.9734
 -12908947.87547 -10016333.17245  22289771.3444                   22289773.5394
 11  8 21  1 17 30.0000000  0  8G10G29G12G04G05G02G30G25
 -39080780.99247 -30427079.14845  21789876.2894                   21789875.3054
   6465065.55146   5064222.13443  24351295.5474                   24351296.0944
 -34469260.89547 -26775090.25546  20789327.1564                   20789325.7544
 -51559564.17646 -40146985.02443  23621244.1484                   23621244.9574
 -31429129.44547 -24464033.87246  20491406.2584                   20491405.6454
 -49568496.86747 -38596970.31046  20999020.2734                   20999017.1884
 -12543489.08247  -9731118.66345  22069021.5084                   22069021.8444
 -13028966.03547 -10109853.77745  22266932.3284                   22266934.9384
 11  8 21  1 18  0.0000000  0  8G10G29G12G04G05G02G30G25
 -39069656.13347 -30418410.41845  21791993.2274                   21791992.3834
   6324006.68446   4954306.24843  24324453.1334                   24324454.6954
 -34525102.29748 -26818603.02746  20778701.1414                   20778699.7194
 -51538214.84446 -40130349.22143  23625306.5084                   23625307.3554
 -31523167.53948 -24537310.26546  20473511.3984                   20473510.4144
 -49602117.43448 -38623168.15346  20992622.5554                   20992619.4574
 -12652257.94147  -9815873.58345  22048323.7734                   22048323.7504
 -13148444.07047 -10202953.51145  22244196.5004                   22244198.2664
 11  8 21  1 18 30.0000000  0  8G10G29G12G04G05G02G30G25
 -39058011.48047 -30409336.65245  21794209.3364                   21794208.5204
   6182942.48846   4844386.19043  24297608.9304                   24297611.8404
 -34580299.37148 -26861613.72846  20768197.4224                   20768196.0274
 -51516840.10246 -40113693.64443  23629374.2664                   23629374.3594
 -31616584.12548 -24610102.36646  20455735.1334                   20455734.0824
 -49635531.44948 -38649205.04246  20986264.3524                   20986260.9694
 -12760413.48847  -9900150.62245  22027742.1884                   22027741.6844
 -13267383.33247 -10295633.42945  22221563.5634                   22221565.1134
 11  8 21  1 19  0.0000000  0  8G10G29G12G04G05G02G30G25
 -39045851.39847 -30399861.25645  21796522.8444                   21796522.3524
   6041872.05146   4734461.39343  24270763.8914                   24270765.9574
 -34634854.00848 -26904123.82046  20757816.1954                   20757814.6094
 -51495442.52646 -40097020.16343  23633446.0314                   23633446.2664
 -31709379.78947 -24682410.63746  20438076.6804                   20438075.4774
 -49668741.40647 -38675082.93546  20979944.6334                   20979941.1094
 -12867955.74247  -9983949.77745  22007278.1414                   22007276.9884
 -13385783.32847 -10387893.13045  22199032.4384                   22199034.3404
 11  8 21  1 19 30.0000000  0  8G10G29G12G04G05G02G30G25
 -39033175.25447 -30389983.74845  21798935.2344                   21798934.8794
   5900799.10246   4624534.55543  24243919.2034                   24243920.2384
 -34688763.18048 -26946130.98046  20747557.2664                   20747555.6294
 -51474019.23846 -40080326.72843  23637521.1804                   23637522.2464
 -31801550.67247 -24754232.06746  20420536.7664                   20420535.8404
 -49701745.24647 -38700800.20646  20973663.6804                   20973660.7074
 -12974880.05547 -10067267.41445  21986930.8524                   21986930.5824
 -13503638.99647 -10479728.70345  22176605.1024                   22176607.4454
 11  8 21  1 20  0.0000000  0  8G10G29G12G04G05G02G30G25
 -39019983.41847 -30379704.38645  21801445.9614                   21801445.3364
   5759726.87146   4514608.32443  24217073.4304                   24217074.5434
 -34742024.92248 -26987633.62346  20737422.0704                   20737420.8444
 -51452569.02346 -40063612.28243  23641603.2814                   23641605.1454
 -31893093.49647 -24825564.09546  20403116.7664                   20403115.7384
 -49734541.66047 -38726355.83746  20967423.0474                   20967420.0314
 -13081182.54347 -10150100.50445  21966702.1724                   21966702.0594
 -13620946.02747 -10571136.75945  22154282.5164                   22154284.9534
 11  8 21  1 20 30.0000000  0  8G10G29G12G04G05G02G30G25
 -39006284.94547 -30369030.27445  21804052.3444                   21804052.1094
   5618649.53946   4404678.07943  24190227.3914                   24190227.9104
 -34794645.24648 -27028636.49046  20727408.7034                   20727407.4964
 -51431098.82846 -40046882.29443  23645689.1254                   23645690.5044
 -31984013.97747 -24896411.20446  20385815.2504                   20385814.3914
 -49767137.93447 -38751755.53046  20961219.9614                   20961216.8554
 -13186868.03547 -10232452.82745  21946590.7344                   21946590.1684
 -13737708.87947 -10662120.77545  22132063.5314                   22132065.1954
 11  8 21  1 21  0.0000000  0  8G10G29G12G04G05G02G30G25
 -38992080.85247 -30357962.14945  21806755.3204                   21806754.8404
   5477569.37946   4294745.66543  24163380.8674                   24163381.4734
 -34846623.88348 -27069139.32646  20717517.7344                   20717516.2814
 -51409608.10246 -40030136.30043  23649778.8754                   23649780.1684
 -32074309.88347 -24966771.60946  20368632.1804                   20368631.3834
 -49799533.48447 -38776998.80046  20955055.5784                   20955052.1054
 -13291933.62147 -10314322.07645  21926597.3674                   21926597.0904
 -13853924.13747 -10752678.09145  22109948.4454                   22109950.0904
 11  8 21  1 21 30.0000000  0  8G10G29G12G04G05G02G30G25
 -38977372.69147 -30346501.24345  21809554.2584                   21809553.9344
   5336488.30946   4184812.43143  24136533.4694                   24136534.7934
 -34897959.25048 -27109140.91446  20707748.7034                   20707747.5084
 -51388096.22346 -40013373.82243  23653873.1564                   23653874.4024
 -32163978.91048 -25036643.54246  20351568.9384                   20351567.7734
 -49831728.09848 -38802085.51246  20948929.3054                   20948925.9454
 -13396376.52047 -10395706.11845  21906722.2504                   21906722.1604
 -13969588.60547 -10842806.21345  22087938.2114                   22087939.7974
 11  8 21  1 22  0.0000000  0  8G10G29G12G04G05G02G30G25
 -38962161.86347 -30334648.65345  21812449.0084                   21812447.9924
   5195408.79746   4074880.44743  24109686.7814                   24109688.7664
 -34948650.09848 -27148640.29446  20698102.4924                   20698100.9224
 -51366562.51247 -39996594.31144  23657970.7194                   23657971.2814
 -32253019.76648 -25106025.99046  20334624.8054                   20334623.8554
 -49863721.29347 -38827015.26546  20942840.6884                   20942837.3594
 -13500194.14547 -10476602.91645  21886966.3754                   21886965.7894
 -14084699.16447 -10932502.72645  22066033.3444                   22066035.0824
 11  8 21  1 22 30.0000000  0  8G10G29G12G04G05G02G30G25
 -38946450.96547 -30322406.41344  21815438.8134                   21815437.8754
   5054331.91846   3964950.56243  24082840.9924                   24082841.8444
 -34998696.96948 -27187637.85246  20688578.6564                   20688577.4694
 -51345007.55147 -39979798.19143  23662072.4064                   23662073.5164
 -32341430.97347 -25174917.80346  20317800.8054                   20317799.8524
 -49895513.79747 -38851788.63146  20936790.9694                   20936788.0984
 -13603384.50047 -10557010.92045  21867330.1024                   21867329.3914
 -14199253.41447 -11021765.74145  22044234.3134                   22044236.2584
 11  8 21  1 23  0.0000000  0  8G10G29G12G04G05G02G30G25
 -38930244.71147 -30309778.15544  21818522.4224                   21818521.3674
   4913255.57046   3855021.06443  24055994.4534                   24055996.2854
 -35048102.59048 -27226135.74946  20679177.7114                   20679176.0984
 -51323434.12947 -39962987.76343  23666178.0944                   23666178.4774
 -32429214.30947 -25243320.36646  20301096.2114                   20301094.9964
 -49927109.39547 -38876408.57446  20930778.4304                   20930775.4224
 -13705948.70747 -10636931.03345  21847812.5234                   21847812.3164
 -14313252.03148 -11110595.76445  22022540.7734                   22022542.8834
 11  8 21  1 23 30.0000000  0  8G10G29G12G04G05G02G30G25
 -38913545.38747 -30296765.69144  21821700.3204                   21821698.7304
   4772181.52346   3745093.36443  24029148.7344                   24029150.3094
 -35096866.44948 -27264133.55546  20669898.3054                   20669896.4964
 -51301842.64547 -39946163.16843  23670287.1334                   23670286.5944
 -32516368.69148 -25311232.83446  20284511.4224                   20284510.2774
 -49958507.94147 -38900874.94946  20924803.3204                   20924800.3094
 -13807884.93747 -10716361.79645  21828414.6644                   21828414.4104
 -14426692.66047 -11198990.99545  22000953.8364                   22000955.5554
 11  8 21  1 24  0.0000000  0  8G10G29G12G04G05G02G30G25
 -38896353.88347 -30283369.71744  21824971.8054                   21824970.6954
   4631112.24246   3635169.37443  24002303.8834                   24002305.5474
 -35144987.37148 -27301630.37546  20660740.8674                   20660739.5394
 -51280231.76647 -39929323.57743  23674399.5164                   23674399.3244
 -32602891.43748 -25378653.12146  20268046.6884                   20268045.6174
 -49989708.38748 -38925186.96946  20918866.3984                   20918862.8134
 -13909189.89147 -10795300.66045  21809136.7424                   21809136.4844
 -14539571.54347 -11286948.51545  21979473.5234                   21979475.6334
 11  8 21  1 24 30.0000000  0  8G10G29G12G04G05G02G30G25
 -38878673.94147 -30269593.12945  21828336.2664                   21828335.2704
   4490047.63346   3525248.95843  23975460.4774                   23975461.6454
 -35192466.91848 -27338627.42046  20651705.5634                   20651704.5004
 -51258603.53546 -39912470.36243  23678513.9774                   23678515.2704
 -32688783.21548 -25445581.74646  20251702.2504                   20251700.8714
 -50020712.82448 -38949346.25146  20912966.5394                   20912963.3674
 -14009863.51647 -10873747.54745  21789979.2274                   21789979.0554
 -14651888.05547 -11374467.80445  21958100.3914                   21958102.0664
 11  8 21  1 25  0.0000000  0  8G10G29G12G04G05G02G30G25
 -38860509.39847 -30255438.93045  21831792.7034                   21831791.1054
   4348987.32846   3415331.98443  23948617.2114                   23948618.6454
 -35239306.10248 -27375125.47846  20642792.5944                   20642791.2814
 -51236959.16446 -39895604.66743  23682632.6024                   23682633.5904
 -32774044.31648 -25512018.92946  20235477.1884                   20235476.2074
 -50051523.23047 -38973354.35546  20907103.3284                   20907099.9734
 -14109905.17647 -10951702.01745  21770942.3594                   21770941.6254
 -14763641.21147 -11461548.12745  21936834.5554                   21936836.2304
 11  8 21  1 25 30.0000000  0  8G10G29G12G04G05G02G30G25
 -38841865.48447 -30240911.18845  21835340.8984                   21835339.9384
   4207930.06646   3305417.23643  23921774.5704                   23921776.2304
 -35285508.58248 -27411127.40246  20634000.4614                   20633999.0664
 -51215302.01246 -39878728.93643  23686754.3444                   23686754.9884
 -32858676.57048 -25577966.10846  20219372.2424                   20219371.1134
 -50082142.66447 -38997213.63846  20901276.4384                   20901273.5274
 -14209316.08647 -11029165.00945  21752024.8204                   21752024.2774
 -14874831.65247 -11548189.97845  21915675.8754                   21915677.5474
 11  8 21  1 26  0.0000000  0  8G10G29G12G04G05G02G30G25
 -37247324.29347 -28998411.55245  22138771.4774                   22138771.0944
   5642302.60546   4423110.24043  24194727.3134                   24194728.3164
 -33755651.50448 -26219030.95846  20925122.3524                   20925121.4924
 -49618211.99246 -38634243.21843  23990669.9384                   23990671.3524
 -31367255.87148 -24415820.07746  20503179.8524                   20503178.9774
 -48537150.09847 -37793323.30646  21195278.6564                   21195276.0354
 -12732670.57447  -9878532.09745  22033020.6804                   22033020.8484
 -13410032.85947 -10406788.26745  22194417.3364                   22194419.5234
 11  8 21  1 26 30.0000000  0  8G10G29G12G04G05G02G30G25
 -37227726.32847 -28983140.37545  22142500.7114                   22142500.4884
   5501257.53546   4313205.06643  24167887.5004                   24167887.6294
 -33800577.16848 -26254037.94746  20916573.5704                   20916572.5474
 -49596527.34046 -38617346.06843  23994796.4534                   23994797.6374
 -31450625.89548 -24480783.69746  20487315.2894                   20487314.1644
 -48567387.14547 -37816884.64346  21189524.4774                   21189521.8484
 -12830812.88347  -9955006.57645  22014345.0634                   22014344.5904
 -13520089.27047 -10492546.41945  22173474.2424                   22173476.2504
 11  8 21  1 27  0.0000000  0  8G10G29G12G04G05G02G30G25
 -37207658.34447 -28967502.97244  22146319.8594                   22146319.1134
   5360216.83246   4203303.31443  24141048.0164                   24141048.4184
 -33844868.73448 -26288550.83946  20908144.8984                   20908143.7034
 -49574832.56646 -38600441.00943  23998924.7194                   23998926.1094
 -31533366.82448 -24545257.11546  20471570.5704                   20471569.1334
 -48597437.16047 -37840300.21446  21183806.3674                   21183803.3284
 -12928321.75847 -10030987.48845  21995789.8914                   21995789.0664
 -13629578.77347 -10577862.88645  22152639.4304                   22152641.0864
 11  8 21  1 27 30.0000000  0  8G10G29G12G04G05G02G30G25
 -37187122.12147 -28951500.73145  22150227.3594                   22150227.2114
   5219182.52046   4093406.52143  24114210.6724                   24114210.7934
 -33888524.92248 -26322568.62846  20899837.3444                   20899836.2034
 -49553127.65646 -38583528.14043  24003054.9924                   24003055.9024
 -31615477.16848 -24609239.16846  20455945.1254                   20455944.2304
 -48627299.99247 -37863569.95346  21178123.5084                   21178120.6454
 -13025195.19947 -10106473.24445  21977354.9534                   21977355.0274
 -13738498.91848 -10662735.68445  22131912.1254                   22131913.8134
 11  8 21  1 28  0.0000000  0  8G10G29G12G04G05G02G30G25
 -37166116.09847 -28935132.36945  22154224.6334                   22154224.1094
   5078159.91846   3983518.86343  24087374.3984                   24087374.5594
 -33931542.75848 -26356088.99646  20891651.7344                   20891650.1294
 -49531408.59046 -38566604.18343  24007188.2194                   24007188.8754
 -31696952.16848 -24672726.13646  20440440.6094                   20440439.7234
 -48656972.31248 -37886691.23746  21172477.5944                   21172474.4774
 -13121427.69147 -10181459.57645  21959042.4304                   21959042.6604
 -13846843.50847 -10747159.99445  22111295.1414                   22111296.3284
 11  8 21  1 28 30.0000000  0  8G10G29G12G04G05G02G30G25
 -37144644.32847 -28918401.12444  22158311.3134                   22158310.1134
   4937148.50446   3873639.92043  24060540.7114                   24060540.8164
 -33973923.85948 -26389113.20246  20883586.7424                   20883585.5744
 -49509677.26646 -38549670.71743  24011323.9064                   24011324.7934
 -31777792.87948 -24735718.87446  20425057.5084                   20425056.1454
 -48686456.14847 -37909665.65946  21166866.8594                   21166863.8204
 -13217019.39847 -10255946.58945  21940852.5394                   21940851.6484
 -13954612.24647 -10831135.61645  22090787.5314                   22090788.6724
 11  8 21  1 29  0.0000000  0  8G10G29G12G04G05G02G30G25
 -37122710.66447 -28901309.98344  22162484.8444                   22162484.0044
   4796148.06346   3763769.55443  24033708.9304                   24033709.3324
 -34015670.32848 -26421642.90946  20875643.1174                   20875641.3634
 -49487935.61746 -38532729.17443  24015461.5164                   24015461.9414
 -31858000.07448 -24798217.95146  20409794.4924                   20409793.1484
 -48715753.50447 -37932494.76346  21161291.7814                   21161288.5634
 -13311970.29347 -10329934.27445  21922783.8054                   21922783.3674
 -14061804.63347 -10914662.11445  22070389.3674                   22070390.9064
 11  8 21  1 29 30.0000000  0  8G10G29G12G04G05G02G30G25
 -37100319.83647 -28883862.57544  22166745.2274                   22166744.8634
   4655157.94946   3653907.18343  24006879.3914                   24006879.9804
 -34056784.62548 -26453679.99846  20867818.4924                   20867817.4804
 -49466185.93046 -38515781.38943  24019600.7424                   24019600.8134
 -31937575.10548 -24860224.43646  20394651.8674                   20394650.3094
 -48744867.18447 -37955180.74646  21155751.7974                   21155748.6804
 -13406281.28547 -10403423.35945  21904837.4304                   21904836.6484
 -14168420.90648 -10997739.71645  22050101.2424                   22050103.1884
 11  8 21  1 30  0.0000000  0  8G10G29G12G04G05G02G30G25
 -37077474.83247 -28866061.25044  22171092.9064                   22171092.2934
   4514178.72346   3544053.31343  23980051.7344                   23980052.6414
 -34097267.14848 -26485224.79546  20860115.3914                   20860113.9224
 -49444429.08646 -38498828.06143  24023740.7504                   24023741.8054
 -32016517.94948 -24921738.29746  20379629.3054                   20379628.1914
 -48773797.87147 -37977724.13746  21150246.1954                   21150243.3364
 -13499951.22747 -10476412.90145  21887012.2034                   21887011.3094
 -14274459.49248 -11080367.15845  22029922.1414                   22029924.1454
 11  8 21  1 30 30.0000000  0  8G10G29G12G04G05G02G30G25
 -37054181.50847 -28847910.63644  22175525.6174                   22175524.6054
   4373208.41046   3434206.41344  23953225.3444                   23953226.2464
 -34137121.56648 -26516280.17446  20852531.2584                   20852529.6914
 -49422668.25846 -38481871.57743  24027881.9384                   24027882.4614
 -32094830.93748 -24982761.38346  20364726.8524                   20364726.0594
 -48802549.39147 -38000127.92546  21144774.7814                   21144772.1484
 -13592981.99647 -10548904.39645  21869309.2974                   21869307.9884
 -14379921.68047 -11162545.47545  22009853.3054                   22009855.2664
 11  8 21  1 31  0.0000000  0  8G10G29G12G04G05G02G30G25
 -37030437.35547 -28829408.69844  22180043.7734                   22180042.9844
   4232253.37946   3324371.40443  23926402.6254                   23926403.3244
 -34176343.63348 -26546842.81146  20845067.3204                   20845066.3984
 -49400898.69146 -38464908.31743  24032024.4454                   24032024.3014
 -32172509.08248 -25043289.77646  20349945.3834                   20349944.1214
 -48831117.40647 -38022388.70746  21139338.5474                   21139335.8094
 -13685367.29347 -10620892.93945  21851728.5394                   21851727.9884
 -14484800.57447 -11244269.27645  21989895.6174                   21989897.4654
 11  8 21  1 31 30.0000000  0  8G10G29G12G04G05G02G30G25
 -37006247.50047 -28810559.49944  22184646.9614                   22184646.2234
   4091312.30546   3214547.27643  23899581.5394                   23899583.4964
 -34214936.59848 -26576915.22146  20837723.5634                   20837721.7854
 -49379123.08646 -38447940.37143  24036168.4064                   24036168.0904
 -32249553.97348 -25103324.72246  20335284.1024                   20335282.9494
 -48859504.71947 -38044508.69146  21133936.8674                   21133934.0634
 -13777108.35947 -10692379.46045  21834271.0864                   21834270.5944
 -14589096.86748 -11325539.09045  21970049.0004                   21970050.0984
 11  8 21  1 32  0.0000000  0  8G10G29G12G04G05G02G30G25
 -36981614.10247 -28791364.63944  22189334.7344                   22189333.5984
   3950386.66846   3104735.20344  23872765.4064                   23872766.1134
 -34252900.71548 -26606497.63846  20830499.1094                   20830497.6914
 -49357341.77046 -38430967.87143  24040313.8284                   24040313.2034
 -32325964.82048 -25162865.60346  20320743.6644                   20320742.4734
 -48887711.62147 -38066488.08745  21128569.1334                   21128566.3674
 -13868203.82047 -10763362.92645  21816936.3134                   21816936.0434
 -14692808.61747 -11406353.41845  21950313.1724                   21950315.0864
 11  8 21  1 32 30.0000000  0  8G10G29G12G04G05G02G30G25
 -36956541.64547 -28771827.66444  22194105.4064                   22194105.4494
   3809476.00046   2994934.85644  23845950.5704                   23845951.1604
 -34290237.77348 -26635591.43346  20823393.9844                   20823392.3244
 -49335556.44546 -38413992.30443  24044459.1644                   24044458.6294
 -32401742.98448 -25221913.49046  20306323.3834                   20306322.1134
 -48915740.77747 -38088328.99045  21123235.0474                   21123232.6024
 -13958654.07047 -10833843.62045  21799724.1644                   21799723.6954
 -14795935.60248 -11486712.10745  21930688.9224                   21930690.7114
 11  8 21  1 33  0.0000000  0  8G10G29G12G04G05G02G30G25
 -36931035.56647 -28751952.78444  22198958.7504                   22198959.3054
   3668578.89146   2885145.04644  23819138.9924                   23819139.2304
 -34326951.84848 -26664199.79946  20816407.5864                   20816405.9344
 -49313770.23046 -38397016.06843  24048604.7894                   24048603.7034
 -32476891.28148 -25280470.56746  20292023.2814                   20292021.9654
 -48943595.40647 -38110033.87746  21117935.0164                   21117932.0234
 -14048460.96147 -10903822.99345  21782634.0554                   21782633.9534
 -14898479.14548 -11566616.13445  21911175.5084                   21911177.0824
 11  8 21  1 33 30.0000000  0  8G10G29G12G04G05G02G30G25
 -36905094.38347 -28731738.88844  22203895.6174                   22203895.7074
   3527700.33246   2775369.72844  23792330.1484                   23792331.0634
 -34363039.66048 -26692320.16346  20809540.1884                   20809539.1684
 -49291979.68046 -38380036.42242  24052750.8754                   24052750.2664
 -32551405.14148 -25338533.28946  20277843.5314                   20277842.2424
 -48971272.14147 -38131600.14146  21112668.5234                   21112665.1884
 -14137619.40647 -10973297.07645  21765668.0704                   21765667.8594
 -15000433.53948 -11646061.09445  21891774.1024                   21891775.3754
 11  8 21  1 34  0.0000000  0  8G10G29G12G04G05G02G30G25
 -36878723.18747 -28711189.92245  22208914.1334                   22208913.7624
   3386839.18846   2665607.97944  23765525.5634                   23765525.9964
 -34398504.09448 -26719954.78146  20802791.7814                   20802790.3914
 -49270187.45746 -38363055.48042  24056896.5164                   24056897.7154
 -32625286.44948 -25396103.11146  20263784.4064                   20263783.4414
 -48998773.94147 -38153030.10546  21107434.3284                   21107431.7034
 -14226130.78147 -11042266.96545  21748824.6174                   21748824.8794
 -15101799.52048 -11725047.52545  21872485.0554                   21872485.8914
 11  8 21  1 34 30.0000000  0  8G10G29G12G04G05G02G30G25
 -36851927.20747 -28690309.96244  22214013.1724                   22214012.7034
   3245994.21146   2555858.83544  23738723.0004                   23738724.0634
 -34433348.26247 -26747106.07846  20796160.8984                   20796159.6214
 -49248396.03945 -38346075.12942  24061042.8524                   24061044.4884
 -32698537.48848 -25453181.78946  20249845.3834                   20249844.2894
 -49026103.73047 -38174326.01846  21102233.8594                   21102230.8404
 -14313996.40247 -11110733.66645  21732104.0314                   21732104.5744
 -15202577.83248 -11803576.05245  21853307.4774                   21853309.0864
 11  8 21  1 35  0.0000000  0  8G10G29G12G04G05G02G30G25
 -36824705.05147 -28669097.88844  22219193.5394                   22219192.8014
   3105170.66046   2446126.39244  23711925.1884                   23711926.2464
 -34467569.14548 -26773771.68346  20789648.9534                   20789647.6294
 -49226601.92245 -38329092.76143  24065190.6334                   24065192.5164
 -32771154.39548 -25509766.36746  20236026.2734                   20236025.6174
 -49053258.35248 -38195485.44546  21097066.7114                   21097063.2194
 -14401211.47347 -11178693.42345  21715508.0944                   21715508.0044
 -15302763.10948 -11881642.46645  21834242.8834                   21834244.5984
 11  8 21  1 35 30.0000000  0  8G10G29G12G04G05G02G30G25
 -36797064.46147 -28647559.78044  22224453.8364                   22224452.2544
   2964364.78946   2336407.68644  23685130.6024                   23685131.4924
 -34501172.39847 -26799956.03046  20783254.3754                   20783253.1954
 -49204810.32045 -38312112.20843  24069338.0394                   24069339.5904
 -32843141.80148 -25565860.41146  20222327.7114                   20222326.6024
 -49080243.06647 -38216512.47846  21091931.5554                   21091928.2934
 -14487779.86747 -11246149.29145  21699034.9774                   21699034.2894
 -15402358.57048 -11959249.28045  21815290.3284                   21815291.7854
 11  8 21  1 36  0.0000000  0  8G10G29G12G04G05G02G30G25
 -36769006.50447 -28625696.43544  22229792.9614                   22229791.4694
   2823579.61746   2226705.11243  23658340.4144                   23658340.1094
 -34534157.21548 -26825658.47846  20776977.6484                   20776976.3134
 -49183019.69545 -38295132.52143  24073483.7664                   24073485.9344
 -32914497.46148 -25621462.18646  20208749.2664                   20208748.5314
 -49107056.65647 -38237406.15746  21086828.8754                   21086825.7234
 -14573698.85247 -11313099.13545  21682684.6724                   21682684.1214
 -15501360.91848 -12036393.93645  21796450.8134                   21796452.1524
 11  8 21  1 36 30.0000000  0  8G10G29G12G04G05G02G30G25
 -36740532.95747 -28603509.29544  22235211.3284                   22235210.1914
   2682816.97246   2117020.07743  23631554.0234                   23631554.5744
 -34566523.65248 -26850879.08346  20770818.5474                   20770816.7464
 -49161229.51646 -38278153.16243  24077630.9774                   24077632.1334
 -32985220.29348 -25676570.85046  20195290.7664                   20195289.9654
 -49133699.06247 -38258166.45846  21081759.6644                   21081756.1334
 -14658966.71947 -11379541.62045  21666458.9384                   21666458.2704
 -15599767.79348 -12113074.56745  21777724.3914                   21777725.5124
 11  8 21  1 37  0.0000000  0  8G10G29G12G04G05G02G30G25
 -36711647.70347 -28581001.30644  22240707.1724                   22240706.9384
   2542077.22747   2007352.84443  23604772.0554                   23604772.6884
 -34598273.94548 -26875619.56846  20764776.5474                   20764774.9384
 -49139441.35546 -38261175.32043  24081777.2584                   24081778.0274
 -33055311.93748 -25731187.69546  20181953.1564                   20181952.0164
 -49160172.26647 -38278794.91446  21076721.6644                   21076718.4224
 -14743583.82447 -11445477.00945  21650356.8834                   21650356.5394
 -15697579.03547 -12189291.09145  21759111.3134                   21759113.4184
 11  8 21  1 37 30.0000000  0  8G10G29G12G04G05G02G30G25
 -36682355.46547 -28558176.21644  22246281.8444                   22246280.7194
   2401359.60546   1897702.86343  23577993.6954                   23577993.6524
 -34629410.77747 -26899882.03346  20758851.5164                   20758850.1764
 -49117657.32446 -38244200.76043  24085923.6954                   24085923.8874
 -33124774.06248 -25785313.99646  20168735.1954                   20168733.8404
 -49186478.36747 -38299293.15846  21071715.6724                   21071712.4454
 -14827551.43447 -11510906.27245  21634378.3984                   21634377.2734
 -15794795.08647 -12265043.84145  21740611.8134                   21740613.7344
 11  8 21  1 38  0.0000000  0  8G10G29G12G04G05G02G30G25
 -36652659.87147 -28535036.78644  22251931.3594                   22251932.1024
   2260664.55146   1788070.51743  23551220.5784                   23551220.5084
 -34659935.92248 -26923667.85646  20753042.8674                   20753041.3874
 -49095878.62946 -38227230.35143  24090068.2194                   24090068.6134
 -33193607.35548 -25838950.30046  20155636.5784                   20155635.2074
 -49212619.00847 -38319662.45446  21066741.2344                   21066737.7934
 -14910869.45347 -11575829.37445  21618523.5944                   21618522.3754
 -15891415.34048 -12340332.33045  21722225.4694                   21722226.9344
 11  8 21  1 38 30.0000000  0  8G10G29G12G04G05G02G30G25
 -36622561.69947 -28511583.68044  22257659.5864                   22257658.8444
   2119994.93046   1678457.93544  23524452.2344                   23524452.0434
 -34689848.69948 -26946976.51746  20747350.6334                   20747348.7734
 -49074103.60246 -38210262.72543  24094211.3594                   24094212.2974
 -33261810.01647 -25892095.20746  20142658.1884                   20142656.8524
 -49238592.89547 -38339901.83846  21061798.8134                   21061795.3524
 -14993535.25447 -11640244.25245  21602792.5784                   21602792.1214
 -15987436.56247 -12415154.00646  21703953.3364                   21703955.0514
 11  8 21  1 39  0.0000000  0  8G10G29G12G04G05G02G30G25
 -36592064.25447 -28487819.43944  22263463.2194                   22263462.7154
   1979351.59846   1568865.80044  23497687.8524                   23497689.0554
 -34719150.64547 -26969809.20746  20741774.4144                   20741773.1454
 -49052333.16046 -38193298.79143  24098353.6644                   24098354.5314
 -33329382.66448 -25944749.20846  20129799.1334                   20129797.7934
 -49264401.09447 -38360012.10546  21056887.1804                   21056884.3134
 -15075548.66847 -11704150.75645  21587185.7504                   21587185.1954
 -16082857.82448 -12489508.22745  21685795.3054                   21685797.2194
 11  8 21  1 39 30.0000000  0  8G10G29G12G04G05G02G30G25
 -34985760.50447 -27236154.21544  22569133.2424                   22569132.5634
   3414151.53946   2686891.78643  23770721.4304                   23770721.9344
 -33172430.96547 -25764573.09646  21036105.2584                   21036104.3444
 -47455157.30546 -36948746.18743  24402286.2734                   24402286.4264
 -31820912.50048 -24769317.88446  20416851.8054                   20416850.3364
 -47714632.70347 -37152400.36746  21351798.1884                   21351795.1724
 -13581495.53547 -10539953.45145  21871494.6334                   21871494.2934
 -14602263.93448 -11335798.66645  21967543.1254                   21967544.4734
 11  8 21  1 40  0.0000000  0  9G26G10G29G12G04G05G02G30G25
  12128001.82455   9501578.64852  24927721.7034                   24927722.0744
 -34954499.44146 -27211794.97544  22575082.3364                   22575081.2974
   3273538.59846   2577323.40143  23743963.3284                   23743964.1214
 -33200540.77047 -25786476.82646  21030756.3134                   21030755.5784
 -47433423.00846 -36931810.45243  24406422.7584                   24406422.6054
 -31887251.52048 -24821010.60246  20404227.2504                   20404226.1954
 -47740137.56647 -37172274.27446  21346945.0864                   21346942.0824
 -13662228.56647 -10602862.24845  21856131.4064                   21856131.0124
 -14696507.80148 -11409235.40745  21949608.7584                   21949610.4574
 11  8 21  1 40 30.0000000  0  9G26G10G29G12G04G05G02G30G25
  11978611.95345   9385171.15642  24899293.4224                   24899294.9384
 -34922861.44147 -27187142.02844  22581102.8594                   22581101.8794
   3132941.81646   2467767.52344  23717209.6954                   23717209.7384
 -33228056.96547 -25807918.02046  21025520.0944                   21025518.9224
 -47411707.81246 -36914889.49643  24410554.7114                   24410555.9614
 -31952974.52748 -24872223.31546  20391720.5314                   20391719.1884
 -47765492.62547 -37192031.45545  21342119.7344                   21342116.7854
 -13742321.17647 -10665272.02145  21840890.0314                   21840890.0314
 -14790161.73848 -11482212.46146  21931787.4224                   21931788.8554
 11  8 21  1 41  0.0000000  0  9G26G10G29G12G04G05G02G30G25
  11829127.48046   9268689.93842  24870847.7504                   24870848.9344
 -34890851.43047 -27162199.17444  22587193.9614                   22587193.1214
   2992360.31347   2358223.56444  23690457.3524                   23690457.4694
 -33254982.81247 -25828899.20046  21020396.3204                   21020395.1454
 -47390014.37146 -36897985.53743  24414683.8054                   24414683.1374
 -32018083.89548 -24922957.87146  20379330.8674                   20379329.3674
 -47790700.32847 -37211673.82045  21337322.8284                   21337320.0204
 -13821774.94147 -10727183.98445  21825770.2734                   21825770.1644
 -14883226.65248 -11554730.52845  21914077.6254                   21914078.8204
 11  8 21  1 41 30.0000000  0  9G26G10G29G12G04G05G02G30G25
  11679549.83346   9152136.13742  24842383.0394                   24842385.4534
 -34858473.45747 -27136969.60044  22593355.3674                   22593355.2424
   2851794.41446   2248691.77244  23663707.8674                   23663708.4844
 -33281320.67648 -25849422.20246  21015384.4534                   21015383.0204
 -47368343.97746 -36881099.57243  24418807.4774                   24418806.7934
 -32082580.80148 -24973215.18846  20367057.8364                   20367056.3554
 -47815762.29347 -37231202.62045  21332553.9614                   21332551.0784
 -13900590.43447 -10788598.62345  21810772.5004                   21810771.7664
 -14975702.47748 -11626789.55946  21896479.9224                   21896481.2304
 11  8 21  1 42  0.0000000  0  9G26G10G29G12G04G05G02G30G25
  11529887.55546   9035516.28142  24813903.5634                   24813904.8444
 -34825725.40646 -27111451.65344  22599586.7344                   22599585.8284
   2711250.33646   2139176.94443  23636963.5784                   23636963.4804
 -33307066.89547 -25869484.18746  21010485.3674                   21010483.5944
 -47346691.81246 -36864227.63143  24422927.8914                   24422926.5664
 -32146460.54748 -25022991.58746  20354901.4454                   20354900.3874
 -47840674.28147 -37250614.56145  21327813.6644                   21327810.4964
 -13978762.10947 -10849511.56145  21795897.1174                   21795896.6024
 -15067582.93747 -11698384.69746  21878995.6094                   21878996.5474
 11  8 21  1 42 30.0000000  0  9G26G10G29G12G04G05G02G30G25
  11380138.53946   8918828.93842  24785407.6174                   24785408.3244
 -34792614.80546 -27085651.21244  22605886.9774                   22605886.5434
   2570724.66846   2029676.48843  23610222.6414                   23610222.6724
 -33332227.15648 -25889089.57946  21005697.3754                   21005696.4654
 -47325062.97746 -36847374.04742  24427042.6094                   24427042.0434
 -32209728.18047 -25072291.01746  20342862.8284                   20342860.9774
 -47865441.52747 -37269913.71045  21323100.3754                   21323097.3714
 -14056294.19547 -10909926.13545  21781143.1564                   21781142.7464
 -15158871.63347 -11769518.69746  21861624.0474                   21861624.8444
 11  8 21  1 43  0.0000000  0  9G26G10G29G12G04G05G02G30G25
  11230315.08246   8802083.55542  24756896.7034                   24756897.7774
 -34759135.05546 -27059563.12844  22612257.8284                   22612257.3874
   2430228.32446   1920198.88743  23583487.0474                   23583487.4654
 -33356793.32448 -25908232.04146  21001022.2504                   21001021.1844
 -47303447.98046 -36830531.12142  24431154.9844                   24431153.9064
 -32272374.50848 -25121106.31946  20330941.1024                   20330939.6844
 -47890055.10247 -37289093.10945  21318416.6334                   21318413.4104
 -14133176.78147 -10969834.63845  21766512.6564                   21766512.6484
 -15249557.94148 -11840183.32246  21844367.0784                   21844368.2194
 11  8 21  1 43 30.0000000  0  9G26G10G29G12G04G05G02G30G25
  11080414.25845   8685277.83642  24728371.4454                   24728373.0554
 -34725294.60546 -27033193.89944  22618697.9774                   22618697.4694
   2289756.60946   1810740.50243  23556756.1334                   23556756.0594
 -33380772.77048 -25926917.32746  20996459.4304                   20996457.9494
 -47281853.08646 -36813704.00842  24435263.6414                   24435263.9574
 -32334405.44147 -25169442.09447  20319137.0004                   20319135.4884
 -47914521.48447 -37308157.82545  21313760.7344                   21313757.7234
 -14209415.32047 -11029241.27845  21752004.8524                   21752004.4844
 -15339646.57447 -11910382.21046  21827223.7584                   21827225.3594
 11  8 21  1 44  0.0000000  0  9G26G10G29G12G04G05G02G30G25
  10930443.51245   8568417.60542  24699832.7194                   24699834.1414
 -34691092.09846 -27006542.61144  22625206.4224                   22625206.1914
   2149314.99647   1701305.54344  23530030.3914                   23530031.2114
 -33404162.37948 -25945142.98546  20992008.3524                   20992006.6024
 -47260274.27345 -36796889.34042  24439369.9064                   24439370.8754
 -32395816.97748 -25217295.21646  20307450.7194                   20307449.0514
 -47938836.86347 -37327104.86045  21309133.6414                   21309130.6054
 -14285005.04747 -11088142.34845  21737621.0164                   21737620.8524
 -15429132.19947 -11980111.24746  21810195.1094                   21810196.4454
 11  8 21  1 44 30.0000000  0  9G26G10G29G12G04G05G02G30G25
  10780403.40645   8451503.38342  24671280.6254                   24671281.6174
 -34656532.66447 -26979613.21544  22631782.8834                   22631783.1334
   2008902.98846   1591893.63444  23503311.4064                   23503311.6684
 -33426965.87148 -25962911.93346  20987669.1254                   20987667.9844
 -47238713.98045 -36780089.07042  24443473.1804                   24443473.4694
 -32456612.09047 -25264668.01147  20295881.6884                   20295880.6214
 -47963004.14147 -37345936.48546  21304534.8674                   21304531.9224
 -14359947.81647 -11146539.30545  21723360.0634                   21723359.2814
 -15518015.93747 -12049371.25846  21793280.6094                   21793282.0784
 11  8 21  1 45  0.0000000  0  9G26G10G29G12G04G05G02G30G25
  10630297.74645   8334538.05542  24642716.4064                   24642717.6024
 -34621618.41446 -26952407.32244  22638426.2974                   22638427.0554
   1868522.34846   1482506.18244  23476597.8914                   23476598.0864
 -33449183.70747 -25980224.53446  20983441.3914                   20983439.8284
 -47217171.547 6                  24447572.898
 -32516790.19547 -25311560.01547  20284430.1094                   20284428.9384
 -47987022.90247 -37364652.40646  21299964.2034                   21299961.3014
 -14434242.58647 -11204431.33145  21709221.9064                   21709221.0434
 -15606296.01647 -12118160.92246  21776481.6414                   21776482.7974
 11  8 21  1 45 30.0000000  0  9G26G10G29G12G04G05G02G30G25
  10480127.55545   8217522.43042  24614139.8914                   24614141.2304
 -34586354.23447 -26924928.78944  22645137.3524                   22645137.6174
   1728172.34046   1373142.62744  23449890.3364                   23449890.9884
 -33470819.11348 -25997083.28446  20979324.3134                   20979322.7934
 -47195649.406 6                  24451667.883
 -32576353.46148 -25357972.92747  20273095.7504                   20273094.3554
 -48010895.59047 -37383254.47346  21295421.4694                   21295418.5314
 -14507890.96547 -11261819.67945  21695206.8134                   21695206.5004
 -15693973.34047 -12186480.89046  21759797.2194                   21759798.4534
 11  8 21  1 46  0.0000000  0  9G26G10G29G12G04G05G02G30G25
  10329902.02345   8100463.68842  24585553.2344                   24585553.8954
 -34550736.39546 -26897174.66844  22651915.5864                   22651915.6134
   1587861.05146   1263809.26644  23423189.5394                   23423190.2624
 -33491867.44148 -26013484.58446  20975318.5084                   20975317.8524
 -47174141.16446 -36729772.53952  24455761.7974                   24455763.0204
 -32635296.15647 -25403902.26047  20261879.3134                   20261877.8364
 -48034616.50047 -37401738.27946  21290907.6094                   21290904.6844
 -14580886.27047 -11318699.15145  21681316.6644                   21681316.1134
 -15781040.56247 -12254325.46146  21743228.7974                   21743230.3244
 11  8 21  1 46 30.0000000  0  9G26G10G29G12G04G05G02G30G25
  10179620.74246   7983361.52342  24556955.1644                   24556956.3954
 -34514771.35546 -26869149.98344  22658759.0394                   22658758.4734
   1447585.87546   1154503.98844  23396495.4064                   23396496.4574
 -33512333.88748 -26029432.46146  20971424.2274                   20971422.8714
 -47152650.84846 -36713026.84042  24459852.2114                   24459851.8094
 -32693622.35547 -25449351.21646  20250779.9614                   20250779.0944
 -48058189.80547 -37420107.08146  21286421.6564                   21286418.9734
 -14653231.95747 -11375072.41845  21667549.1254                   21667548.8094
 -15867500.40647 -12321696.75046  21726776.1884                   21726777.6844
 11  8 21  1 47  0.0000000  0  9G26G10G29G12G04G05G02G30G25
  10029286.94946   7866218.37543  24528347.5944                   24528348.7034
 -34478461.66846 -26840856.68344  22665669.0314                   22665667.3634
   1307348.90247   1045228.55044  23369809.8754                   23369809.4734
 -33532218.87948 -26044927.26046  20967640.3444                   20967638.9844
 -47131178.09846 -36696294.77943  24463937.9454                   24463939.0004
 -32751332.03147 -25494319.75746  20239798.4144                   20239796.7854
 -48081615.36347 -37438360.75746  21281964.0164                   21281961.0354
 -14724927.28547 -11430938.91645  21653906.8674                   21653905.8484
 -15953351.39547 -12388593.62246  21710439.3284                   21710440.6564
 11  8 21  1 47 30.0000000  0  9G26G10G29G12G04G05G02G30G25
   9878903.02746   7749036.30142  24499729.9614                   24499731.3714
 -34441811.03946 -26812297.79544  22672643.4454                   22672642.1804
   1167150.49646    935983.10144  23343130.8134                   23343130.7074
 -33551525.47748 -26059971.35546  20963966.4064                   20963964.7544
 -47109723.94546 -36679577.22843  24468021.2504                   24468021.1334
 -32808426.66447 -25538809.05046  20228933.4774                   20228931.9804
 -48104894.92247 -37456500.67146  21277534.0864                   21277530.8444
 -14795972.97747 -11486299.16545  21640386.8204                   21640386.1134
 -16038593.53547 -12455016.06146  21694218.2344                   21694219.1644
 11  8 21  1 48  0.0000000  0  9G26G10G29G12G04G05G02G30G25
   9728470.59446   7631816.36843  24471104.0704                   24471104.8794
 -34404823.44946 -26783476.28844  22679681.6414                   22679681.2854
   1026990.89546    826767.92744  23316459.6644                   23316459.6684
 -33570256.31248 -26074566.80946  20960401.9924                   20960400.7774
 -47088289.87546 -36662875.43743  24472099.7894                   24472099.5004
 -32864907.94147 -25582820.40046  20218185.3054                   20218184.0664
 -48128030.23847 -37474528.18046  21273131.6254                   21273128.4104
 -14866370.13347 -11541154.09745  21626990.5784                   21626990.2504
 -16123227.20747 -12520964.35946  21678112.8984                   21678114.4844
 11  8 21  1 48 30.0000000  0  9G26G10G29G12G04G05G02G30G25
   9577999.72746   7514566.51642  24442469.7504                   24442471.2934
 -34367495.00846 -26754389.24244  22686784.8984                   22686784.6604
    886878.24247    717589.34244  23289796.3204                   23289797.0274
 -33588405.70348 -26088709.18346  20956948.2424                   20956946.8754
 -47066869.06646 -36646183.84043  24476175.4774                   24476176.0434
 -32920769.47347 -25626348.82146  20207555.4534                   20207553.8594
 -48151014.64547 -37492438.10346  21268757.7504                   21268754.6604
 -14936111.62947 -11595498.11545  21613719.4224                   21613718.5744
 -16207244.56247 -12586432.40446  21662125.0164                   21662126.3324
 11  8 21  1 49  0.0000000  0  9G26G10G29G12G04G05G02G30G25
   9427487.52746   7397284.39542  24413828.8674                   24413828.6724
 -34329834.37146 -26725043.31944  22693951.9304                   22693951.5904
    746808.32047    608444.01044  23263142.8054                   23263142.5204
 -33605981.28148 -26102404.43846  20953603.5864                   20953602.5664
 -47045467.56646 -36629507.40242  24480247.2344                   24480248.1914
 -32976017.75448 -25669399.39546  20197041.8754                   20197040.2704
 -48173854.50047 -37510235.41946  21264411.4774                   21264407.9224
 -15005203.25847 -11649335.72445  21600571.6954                   21600571.0274
 -16290650.67647 -12651424.17946  21646253.0944                   21646254.8914
 11  8 21  1 49 30.0000000  0  9G26G10G29G12G04G05G02G30G25
   9276937.16446   7279972.54043  24385179.5004                   24385179.7504
 -34291843.96546 -26695440.39544  22701181.4534                   22701180.2974
    606782.69147    499333.25844  23236496.3594                   23236496.2584
 -33622984.57048 -26115653.75446  20950368.0474                   20950366.5394
 -47024085.50046 -36612846.02943  24484316.5864                   24484317.3444
 -33030653.21947 -25711972.46147  20186645.5164                   20186643.1484
 -48196550.30947 -37527920.46645  21260092.3444                   21260088.9384
 -15073644.81647 -11702666.79545  21587547.7584                   21587547.0084
 -16373444.59447 -12715938.90646  21630497.6644                   21630499.8364
 11  8 21  1 50  0.0000000  0  9G26G10G29G12G04G05G02G30G25
   9126350.89546   7162632.77843  24356523.8984                   24356524.7504
 -34253527.90646 -26665583.78044  22708473.1884                   22708471.9694
    466801.56346    390257.10744  23209858.3754                   23209858.4614
 -33639418.12548 -26128459.10746  20947240.8674                   20947239.7734
 -47002723.99246 -36596200.78043  24488381.9774                   24488382.6454
 -33084677.50847 -25754069.28346  20176364.6174                   20176363.2074
 -48219103.50447 -37545494.39145  21255801.0944                   21255797.3364
 -15141437.11747 -11755491.94645  21574647.4224                   21574646.3054
 -16455626.39847 -12779976.64646  21614859.3594                   21614860.9964
 11  8 21  1 50 30.0000000  0  9G26G10G29G12G04G05G02G30G25
   8975731.25046   7045266.93543  24327861.7584                   24327862.7304
 -34214889.61346 -26635476.05344  22715825.3674                   22715824.5274
    326865.77746    281216.31844  23183229.5554                   23183229.8444
 -33655283.98848 -26140822.11046  20944221.5554                   20944220.5784
 -46981383.46646 -36579571.86443  24492443.0944                   24492444.3134
 -33138091.50848 -25795690.56046  20166200.3834                   20166198.9304
 -48241514.94547 -37562957.86045  21251536.0554                   21251532.5824
 -15208580.64847 -11807811.56345  21561870.1954                   21561869.3754
 -16537195.85247 -12843537.23946  21599337.4774                   21599338.4184
 11  8 21  1 51  0.0000000  0  9G26G10G29G12G04G05G02G30G25
   8825082.49246   6927878.36043  24299194.2584                   24299194.5394
 -34175930.71546 -26605118.52844  22723238.9694                   22723238.0434
    186978.33646    172213.17444  23156610.3364                   23156609.8674
 -33670582.51648 -26152743.04346  20941310.3444                   20941309.0824
 -46960063.06946 -36562958.53943  24496500.5234                   24496500.0824
 -33190895.18448 -25836836.26847  20156152.0944                   20156150.6644
 -48263783.95747 -37580310.34245  21247298.0554                   21247295.2544
 -15275074.23847 -11859624.71445  21549216.7894                   21549216.0784
 -16618151.03147 -12906619.19346  21583932.1564                   21583933.6684
 11  8 21  1 51 30.0000000  0  9G26G10G29G12G04G05G02G30G25
   8674408.15646   6810469.89142  24270521.5474                   24270522.4494
 -34136653.80546 -26574513.13244  22730713.0864                   22730711.8874
     47140.89146     63249.00544  23129999.2504                   23129999.6294
 -33685315.11748 -26164222.97846  20938507.0234                   20938505.6254
 -46938762.55946 -36546360.76643  24500554.3204                   24500553.2384
 -33243088.29347 -25877506.20847  20146220.1804                   20146218.3244
 -48285910.47747 -37597551.77845  21243087.6334                   21243084.5594
 -15340917.59848 -11910931.19945  21536687.4534                   21536686.7074
 -16698490.87547 -12969221.64246  21568643.8594                   21568645.2854
 11  8 21  1 52  0.0000000  0  9G26G10G29G12G04G05G02G30G25
   8523708.79346   6693041.90643  24241844.7114                   24241845.7854
 -34097063.56646 -26543663.60144  22738247.0394                   22738246.3134
    -92647.37146    -45676.84644  23103398.8054                   23103398.8984
 -33699485.88748 -26175265.14246  20935810.4454                   20935809.0904
 -46917484.42646 -36529780.34243  24504603.6334                   24504601.9414
 -33294674.34047 -25917703.12446  20136403.4384                   20136402.0904
 -48307897.41847 -37614684.46245  21238904.0474                   21238900.8094
 -15406113.21948 -11961732.94745  21524281.2504                   21524280.8484
 -16778217.10547 -13031345.94846  21553472.3754                   21553473.4774
 11  8 21  1 52 30.0000000  0  9G26G10G29G12G04G05G02G30G25
   8372988.50446   6575597.64542  24213163.1564                   24213163.3634
 -34057162.40246 -26512571.76444  22745840.2034                   22745839.8674
   -232384.21546   -154562.63544  23076807.8444                   23076807.7664
 -33713095.60248 -26185870.10946  20933220.6414                   20933219.2424
 -46896227.91846 -36513216.91442  24508647.1564                   24508647.6054
 -33345653.00447 -25957426.74546  20126702.5234                   20126701.2154
 -48329744.27747 -37631707.99545  21234746.0704                   21234743.4804
 -15470660.29748 -12012029.34145  21511998.0944                   21511997.6564
 -16857328.21147 -13092990.93746  21538418.2584                   21538419.2544
 11  8 21  1 53  0.0000000  0  9G26G10G29G12G04G05G02G30G25
   9797674.96546   7685743.07943  24484272.0944                   24484272.3164
 -32441534.91446 -25253641.24844  23053283.8134                   23053283.3204
   1203356.12146    964196.12044  23350020.0164                   23350019.9964
 -32150726.42248 -24968439.57746  21230529.6094                   21230527.9734
 -45299574.28946 -35269071.24243  24812480.5084                   24812480.8594
 -31820603.92647 -24769076.81247  20416909.7274                   20416908.2854
 -46776031.48447 -36421022.69745  21530407.7584                   21530405.1054
 -13959137.29347 -10834219.18745  21799631.5314                   21799631.0314
 -15360401.39847 -11926554.45246  21823273.5634                   21823275.4104
 11  8 21  1 53 30.0000000  0  8G26G10G29G12G05G02G30G25
   9646920.11746   7568271.84943  24455584.0704                   24455585.9384
 -32401022.32046 -25222073.00544  23060993.0784                   23060992.7154
   1063724.50446    855392.28244  23323448.7194                   23323448.8954
 -32163221.54748 -24978176.04346  21228152.0474                   21228149.9804
 -31870372.25447 -24807857.31146  20407439.2974                   20407438.0004
 -46797601.67647 -36437830.64445  21526303.4384                   21526300.7114
 -14022389.64547 -10883506.70345  21787594.7894                   21787593.7814
 -15438282.32447 -11987240.86946  21808453.7584                   21808454.6644
 11  8 21  1 54  0.0000000  0  8G26G10G29G12G05G02G30G25
   9496153.67246   7450791.63043  24426894.6884                   24426895.2974
 -32360207.31646 -25190269.10244  23068759.8204                   23068759.3244
    924148.83646    746632.06044  23296888.5474                   23296888.1454
 -32175161.39848 -24987479.82346  21225879.7584                   21225878.2624
 -31919535.90647 -24846166.63647  20398083.7114                   20398082.2034
 -46819033.29347 -36454530.59245  21522225.3524                   21522222.4494
 -14084993.89847 -10932289.21845  21775681.3914                   21775680.9024
 -15515546.25448 -12047446.51246  21793750.6094                   21793751.7034
 11  8 21  1 54 30.0000000  0  8G26G10G29G12G05G02G30G25
   9345385.29746   7333309.89343  24398204.6254                   24398204.6374
 -32319086.60546 -25158227.06344  23076584.1724                   23076584.1214
    784637.07046    637921.63844  23270340.3674                   23270340.0744
 -32186541.10948 -24996347.13746  21223714.1254                   21223712.2034
 -31968089.12948 -24884000.30446  20388844.4224                   20388842.8014
 -46840320.51247 -36471118.02446  21518174.3834                   21518170.9064
 -14146943.96547 -10980561.96945  21763892.5554                   21763892.2504
 -15592186.33648 -12107166.02446  21779166.7664                   21779167.9654
 11  8 21  1 55  0.0000000  0  8G26G10G29G12G05G02G30G25
   9194623.30546   7215833.23143  24369514.4454                   24369515.5704
 -32277657.45746 -25125944.57444  23084468.4144                   23084467.4654
    645195.93046    529266.24544  23243805.4614                   23243805.0004
 -32197357.21948 -25004775.27546  21221656.2034                   21221654.3914
 -32016027.51248 -24921354.86246  20379722.0864                   20379720.4844
 -46861457.96547 -36487588.75345  21514152.5234                   21514148.9064
 -14208234.75447 -11028321.03545  21752229.6484                   21752229.4924
 -15668196.74648 -12166394.91146  21764702.3444                   21764703.1914
 11  8 21  1 55 30.0000000  0  8G26G10G29G12G05G02G30G25
   9043868.56646   7098362.04643  24340826.6884                   24340827.5984
 -32235925.20746 -25093425.98243  23092410.0164                   23092408.0824
    505824.44546    420665.14744  23217283.8444                   23217283.1254
 -32207613.82448 -25012767.45146  21219704.5944                   21219703.0004
 -32063354.54748 -24958233.04946  20370716.0704                   20370714.5274
 -46882448.80548 -36503945.24945  21510157.9774                   21510154.1884
 -14268868.93447 -11075568.42345  21740690.8444                   21740690.5864
 -15743579.32848 -12225134.58146  21750357.4534                   21750358.8634
 11  8 21  1 56  0.0000000  0  8G26G10G29G12G05G02G30G25
   8893124.27746   6980899.08843  24312141.0394                   24312141.8594
 -32193892.90646 -25060673.53844  23100408.4774                   23100406.7584
    366524.38346    312119.68344  23190775.6954                   23190775.3094
 -32217312.84047 -25020325.11246  21217858.5554                   21217857.1644
 -32110070.84447 -24994635.34546  20361826.1334                   20361824.2854
 -46903293.30947 -36520187.70945  21506191.1954                   21506187.9384
 -14328846.75847 -11122304.39545  21729277.5474                   21729276.8014
 -15818333.68048 -12283384.70746  21736132.2274                   21736133.5904
 11  8 21  1 56 30.0000000  0  8G26G10G29G12G05G02G30G25
   8742393.32446   6863446.56643  24283457.7114                   24283458.9804
 -32151563.19546 -25027689.42643  23108463.8444                   23108461.7974
    227296.81347    203630.69844  23164281.5234                   23164281.5664
 -32226456.60548 -25027450.14146  21216118.4774                   21216116.9694
 -32156177.54348 -25030562.61246  20353051.8834                   20353050.6994
 -46923992.18448 -36536316.70345  21502252.3674                   21502249.2584
 -14388168.73847 -11168529.29845  21717989.2194                   21717988.5474
 -15892459.39548 -12341144.99846  21722026.3284                   21722027.7234
 11  8 21  1 57  0.0000000  0  8G26G10G29G12G05G02G30G25
   8591677.38346   6746005.75843  24254778.3674                   24254778.3014
 -32108940.90647 -24994477.26043  23116575.1484                   23116572.8554
     88141.70746     95198.16944  23137801.3284                   23137801.5044
 -32235048.88348 -25034145.42246  21214483.4224                   21214481.8444
 -32201677.47347 -25066017.08446  20344393.9534                   20344392.2074
 -46944547.49647 -36552333.81745  21498341.0084                   21498337.8634
 -14446837.13747 -11214244.96845  21706825.0634                   21706824.2154
 -15965957.94147 -12398416.59446  21708039.9614                   21708041.6454
 11  8 21  1 57 30.0000000  0  8G26G10G29G12G05G02G30G25
   8440974.46946   6628575.04243  24226099.2344                   24226101.1094
 -32066033.77346 -24961043.16043  23124739.3834                   23124738.0704
    -50944.03547    -13180.27644  23111334.2274                   23111334.4264
 -32243096.04748 -25040415.94046  21212951.9614                   21212950.1724
 -32246576.57848 -25101003.37546  20335849.7814                   20335848.5204
 -46964964.52047 -36568243.18845  21494456.0164                   21494452.5164
 -14504856.98848 -11259455.25345  21695784.2274                   21695783.6454
 -16038833.72748 -12455202.92746  21694172.1804                   21694173.3714
 11  8 21  1 58  0.0000000  0  8G26G10G29G12G05G02G30G25
   8290286.23046   6511155.74543  24197424.2894                   24197425.6374
 -32022846.31246 -24927390.53743  23132956.5474                   23132956.9734
   -189961.24247   -121505.32844  23084880.3134                   23084880.0594
 -32250602.09448 -25046264.81246  21211523.9384                   21211522.2854
 -32290877.78948 -25135523.77346  20327419.5554                   20327417.8554
 -46985245.41847 -36584046.46946  21490596.6024                   21490593.1954
 -14562230.68047 -11304162.03345  21684866.6414                   21684865.2384
 -16111088.30148 -12511505.18046  21680422.8524                   21680424.2234
 11  8 21  1 58 30.0000000  0  8G26G10G29G12G05G02G30G25
   8139617.35946   6393751.52643  24168752.9614                   24168753.9104
 -31979379.93446 -24893520.68543  23141228.4064                   23141228.4884
   -328906.35547   -229774.22144  23058439.8754                   23058438.6724
 -32257567.81648 -25051692.65346  21210197.7034                   21210196.5004
 -32334580.27348 -25169577.64446  20319103.1564                   20319101.3914
 -47005388.96147 -36599742.72345  21486763.0164                   21486759.5704
 -14618957.09047 -11348364.44545  21674071.5554                   21674070.8484
 -16182719.71148 -12567321.88446  21666791.7034                   21666793.1454
 11  8 21  1 59  0.0000000  0  8G26G10G29G12G05G02G30G25
   7988969.57446   6276363.78643  24140085.6024                   24140086.8404
 -31935639.14146 -24859436.94244  23149551.8364                   23149552.0314
   -467779.48447   -337987.02544  23032013.2034                   23032012.3164
 -32263996.35948 -25056701.91546  21208974.7344                   21208973.1454
 -32377686.78548 -25203167.11246  20310900.2274                   20310898.3164
 -47025397.01247 -36615333.41345  21482955.8524                   21482952.3134
 -14675038.25447 -11392064.07145  21663399.5944                   21663399.0004
 -16253729.18448 -12622653.94346  21653279.3134                   21653280.8674
 11  8 21  1 59 30.0000000  0  8G26G10G29G12G05G02G30G25
   7838344.88346   6158994.00043  24111422.4144                   24111423.9654
 -31891627.66447 -24825142.27644  23157927.6804                   23157927.3134
   -606580.23847   -446143.39344  23005600.1024                   23005599.5824
 -32269890.80548 -25061294.99446  21207853.3754                   21207852.0084
 -32420199.60248 -25236293.96346  20302810.0234                   20302808.7854
 -47045271.20747 -36630819.80445  21479173.8054                   21479170.4494
 -14730475.78547 -11435262.15445  21652850.6334                   21652849.8714
 -16324117.66048 -12677502.10546  21639884.5474                   21639885.5984
 11  8 21  2  0  0.0000000  0  8G26G10G29G12G05G02G30G25
   7687745.74246   6041644.15043  24082764.9454                   24082765.3634
 -31847348.99246 -24790639.40243  23166353.3594                   23166352.9414
   -745307.37947   -554242.39344  22979201.2814                   22979200.4224
 -32275254.15248 -25065474.23146  21206832.7194                   21206831.5354
 -32462120.59847 -25268959.64446  20294833.0944                   20294831.1334
 -47065012.73047 -36646202.78645  21475417.1024                   21475413.4694
 -14785270.97347 -11477959.71145  21642422.9144                   21642422.6134
 -16393885.51647 -12731866.66346  21626607.8834                   21626609.5474
 11  8 21  2  0 30.0000000  0  8G26G10G29G12G05G02G30G25
   7537175.60546   5924316.94043  24054112.2894                   24054113.6844
 -31802806.39846 -24755930.91344  23174829.4844                   23174828.9264
   -883959.68047   -662283.08344  22952816.4224                   22952816.0554
 -32280088.71148 -25069241.43746  21205912.3914                   21205911.5554
 -32503450.92648 -25301165.07346  20286968.2034                   20286966.3204
 -47084621.87147 -36661482.64445  21471685.9144                   21471682.4144
 -14839424.52747 -11520157.29245  21632118.1884                   21632117.0984
 -16463032.71548 -12785747.59546  21613449.8204                   21613451.6024
 11  8 21  2  1  0.0000000  0  8G26G10G29G12G05G02G30G25
   7386636.89146   5807014.11343  24025464.8524                   24025466.4534
 -31758002.92246 -24721019.12444  23183355.7894                   23183354.9064
  -1022536.07047   -770264.63744  22926445.9774                   22926445.8984
 -32284396.86348 -25072598.44446  21205092.7034                   21205091.2974
 -32544192.35248 -25332911.61946  20279215.1804                   20279213.5274
 -47104099.69947 -36676660.15945  21467978.8364                   21467975.5394
 -14892937.51247 -11561855.70645  21621934.8984                   21621933.9694
 -16531559.55548 -12839145.14046  21600409.8134                   21600411.0274
 11  8 21  2  1 30.0000000  0  8G26G10G29G12G05G02G30G25
   7236134.54346   5689739.65543  23996825.3984                   23996827.0824
 -31712940.02046 -24685905.23743  23191930.4924                   23191929.6214
  -1161033.32847   -878184.53044  22900090.9614                   22900090.3914
 -32288179.51248 -25075545.96246  21204373.0234                   21204372.1844
 -32584344.54348 -25364199.01846  20271574.6484                   20271572.9884
 -47123444.71147 -36691734.20445  21464297.7504                   21464295.0634
 -14945809.13347 -11603054.37345  21611873.4614                   21611873.1884
 -16599464.41448 -12892058.01646  21587487.9694                   21587489.1564
 11  8 21  2  2  0.0000000  0  8G26G10G29G12G05G02G30G25
   7085664.03146   5572490.08043  23968191.9774                   23968192.5744
 -31667628.16047 -24650597.30543  23200553.3984                   23200551.2664
  -1299457.59847   -986047.55344  22873749.9224                   22873748.7194
 -32291446.49248 -25078091.68346  21203751.5784                   21203750.5864
 -32623916.35948 -25395034.18346  20264044.3594                   20264042.5594
 -47142665.10547 -36706711.13046  21460640.5164                   21460637.2234
 -14998047.73047 -11643759.74545  21601932.9534                   21601932.3364
 -16666754.85248 -12944492.11046  21574682.9924                   21574684.1994
 11  8 21  2  2 30.0000000  0  8G26G10G29G12G05G02G30G25
   6935235.23846   5455272.93944  23939566.2504                   23939566.5474
 -31622063.80546 -24615092.62543  23209223.5084                   23209222.1484
  -1437800.61747  -1093847.24145  22847423.6954                   22847423.1374
 -32294193.02048 -25080231.83646  21203228.5164                   21203227.5044
 -32662902.56248 -25425413.02846  20256625.4384                   20256623.4774
 -47161754.64147 -36721586.07545  21457007.6024                   21457004.6094
 -15049647.46547 -11683967.33745  21592113.9304                   21592113.3954
 -16733424.15648 -12996442.17846  21561996.1334                   21561997.5594
 11  8 21  2  3  0.0000000  0  8G26G10G29G12G05G02G30G25
   6784847.18446   5338087.55043  23910948.6724                   23910949.0824
 -31576254.16446 -24579396.77843  23217940.4384                   23217939.2504
  -1576065.27047  -1201585.85944  22821113.0784                   22821112.2934
 -32296425.86348 -25081971.72446  21202804.0234                   21202802.1454
 -32701308.80947 -25455339.95146  20249316.5394                   20249315.4144
 -47180718.03547 -36736362.74445  21453399.1334                   21453396.0274
 -15100613.33247 -11723680.97245  21582415.8674                   21582414.8984
 -16799476.64848 -13047911.63146  21549426.5474                   21549428.0984
 11  8 21  2  3 30.0000000  0  8G26G10G29G12G05G02G30G25
   6634503.32846   5220936.64644  23882338.9614                   23882339.5514
 -31530201.70347 -24543511.72943  23226704.2974                   23226703.5164
  -1714249.57447  -1309261.88044  22794817.2194                   22794817.1254
 -32298147.10948 -25083312.96546  21202476.1024                   21202474.4734
 -32739136.09048 -25484815.74346  20242118.5234                   20242117.0004
 -47199555.25047 -36751041.09045  21449814.4064                   21449811.2704
 -15150945.90247 -11762901.14645  21572837.5634                   21572837.0634
 -16864912.04748 -13098900.22446  21536974.6954                   21536976.0204
 11  8 21  2  4  0.0000000  0  8G26G10G29G12G05G02G30G25
   6484207.79746   5103823.29543  23853738.2274                   23853738.5204
 -31483908.46146 -24507439.08543  23235513.5164                   23235513.4774
  -1852350.72347  -1416873.09344  22768537.1644                   22768536.9264
 -32299358.02347 -25084256.54146  21202245.7344                   21202244.6414
 -32776384.77048 -25513840.66846  20235029.9844                   20235029.0664
 -47218265.98047 -36765620.87145  21446253.8674                   21446250.6844
 -15200645.16847 -11801627.81245  21563380.0474                   21563379.6334
 -16929729.51648 -13149407.30746  21524640.2194                   21524641.7734
 11  8 21  2  4 30.0000000  0  8G26G10G29G12G05G02G30G25
   6333962.10546   4986748.89543  23825147.4384                   23825147.6254
 -31437378.51646 -24471182.02143  23244368.0474                   23244368.1414
  -1990369.23447  -1524419.88745  22742273.1174                   22742272.8874
 -32300062.32047 -25084805.36746  21202111.4304                   21202109.9804
 -32813057.77048 -25542417.02046  20228051.8054                   20228050.0744
 -47236852.26247 -36780103.69345  21442717.0554                   21442713.5084
 -15249713.52747 -11839862.88445  21554042.6724                   21554042.1174
 -16993930.65248 -13199434.13246  21512423.4224                   21512424.8244
 11  8 21  2  5  0.0000000  0  8G26G10G29G12G05G02G30G25
   6183767.72746   4869714.37943  23796565.7664                   23796566.8984
 -31390617.04347 -24434744.54343  23253266.6884                   23253266.6414
  -2128305.41047  -1631902.54444  22716024.9614                   22716024.3954
 -32300264.61348 -25084962.98446  21202073.6724                   21202071.3284
 -32849158.87148 -25570547.73046  20221181.6094                   20221180.3204
 -47255316.30547 -36794491.26245  21439203.2584                   21439199.9654
 -15298154.03547 -11877608.70045  21544824.4144                   21544824.3634
 -17057517.66848 -13248982.41946  21500322.9694                   21500324.1334
 11  8 21  2  5 30.0000000  0  8G26G10G29G12G05G02G30G25
   6033631.05546   4752724.85643  23767996.2274                   23767996.1844
 -31343623.78946 -24398126.41743  23262209.5164                   23262209.2814
  -2266154.20347  -1739317.10245  22689792.5004                   22689792.4104
 -32299964.07047 -25084728.79846  21202130.7814                   21202128.8134
 -32884685.98448 -25598231.18446  20214421.3134                   20214419.2584
 -47273655.21547 -36808781.32145  21435713.5164                   21435710.0314
 -15345964.27347 -11914863.41445  21535726.6724                   21535726.4534
 -17120487.41848 -13298049.71646  21488340.2504                   21488341.7854
 11  8 21  2  6  0.0000000  0  8G26G10G29G12G05G02G30G25
   5883552.73446   4635780.79343  23739436.7274                   23739437.1604
 -31296404.25046 -24361331.92843  23271195.3834                   23271194.5784
  -2403916.52746  -1846664.27244  22663577.6254                   22663577.1994
 -32299165.43047 -25084106.48746  21202282.6954                   21202280.9774
 -32919642.98448 -25625470.39446  20207769.0944                   20207767.6134
 -47291871.97747 -36822976.20545  21432247.1954                   21432243.6294
 -15393147.84047 -11951629.79945  21526747.9534                   21526747.2734
 -17182842.62148 -13346638.15646  21476474.2584                   21476475.7814
 11  8 21  2  6 30.0000000  0  8G26G10G29G12G05G02G30G25
   5733535.57046   4518884.34243  23710889.5554                   23710889.4224
 -31248961.84846 -24324363.82343  23280222.7974                   23280221.8554
  -2541591.35947  -1953943.28945  22637378.7734                   22637378.6214
 -32297871.74647 -25083098.43446  21202528.7814                   21202527.1684
 -32954032.21948 -25652267.19446  20201224.9694                   20201223.4104
 -47309967.62147 -36837076.70745  21428803.2274                   21428800.0744
 -15439706.23447 -11987909.04545  21517887.9064                   21517887.3554
 -17244584.03948 -13394748.33446  21464725.3674                   21464726.4964
 11  8 21  2  7  0.0000000  0  8G26G10G29G12G05G02G30G25
   7159009.89846   5629643.66843  23982148.6334                   23982149.0434
 -29625878.42646 -23059623.53143  23589085.0394                   23589085.2774
  -1103750.50847   -833547.73544  22910990.8134                   22910990.0434
 -30720663.09047 -23854104.68046  21502661.5634                   21502660.8954
 -31412431.98448 -24451020.23246  20494581.7344                   20494580.0984
 -45752519.47747 -35623480.74745  21725176.0234                   21725172.4024
 -13910216.78947 -10796099.06745  21808940.1174                   21808939.8674
 -15730287.68448 -12214777.10746  21752886.4774                   21752887.6134
 11  8 21  2  7 30.0000000  0  8G26G10G29G12G05G02G30G25
   7009126.52346   5512851.49243  23953626.8594                   23953626.1764
 -29577996.64546 -23022313.11343  23598196.8364                   23598196.2734
  -1241243.75047   -940685.22644  22884826.5634                   22884825.7974
 -30718384.37947 -23852329.07046  21503095.3444                   21503093.4734
 -31445688.45348 -24476934.35246  20488253.1884                   20488251.5434
 -45770371.92247 -35637391.74345  21721778.7734                   21721775.5514
 -13955526.30147 -10831405.16445  21800318.1334                   21800317.8164
 -15790800.52048 -12261929.94446  21741371.4144                   21741372.1604
 11  8 21  2  8  0.0000000  0  8G26G10G29G12G05G02G30G25
   6859311.73846   5396112.82343  23925117.8754                   23925117.9384
 -29529903.12946 -22984837.67743  23607348.1954                   23607347.8754
  -1378647.07047  -1047752.68944  22858679.7274                   22858678.9414
 -30715620.41847 -23850175.34146  21503621.0634                   21503620.0314
 -31478384.25848 -24502411.58246  20482031.2974                   20482029.4454
 -45788106.33247 -35651210.76245  21718403.8054                   21718400.7774
 -14000216.27347 -10866228.50045  21791814.4614                   21791813.1724
 -15850702.75848 -12308606.99446  21729972.0164                   21729973.4774
 11  8 21  2  8 30.0000000  0  8G26G10G29G12G05G02G30G25
   6709569.82446   5279430.87343  23896622.3134                   23896622.5944
 -29481599.86746 -22947198.71243  23616540.6644                   23616539.2504
  -1515957.87547  -1154748.03744  22832549.9614                   22832549.9304
 -30712372.71147 -23847644.66946  21504238.7894                   21504237.9344
 -31510519.60548 -24527452.10346  20475916.3444                   20475914.2194
 -45805722.15647 -35664937.38445  21715052.1024                   21715048.7734
 -14044286.75847 -10900569.12745  21783427.2974                   21783426.8554
 -15909993.68448 -12354807.69146  21718689.3134                   21718690.7664
 11  8 21  2  9  0.0000000  0  8G26G10G29G12G05G02G30G25
   6559904.71546   5162808.80843  23868142.5084                   23868141.8554
 -29433088.88746 -22909397.97443  23625772.1954                   23625770.8554
  -1653173.97347  -1261669.61345  22806438.7194                   22806438.3594
 -30708642.75047 -23844738.21646  21504949.0554                   21504947.5164
 -31542095.86348 -24552056.96246  20469907.5784                   20469905.4734
 -45823219.48847 -35678571.66445  21711721.9614                   21711719.3244
 -14087738.38347 -10934427.52945  21775159.2814                   21775158.5904
 -15968673.09848 -12400531.89146  21707523.2584                   21707524.7504
 11  8 21  2  9 30.0000000  0  8G26G10G29G12G05G02G30G25
   6410320.39546   5046249.67043  23839677.1564                   23839676.3984
 -29384372.08246 -22871436.88143  23635042.6954                   23635041.6844
  -1790292.55547  -1368515.19245  22780345.9304                   22780345.6174
 -30704432.34447 -23841457.38646  21505750.4844                   21505749.1454
 -31573113.44547 -24576226.49246  20464005.3984                   20464003.1484
 -45840597.31247 -35692112.86745  21708414.9384                   21708412.3164
 -14130571.41447 -10967803.89545  21767008.4774                   21767007.6334
 -16026740.34848 -12445779.08946  21696473.2894                   21696474.3444
 11  8 21  2 10  0.0000000  0  8G26G10G29G12G05G02G30G25
   6260817.45346   4929753.96043  23811227.8834                   23811227.8134
 -29335455.09046 -22833319.73643  23644351.3204                   23644350.2624
  -1927314.86747  -1475285.76545  22754271.6334                   22754270.7934
 -30699747.02347 -23837806.51146  21506642.2974                   21506641.0204
 -31603577.15648 -24599964.44546  20458208.4064                   20458206.2544
 -45857859.20747 -35705563.68745  21705130.4844                   21705127.5394
 -14172790.06247 -11000701.53845  21758974.6724                   21758973.5594
 -16084198.95748 -12490552.02946  21685539.5474                   21685540.8794
 11  8 21  2 10 30.0000000  0  8G26G10G29G12G05G02G30G25
   6111396.77746   4813322.40943  23782793.9774                   23782794.2544
 -29286343.16846 -22795050.73243  23653696.5864                   23653696.1524
  -2064241.60247  -1581981.88144  22728215.0234                   22728214.6994
 -30694591.47747 -23833789.20246  21507622.8594                   21507621.9574
 -31633490.85248 -24623273.80046  20452515.8134                   20452513.8404
 -45875007.77347 -35718926.21145  21701867.6954                   21701864.5204
 -14214397.90247 -11033123.21145  21751056.4534                   21751056.1994
 -16141051.58648 -12534852.76646  21674720.5474                   21674721.6484
 11  8 21  2 11  0.0000000  0  9G26G10G29G12G15G05G02G30G25
   5962060.65246   4696956.68043  23754376.4224                   23754375.9344
 -29237039.93746 -22756632.63343  23663078.8984                   23663078.8444
  -2201071.86747  -1688602.81945  22702177.4924                   22702176.4064
 -30688969.57047 -23829408.50246  21508693.0554                   21508691.4614
  15429187.87915                  24658579.938
 -31662857.26648 -24646156.71146  20446927.6414                   20446925.7934
 -45892044.27748 -35732201.42046  21698625.6174                   21698622.1994
 -14255397.12147 -11065070.66845  21743254.6254                   21743254.2544
 -16197299.70747 -12578682.46246  21664017.0084                   21664017.8364
 11  8 21  2 11 30.0000000  0  9G26G10G29G12G15G05G02G30G25
   5812802.40246   4580651.62444  23725973.1174                   23725972.9344
 -29187558.77346 -22718075.93543  23672494.7894                   23672494.9104
  -2337814.53147  -1795155.49844  22676156.0314                   22676154.6644
 -30682893.33647 -23824673.77946  21509849.1024                   21509847.8484
  15281214.24246  11935939.71152  24630421.5004                   24630422.0394
 -31691688.22348 -24668622.38046  20441440.7814                   20441439.2624
 -45908979.13347 -35745397.41045  21695403.0474                   21695400.0704
 -14295799.00848 -11096552.64245  21735566.2734                   21735566.1294
 -16252953.82848 -12622049.30746  21653426.7814                   21653427.9064
 11  8 21  2 12  0.0000000  0  9G26G10G29G12G15G05G02G30G25
   5663621.17246   4464406.61343  23697583.8984                   23697584.4534
 -29137906.60246 -22679385.93843  23681943.4614                   23681943.9964
  -2474471.82047  -1901641.66845  22650150.4534                   22650150.1294
 -30676370.14847 -23819590.78546  21511090.3524                   21511088.9654
  15133126.07846  11820546.61843  24602241.5234                   24602242.8284
 -31719989.36748 -24690675.21946  20436055.8754                   20436053.4184
 -45925816.57447 -35758517.53745  21692199.0234                   21692195.7584
 -14335609.06647 -11127573.46145  21727990.4924                   21727990.3444
 -16308018.53147 -12664956.87246  21642947.5634                   21642949.0394
 11  8 21  2 12 30.0000000  0  9G26G10G29G12G15G05G02G30G25
   5514527.24646   4348229.62843  23669212.0164                   23669212.5004
 -29088079.20746 -22640559.39643  23691426.2424                   23691424.7974
  -2611035.26647  -2008054.67545  22624163.2584                   22624163.0474
 -30669395.53947 -23814156.03146  21512417.5704                   21512416.3834
  14984932.55946  11705071.31043  24574040.8524                   24574041.8874
 -31747755.76648 -24712311.36146  20430771.7814                   20430770.1604
 -45942549.92647 -35771556.50345  21689014.4064                   21689011.3404
 -14374821.87947 -11158128.90945  21720529.0234                   21720528.1804
 -16362487.68048 -12707400.35546  21632582.9064                   21632583.7114
 11  8 21  2 13  0.0000000  0  9G26G10G29G12G15G05G02G30G25
   5365523.23846   4232122.65143  23640858.5634                   23640858.5784
 -29038080.17646 -22601599.13243  23700940.0394                   23700939.2424
  -2747503.52347  -2114393.54845  22598194.4384                   22598193.3634
 -30661972.35547 -23808371.73846  21513830.2584                   21513828.8674
  14836635.69946  11589515.51743  24545820.6884                   24545822.1994
 -31774989.54748 -24733532.48846  20425589.5704                   20425587.9024
 -45959180.66047 -35784515.52745  21685849.6644                   21685846.9454
 -14413439.41447 -11188220.47245  21713180.4774                   21713179.5474
 -16416362.32847 -12749380.60946  21622330.6484                   21622332.0084
 11  8 21  2 13 30.0000000  0  9G26G10G29G12G15G05G02G30G25
   5216611.30146   4116087.49643  23612521.3984                   23612521.1604
 -28987913.45346 -22562508.20743  23710486.7584                   23710485.1374
  -2883875.98847  -2220657.78145  22572243.7504                   22572242.7194
 -30654105.06247 -23802241.38046  21515327.2814                   21515326.1094
  14688236.48046  11473879.88643  24517581.2734                   24517583.1094
 -31801693.71947 -24754340.91446  20420507.7034                   20420505.7894
 -45975710.20347 -35797395.70245  21682704.7274                   21682700.9614
 -14451464.27347 -11217850.25745  21705944.0634                   21705943.2934
 -16469644.37947 -12790899.09046  21612191.1174                   21612192.4414
 11  8 21  2 14  0.0000000  0  9G26G10G29G12G15G05G02G30G25
   5067798.53946   4000129.55343  23584203.4224                   23584203.5514
 -28937578.20746 -22523285.96643  23720065.7114                   23720064.2854
  -3020147.43047  -2326843.25745  22546311.8204                   22546311.3834
 -30645792.18447 -23795763.82046  21516909.3674                   21516907.8984
  14539740.77346  11358169.14943  24489323.1484                   24489324.3794
 -31827866.83247 -24774735.55346  20415526.9614                   20415525.8284
 -45992134.72347 -35810194.04345  21679579.1334                   21679575.7384
 -14488894.37147 -11247016.57945  21698821.4384                   21698820.7584
 -16522330.85548 -12831953.49246  21602165.1724                   21602166.8324
 11  8 21  2 14 30.0000000  0  9G26G10G29G12G15G05G02G30G25
   4919088.10246   3884251.39043  23555904.9144                   23555904.1644
 -28887077.52346 -22483934.80443  23729674.3524                   23729674.1134
  -3156316.48047  -2432948.98944  22520400.0164                   22520399.6484
 -30637036.89547 -23788941.51246  21518575.1414                   21518573.8594
  14391151.07446  11242385.05943  24461048.1954                   24461048.4924
 -31853510.69547 -24794717.77946  20410647.2584                   20410645.8094
 -46008455.01248 -35822911.15845  21676473.5944                   21676469.9774
 -14525731.16847 -11275720.57045  21691811.8284                   21691811.0944
 -16574422.45747 -12872544.35546  21592253.0164                   21592254.0824
 11  8 21  2 15  0.0000000  0  9G26G10G29G12G15G05G02G30G25
   4770486.77346   3768458.22843  23527626.7344                   23527625.9344
 -28836410.71946 -22444454.14643  23739315.7584                   23739315.0824
  -3292377.97347  -2538970.89044  22494508.2734                   22494507.0634
 -30627838.23447 -23781773.72346  21520325.3674                   21520324.2194
  14242473.13346  11126532.29043  24432755.0314                   24432756.0514
 -31878624.07848 -24814286.64846  20405868.5634                   20405866.8554
 -46024667.57047 -35835544.32645  21673388.2034                   21673384.8094
 -14561972.78947 -11303960.81245  21684915.0164                   21684914.1804
 -16625916.44548 -12912669.54546  21582453.6484                   21582454.7974
 11  8 21  2 15 30.0000000  0  9G26G10G29G12G15G05G02G30G25
   4621997.66846   3652752.53943  23499369.7894                   23499370.1214
 -28785580.84046 -22404846.57843  23748988.7034                   23748988.5434
  -3428330.16447  -2644907.62345  22468637.5944                   22468636.6644
 -30618199.59447 -23774263.11346  21522159.6094                   21522158.6374
  14093708.89146  11010612.23243  24404446.2424                   24404447.2154
 -31903208.64548 -24833443.44846  20401190.0004                   20401188.5204
 -46040773.15247 -35848094.12145  21670323.2344                   21670320.2704
 -14597621.00047 -11331738.64145  21678131.7344                   21678130.5474
 -16676813.91848 -12952329.92246  21572768.6414                   21572769.9304
 11  8 21  2 16  0.0000000  0  9G26G10G29G12G15G05G02G30G25
   4473621.93846   3537135.12643  23471135.2894                   23471134.2934
 -28734592.98046 -22365115.78743  23758692.0474                   23758690.7344
  -3564173.51647  -2750759.54445  22442786.8834                   22442786.0084
 -30608125.67647 -23766413.30546  21524076.7894                   21524075.5514
  13944858.81646  10894625.38243  24376120.9454                   24376121.8484
 -31927268.39147 -24852191.29546  20396612.1884                   20396610.3164
 -46056774.44947 -35860562.67345  21667278.5314                   21667275.4534
 -14632679.44947 -11359056.89445  21671460.3834                   21671459.1484
 -16727117.60948 -12991527.61746  21563195.7584                   21563197.2974
 11  8 21  2 16 30.0000000  0  9G26G10G29G12G15G05G02G30G25
   4325365.84446   3421611.05443  23442922.5784                   23442922.3284
 -28683446.77046 -22325261.58043  23768424.6414                   23768424.6954
  -3699903.31647  -2856522.97645  22416958.4694                   22416957.9884
 -30597615.78547 -23758223.78646  21526076.4774                   21526075.1764
  13795928.32446  10778575.68643  24347779.5784                   24347781.3954
 -31950802.58247 -24870529.60246  20392133.2344                   20392131.6174
 -46072668.43747 -35872947.58145  21664253.5474                   21664250.5784
 -14667146.96547 -11385914.67745  21664901.2344                   21664900.3364
 -16776825.45348 -13030260.97946  21553737.2734                   21553737.7704
 11  8 21  2 17  0.0000000  0  9G26G10G29G12G15G05G02G30G25
   4177232.37546   3306182.47743  23414733.4454                   23414733.1334
 -28632145.73446 -22285286.80143  23778186.5394                   23778186.6484
  -3835518.39147  -2962197.01245  22391151.9694                   22391151.5634
 -30586673.25847 -23749697.15646  21528158.9534                   21528158.0354
  13646919.23846  10662464.85743  24319425.1954                   24319425.6724
 -31973813.37947 -24888460.09746  20387754.1644                   20387752.7274
 -46088456.05147 -35885249.61745  21661249.5164                   21661246.3444
 -14701025.50847 -11412313.56145  21658454.5864                   21658453.4844
 -16825938.81648 -13068531.14346  21544390.9304                   21544392.3754
 11  8 21  2 17 30.0000000  0  9G26G10G29G12G15G05G02G30G25
   4029227.60246   3190854.20343  23386568.9694                   23386568.5634
 -28580689.84446 -22245191.34143  23787978.6884                   23787978.6764
  -3971014.17647  -3067778.10045  22365367.8284                   22365367.4844
 -30575298.58647 -23740833.78445  21530323.5004                   21530322.1914
  13497837.15246  10546297.16643  24291054.2344                   24291055.4384
 -31996300.21547 -24905982.28046  20383475.0944                   20383473.9264
 -46104134.59847 -35897466.65945  21658265.8524                   21658262.6294
 -14734313.99248 -11438252.64745  21652119.9224                   21652119.1024
 -16874455.69948 -13106336.50446  21535158.7504                   21535159.8094
 11  8 21  2 18  0.0000000  0  9G26G10G29G12G15G05G02G30G25
   3881353.11346   3075627.39743  23358429.1254                   23358428.6994
 -28529083.62546 -22204978.70743  23797798.7114                   23797798.2894
  -4106390.69547  -3173266.25145  22339606.2274                   22339606.2154
 -30563496.36747 -23731637.25645  21532569.6024                   21532568.5234
  13348682.11746  10430072.68042  24262671.4064                   24262672.0704
 -32018266.28948 -24923098.69146  20379295.4534                   20379293.6134
 -46119706.27047 -35909600.41945  21655302.7114                   21655299.7274
 -14767015.76647 -11463734.54345  21645897.2034                   21645895.8484
 -16922378.68047 -13143679.08946  21526038.9694                   21526040.7194
 11  8 21  2 18 30.0000000  0  9G26G10G29G12G15G05G02G30G25
   3733612.19546   2960504.70143  23330315.2034                   23330315.0664
 -28477329.76646 -22164651.06643  23807647.9384                   23807646.8794
  -4241646.18447  -3278660.09245  22313868.1724                   22313867.5594
 -30551269.36347 -23722109.73846  21534896.3444                   21534894.9574
  13199456.44946  10313793.12942  24234273.7584                   24234273.7734
 -32039714.01647 -24939811.19246  20375213.8984                   20375212.5204
 -46135171.29347 -35921651.06745  21652359.9614                   21652356.4224
 -14799132.75047 -11488760.76645  21639785.2034                   21639784.5514
 -16969708.93047 -13180559.80046  21517032.2734                   21517033.6914
 11  8 21  2 19  0.0000000  0  9G26G10G29G12G15G05G02G30G25
   3586009.19546   2845489.46943  23302226.9454                   23302226.9454
 -28425430.04346 -22124209.75743  23817523.8364                   23817522.9614
  -4376777.70747  -3383957.37045  22288153.8134                   22288152.9224
 -30538618.92247 -23712252.26246  21537303.4614                   21537302.4384
  13050163.94945  10197461.52742  24205865.6644                   24205864.3984
 -32060644.60247 -24956120.73146  20371231.0634                   20371229.6334
 -46150528.94547 -35933618.08745  21649437.4774                   21649434.0434
 -14830665.65248 -11513331.87245  21633784.7114                   21633784.0824
 -17016446.20347 -13216978.47046  21508138.2194                   21508139.7704
 11  8 21  2 19 30.0000000  0  9G26G10G29G12G15G05G02G30G25
   3438549.42246   2730585.82143  23274166.1024                   23274166.3984
 -28373385.86346 -22083655.84643  23827427.8134                   23827426.2074
  -4511781.96947  -3489155.44445  22262462.7814                   22262462.3914
 -30525546.35547 -23702065.85246  21539791.3834                   21539789.8714
  12900808.76646  10081081.08843  24177443.6724                   24177443.2194
 -32081058.19147 -24972027.40546  20367346.3134                   20367345.0164
 -46165777.84847 -35945500.32945  21646535.4694                   21646532.2934
 -14861614.44547 -11537447.80345  21627895.3524                   21627894.6024
 -17062589.78947 -13252934.50746  21499357.5944                   21499358.6884
 11  8 21  2 20  0.0000000  0  9G26G10G29G12G15G05G02G30G25
   3291231.65247   2615792.81944  23246132.6254                   23246132.7734
 -28321204.34846 -22042994.95742  23837357.3134                   23837356.3834
  -4646661.82447  -3594256.57545  22236796.6334                   22236795.3594
 -30512059.47347 -23691556.61745  21542357.8984                   21542356.4224
  12751388.89146   9964650.18143  24149010.0704                   24149009.1644
 -32100961.23847 -24987536.26046  20363558.8914                   20363557.2934
 -46180922.64547 -35957301.47645  21643654.0634                   21643650.1804
 -14891985.39847 -11561113.49245  21622116.1174                   21622115.2774
 -17108145.12948 -13288432.17946  21490688.9614                   21490689.8674
 11  8 21  2 20 30.0000000  0  9G26G10G29G12G15G05G02G30G25
   3144059.14146   2501112.99943  23218126.5864                   23218126.5474
 -28268888.37546 -22002229.26242  23847312.4064                   23847311.6134
  -4781415.25447  -3699259.20845  22211153.4924                   22211153.1954
 -30498160.82047 -23680726.50645  21545002.1564                   21545001.2894
  12601906.57446   9848170.64243  24120564.1644                   24120564.2464
 -32120355.98448 -25002649.03546  20359868.4384                   20359866.4574
 -46195963.66047 -35969021.72745  21640791.7584                   21640788.0824
 -14921780.35947 -11584330.36945  21616446.0944                   21616445.3794
 -17153113.33647 -13323472.34246  21482131.4534                   21482132.4734
 11  8 21  2 21  0.0000000  0  9G26G10G29G12G15G05G02G30G25
   2997039.16846   2386552.05743  23190149.6484                   23190149.8364
 -28216436.94546 -21961358.01242  23857293.5474                   23857292.4454
  -4916036.71547  -3804158.99445  22185536.0944                   22185535.5944
 -30483849.73447 -23669575.03845  21547725.5554                   21547724.5394
  12452368.03546   9731647.25843  24092108.0314                   24092108.5634
 -32139240.61748 -25017364.32746  20356274.5314                   20356273.0124
 -46210897.27047 -35980658.31245  21637949.7194                   21637946.2464
 -14950997.54347 -11607097.01245  21610886.7114                   21610885.5354
 -17197491.73447 -13358052.90746  21473686.5554                   21473688.0394
 11  8 21  2 21 30.0000000  0  9G26G10G29G12G15G05G02G30G25
   4425596.74246   3499713.83843  23461995.1254                   23461995.3554
 -26588437.68446 -20692787.12942  24167090.8284                   24167090.5204
  -3475103.14547  -2681353.54945  22459736.1804                   22459735.7704
 -28893712.59847 -22430507.13246  21850318.5864                   21850317.4924
  13878197.37546  10842683.27643  24363434.3674                   24363434.3794
 -30582200.17648 -23804086.05046  20652569.4924                   20652567.9184
 -44650306.50047 -34764613.54145  21934920.0474                   21934917.2814
 -13404221.04347 -10401816.63045  21905227.7974                   21905227.4614
 -15665863.16047 -12164576.10146  21765145.8134                   21765146.4574
 11  8 21  2 22  0.0000000  0  9G26G10G29G12G15G05G02G30G25
   4278883.79746   3385392.15443  23434076.2734                   23434076.6804
 -26535731.79346 -20651717.61843  24177120.5394                   24177121.0594
  -3609463.35547  -2786049.76845  22434168.3834                   22434167.4614
 -28878592.94947 -22418725.60445  21853195.7974                   21853194.8834
  13728545.75446  10726071.76543  24334956.4224                   24334956.5354
 -30600079.32048 -23818017.85146  20649167.0704                   20649165.5164
 -44665034.33247 -34776089.78245  21932117.8054                   21932114.4964
 -13432296.19947 -10423693.39145  21899885.6954                   21899884.8714
 -15709073.22347 -12198246.27746  21756923.5394                   21756924.1214
 11  8 21  2 22 30.0000000  0  9G26G10G29G12G15G05G02G30G25
   4132331.28946   3271195.44644  23406189.2034                   23406188.2424
 -26482900.81646 -20610550.70443  24187174.4694                   24187175.3674
  -3743688.51247  -2890640.74045  22408626.2974                   22408625.8754
 -28863071.47347 -22406630.96945  21856149.2194                   21856148.4144
  13578842.93846  10609420.33844  24306468.2424                   24306469.2934
 -30617456.75847 -23831558.68946  20645860.2274                   20645858.7274
 -44679657.80947 -34787484.69845  21929334.5164                   21929331.2934
 -13459801.36747 -10445125.99945  21894651.5704                   21894650.5744
 -15751698.95348 -12231461.13346  21748811.6644                   21748812.8984
 11  8 21  2 23  0.0000000  0  9G26G10G29G12G15G05G02G30G25
   3985943.27746   3157126.95044  23378331.5864                   23378331.6214
 -26429947.07846 -20569287.98343  24197251.5864                   24197251.6764
  -3877776.14147  -2995124.53445  22383110.0944                   22383110.1414
 -28847151.14847 -22394225.53745  21859179.6724                   21859177.5824
  13429091.99246  10492731.42043  24277971.6564                   24277972.4104
 -30634334.31648 -23844710.02746  20642648.6884                   20642646.6994
 -44694176.34847 -34798797.84345  21926571.8284                   21926568.7704
 -13486738.00047 -10466115.58745  21889525.4694                   21889525.2234
 -15793740.93448 -12264221.12946  21740811.2734                   21740812.6174
 11  8 21  2 23 30.0000000  0  9G26G10G29G12G15G05G02G30G25
   3839722.96146   3043189.07244  23350506.9534                   23350506.5044
 -26376873.20746 -20527931.75943  24207351.5704                   24207350.7624
  -4011724.41047  -3099499.74945  22357620.4224                   22357619.5984
 -28830834.71547 -22381511.44345  21862283.9694                   21862282.9614
  13279295.68846  10376007.12443  24249466.2034                   24249466.6174
 -30650714.28548 -23857473.63246  20639531.7814                   20639529.6524
 -44708590.41847 -34810029.58645  21923828.9384                   21923825.8094
 -13513108.11747 -10486663.74845  21884508.1094                   21884506.7304
 -15835200.52048 -12296527.29346  21732922.1024                   21732922.8674
 11  8 21  2 24  0.0000000  0  9G26G10G29G12G15G05G02G30G25
   3693671.37146   2929382.75944  23322714.4534                   23322714.1914
 -26323684.21146 -20486485.87443  24217473.0474                   24217472.6294
  -4145534.05147  -3203766.92945  22332157.1954                   22332156.4884
 -28814126.81247 -22368492.32745  21865463.5164                   21865462.4454
  13129453.96946  10259247.43443  24220952.8834                   24220953.0554
 -30666600.96947 -23869852.84346  20636508.3204                   20636506.6994
 -44722902.54747 -34821181.89445  21921105.4844                   21921102.2344
 -13538915.90247 -10506773.71145  21879596.5944                   21879595.5164
 -15876081.12148 -12328382.30446  21725142.7814                   21725143.7504
 11  8 21  2 24 30.0000000  0  9G26G10G29G12G15G05G02G30G25
   3547792.54746   2815711.01144  23294954.6174                   23294953.6524
 -26270382.62946 -20444952.14643  24227616.5864                   24227614.5744
  -4279202.61347  -3307924.18145  22306721.3284                   22306720.4964
 -28797030.67247 -22355170.65846  21868716.5634                   21868715.4414
  12979569.89146  10142454.73643  24192430.8914                   24192431.1884
 -30681996.23847 -23881849.14046  20633578.5864                   20633577.1054
 -44737112.41847 -34832254.52545  21918401.8054                   21918398.7344
 -13564163.03947 -10526446.81945  21874792.0004                   21874791.5394
 -15916383.57048 -12359786.81046  21717473.8754                   21717474.8284
 11  8 21  2 25  0.0000000  0  9G26G10G29G12G15G05G02G30G25
   3402090.94146   2702177.35344  23267228.6174                   23267228.3244
 -26216969.96546 -20403331.84543  24237779.6414                   24237778.5124
  -4412726.94947  -3411969.06145  22281312.2034                   22281311.5084
 -28779548.16847 -22341547.94146  21872043.9304                   21872042.4844
  12829647.00846  10025631.88344  24163901.0084                   24163901.3134
 -30696901.11347 -23893463.32146  20630742.6414                   20630740.8134
 -44751219.20347 -34843246.81445  21915717.0394                   21915714.1804
 -13588850.42647 -10545683.74645  21870094.6254                   21870093.7154
 -15956108.02348 -12390740.94146  21709914.2504                   21709915.5164
 11  8 21  2 25 30.0000000  0  9G26G10G29G12G15G05G02G30G25
   3256571.94146   2588785.98644  23239537.0944                   23239536.1214
 -26163446.91046 -20361625.69542  24247964.6484                   24247963.2934
  -4546103.63347  -3515898.87645  22255931.4694                   22255930.7274
 -28761680.25847 -22327624.90245  21875444.0394                   21875442.9064
  12679689.67646   9908782.12543  24135364.3134                   24135365.1994
 -30711316.16847 -23904695.81946  20627999.6724                   20627997.5904
 -44765221.15247 -34854157.41445  21913052.7734                   21913049.4144
 -13612978.27347 -10564484.66345  21865502.9614                   21865502.5084
 -15995253.92648 -12421244.23546  21702465.1254                   21702466.2114
 11  8 21  2 26  0.0000000  0  9G26G10G29G12G15G05G02G30G25
   3111238.33246   2475539.07844  23211880.6414                   23211880.3914
 -26109816.97746 -20319836.14443  24258169.3364                   24258168.7624
  -4679331.18447  -3619712.48045  22230578.8754                   22230578.0354
 -28743430.23047 -22313404.09445  21878916.5634                   21878915.1804
  12529700.11746   9791907.30143  24106822.2504                   24106823.2584
 -30725244.40247 -23915548.97846  20625349.0234                   20625347.2424
 -44779119.07447 -34864986.95745  21910407.8754                   21910404.7194
 -13636549.17647 -10582851.60645  21861017.6564                   21861016.9064
 -16033823.12148 -12451298.16346  21695125.4224                   21695126.4574
 11  8 21  2 26 30.0000000  0  9G26G10G29G12G15G05G02G30G25
   2966091.75846   2362437.90044  23184260.1804                   23184259.5984
 -26056084.35946 -20277966.59343  24268394.4614                   24268394.8714
  -4812409.32047  -3723409.65945  22205254.5704                   22205253.9884
 -28724803.21547 -22298889.54446  21882461.1484                   21882460.1414
  12379678.92246   9675007.78643  24078274.9844                   24078274.8014
 -30738689.02347 -23926025.30646  20622790.6724                   20622788.9064
 -44792914.69947 -34875736.81245  21907782.9144                   21907779.9304
 -13659566.87147 -10600787.46745  21856637.7194                   21856636.7814
 -16071818.53948 -12480904.98046  21687895.4064                   21687896.2734
 11  8 21  2 27  0.0000000  0  9G26G10G29G12G15G05G02G30G25
   2821135.73046   2249485.17944  23156675.9144                   23156675.9304
 -26002251.76645 -20236019.17642  24278638.0634                   24278639.3204
  -4945336.07047  -3826988.88145  22179959.4774                   22179958.7304
 -28705802.01647 -22284083.41245  21886077.2584                   21886075.7274
  12229628.65246   9558085.55643  24049721.0084                   24049720.6214
 -30751652.39147 -23936126.62046  20620324.1564                   20620321.8324
 -44806608.06247 -34886406.95045  21905177.1094                   21905174.0164
 -13682033.50847 -10618293.94245  21852362.2664                   21852361.6454
 -16109241.62148 -12510065.81546  21680773.9844                   21680775.0824
 11  8 21  2 27 30.0000000  0  9G26G10G29G12G15G05G02G30G25
   2676374.21946   2136684.07344  23129128.5394                   23129128.1644
 -25948321.47746 -20193995.62142  24288902.0004                   24288901.8754
  -5078109.70347  -3930448.79045  22154693.6564                   22154692.4924
 -28686429.36347 -22268987.84745  21889763.6724                   21889762.7584
  12079552.50046   9441143.14643  24021162.2734                   24021161.6454
 -30764136.60547 -23945854.56746  20617948.4144                   20617946.6484
 -44820199.38347 -34896997.58245  21902590.8134                   21902587.3444
 -13703951.04347 -10635372.52145  21848191.6094                   21848190.3404
 -16146093.47748 -12538781.55546  21673761.0554                   21673762.4454
 11  8 21  2 28  0.0000000  0  9G26G10G29G12G15G05G02G30G25
   2531812.62146   2024038.80444  23101619.8834                   23101618.8954
 -25894293.85246 -20151896.14142  24299183.3284                   24299182.4264
  -5210725.75447  -4033785.92145  22129457.5554                   22129456.6604
 -28666686.03947 -22253603.43846  21893520.6484                   21893519.5314
  11929454.81346   9324183.99743  23992599.6484                   23992599.3524
 -30776141.83647 -23955209.27446  20615663.3754                   20615661.8914
 -44833686.51647 -34907507.02245  21900024.3754                   21900020.8794
 -13725319.32447 -10652023.10345  21844125.2894                   21844124.3244
 -16182373.22348 -12567051.47046  21666857.0004                   21666858.6454
 11  8 21  2 28 30.0000000  0  9G26G10G29G12G15G05G02G30G25
   2387454.84847   1911552.29144  23074149.4924                   23074148.4964
 -25840171.26646 -20109722.73543  24309482.8914                   24309482.2734
  -5343182.02347  -4136998.56245  22104252.2114                   22104251.6994
 -28646574.87147 -22237932.40445  21897347.9224                   21897346.5634
  11779338.83246   9207210.58543  23964033.3594                   23964032.9454
 -30787670.12547 -23964192.34946  20613469.8754                   20613468.0474
 -44847069.03947 -34917934.94245  21897477.5864                   21897474.3524
 -13746140.25447 -10668247.21145  21840163.2344                   21840162.4804
 -16218081.98448 -12594876.48046  21660061.9694                   21660063.4264
 11  8 21  2 29  0.0000000  0  9G26G10G29G12G15G05G02G30G25
   2243302.07846   1799225.53244  23046717.9924                   23046717.3634
 -25785958.74246 -20067479.20343  24319799.0554                   24319798.9844
  -5475479.10247  -4240087.13845  22079077.1564                   22079076.1954
 -28626101.09047 -22221978.81045  21901243.5944                   21901242.0474
  11629204.88746   9090223.15243  23935463.9534                   23935463.8524
 -30798725.73047 -23972807.10146  20611366.1804                   20611364.5234
 -44860349.16847 -34928283.09545  21894950.6174                   21894947.2854
 -13766418.16047 -10684048.16645  21836304.3594                   21836303.5474
 -16253223.48048 -12622259.45645  21653374.8914                   21653376.0124
 11  8 21  2 29 30.0000000  0  9G26G10G29G12G15G05G02G30G25
   2099358.16846   1687061.49944  23019326.1644                   23019325.3914
 -25731658.00846 -20025166.93143  24330132.3284                   24330131.6804
  -5607614.05147  -4343049.37445  22053932.3284                   22053931.4104
 -28605266.88747 -22205744.36645  21905208.1884                   21905206.9264
  11479056.02347   8973224.12743  23906892.0554                   23906891.0044
 -30809310.62948 -23981055.06646  20609351.6334                   20609349.7704
 -44873526.93747 -34938551.47245  21892443.3054                   21892439.8054
 -13786154.78947 -10699427.34245  21832548.6024                   21832548.1524
 -16287798.53548 -12649201.03945  21646795.6414                   21646796.6564
 11  8 21  2 30  0.0000000  0  9G26G10G29G12G15G05G02G30G25
   1955628.60247   1575064.51544  22991975.0474                   22991974.7854
 -25677269.91446 -19982786.63343  24340481.3444                   24340482.0084
  -5739583.12947  -4445882.36145  22028819.6094                   22028818.5744
 -28584073.38747 -22189229.96245  21909241.6334                   21909240.0864
  11328896.69147   8856216.95643  23878317.6564                   23878316.2464
 -30819424.93048 -23988936.34046  20607427.0474                   20607425.4344
 -44886600.65647 -34948738.77645  21889955.2974                   21889951.6604
 -13805350.46947 -10714384.99645  21828895.6644                   21828894.6954
 -16321806.77348 -12675700.94845  21640323.6174                   21640324.7704
 11  8 21  2 30 30.0000000  0  9G26G10G29G12G15G05G02G30G25
   1812113.32046   1463234.48144  22964664.8674                   22964664.4304
 -25622801.07846 -19940343.37142  24350846.1564                   24350846.0204
  -5871388.06247  -4548587.47045  22003737.6954                   22003736.7584
 -28562528.10247 -22172441.45245  21913341.2974                   21913340.1724
  11178725.78947   8739200.72944  23849740.4694                   23849739.5434
 -30829074.74248 -23996455.66946  20605590.7424                   20605589.2624
 -44899573.71547 -34958847.65945  21887485.9614                   21887483.2504
 -13824011.27747 -10728925.86345  21825344.6094                   21825343.6684
 -16355253.53147 -12701763.35945  21633959.2034                   21633960.4964
 11  8 21  2 31  0.0000000  0  9G26G10G29G12G15G05G02G30G25
   1668818.33647   1351576.14344  22937396.8524                   22937396.3714
 -25568251.19546 -19897836.96942  24361225.7424                   24361225.6724
  -6003024.43747  -4651161.22145  21978687.8524                   21978687.0354
 -28540631.08247 -22155378.86745  21917508.6334                   21917506.5044
  11028548.89146   8622179.91743  23821161.8754                   23821162.6524
 -30838260.14147 -24003613.11346  20603842.6484                   20603841.2274
 -44912443.44547 -34968876.00645  21885037.2584                   21885034.5744
 -13842136.64547 -10743049.51445  21821895.3284                   21821894.8754
 -16388137.55148 -12727387.25946  21627701.0864                   21627702.7154
 11  8 21  2 31 30.0000000  0  9G26G10G29G12G15G05G02G30G25
   1525750.00847   1240094.38644  22910171.7734                   22910171.1684
 -25513620.14845 -19855267.36342  24371622.5084                   24371621.4184
  -6134487.35947  -4753599.82645  21953671.7894                   21953670.5164
 -28518382.66447 -22138042.46545  21921742.0864                   21921741.3554
  10878371.17246   8505158.40343  23792584.6254                   23792584.6914
 -30846980.85247 -24010408.46046  20602183.2344                   20602181.6294
 -44925207.69147 -34978822.17145  21882608.3754                   21882605.2424
 -13859726.24247 -10756755.68645  21818548.6414                   21818547.3914
 -16420457.68448 -12752571.75746  21621551.1174                   21621552.5904
 11  8 21  2 32  0.0000000  0  9G26G10G29G12G15G05G02G30G25
   1382905.80147   1128787.30244  22882989.0314                   22882988.9654
 -25458916.26646 -19812641.02342  24382032.4384                   24382031.6334
  -6265780.59047  -4855906.18545  21928687.2344                   21928686.4384
 -28495791.28547 -22120438.80545  21926040.9614                   21926040.0164
  10728189.86346   8388134.08244  23764006.0704                   23764006.2974
 -30855244.17647 -24016847.39746  20600610.5474                   20600609.1134
 -44937871.88347 -34988690.35945  21880198.0084                   21880195.2154
 -13876788.08247 -10770050.61045  21815301.4384                   21815300.9654
 -16452221.25448 -12777322.58146  21615506.7034                   21615507.8754
 11  8 21  2 32 30.0000000  0  9G26G10G29G12G15G05G02G30G25
   1240293.22747   1017660.67244  22855851.5004                   22855850.9924
 -25404138.41845 -19769957.06242  24392456.0864                   24392455.1414
  -6396898.43747  -4958075.89945  21903736.0944                   21903734.8094
 -28472856.54747 -22102567.59345  21930405.4844                   21930403.9844
  10578010.93446   8271111.66844  23735427.5234                   23735428.4064
 -30863048.82047 -24022928.92646  20599125.3754                   20599123.8244
 -44950432.33247 -34998477.72445  21877808.4534                   21877804.8834
 -13893320.69947 -10782933.16845  21812155.3914                   21812154.6644
 -16483426.07448 -12801638.02046  21609569.0084                   21609569.7504
 11  8 21  2 33  0.0000000  0  9G26G10G29G12G15G05G02G30G25
   1097916.48847    906717.80744  22828757.6804                   22828756.8554
 -25349288.00845 -19727216.49642  24402894.3284                   24402894.1024
  -6527838.22347  -5060106.86345  21878819.5554                   21878818.0004
 -28449581.03147 -22084430.86045  21934834.2734                   21934833.3634
  10427837.82446   8154093.78543  23706850.6884                   23706850.7704
 -30870396.67648 -24028654.51646  20597727.1954                   20597725.7154
 -44962888.32047 -35008183.69345  21875437.8284                   21875434.5354
 -13909325.76647 -10795404.63145  21809109.9694                   21809109.4024
 -16514073.05948 -12825518.77546  21603737.0004                   21603737.9384
 11  8 21  2 33 30.0000000  0  9G26G10G29G12G15G05G02G30G25
    955777.57847    795960.25644  22801709.3754                   22801709.1294
 -25294369.13346 -19684422.64842  24413345.5784                   24413344.3834
  -6658598.93747  -5161998.29445  21853936.7034                   21853935.4344
 -28425968.96147 -22066031.88245  21939327.3054                   21939326.2154
  10277672.02746   8037081.58544  23678274.3754                   23678274.5044
 -30877291.46147 -24034027.06946  20596415.5164                   20596413.4144
 -44975241.40247 -35017809.46245  21873087.0084                   21873083.4024
 -13924806.98447 -10807467.91045  21806163.9064                   21806162.9654
 -16544165.18448 -12848967.19546  21598010.6174                   21598011.6414
 11  8 21  2 34  0.0000000  0  9G26G10G29G12G15G05G02G30G25
    813879.53147    685390.42444  22774707.1804                   22774706.9304
 -25239384.80545 -19641577.75442  24423809.1564                   24423808.4024
  -6789179.68447  -5263749.47445  21829087.5004                   21829086.5354
 -28402023.89547 -22047373.40545  21943884.4304                   21943883.3204
  10127515.82046   7920076.85644  23649701.3594                   23649701.1294
 -30883736.24648 -24039048.98146  20595188.6804                   20595187.0864
 -44987492.12547 -35027355.48645  21870756.1954                   21870751.8954
 -13939767.25847 -10819125.25545  21803316.6884                   21803315.9694
 -16573704.67248 -12871984.96346  21592389.4774                   21592390.3244
 11  8 21  2 34 30.0000000  0 10G26G10G29G12G15G05G02G30G25G21
    672227.21147    575012.06044  22747751.3364                   22747751.0004
 -25184336.16446 -19598682.79243  24434283.7814                   24434284.1414
  -6919576.60547  -5365357.44245  21804274.1954                   21804272.6454
 -28377747.52047 -22028456.75845  21948504.1174                   21948502.7894
   9977373.06346   7803082.60844  23621129.7034                   23621130.1954
 -30889731.99648 -24043720.98346  20594048.0864                   20594046.3594
 -44999639.52747 -35036821.00845  21868444.3284                   21868440.8164
 -13954207.74247 -10830377.58045  21800569.0314                   21800568.6174
 -16602691.91048 -12894572.43346  21586873.5704                   21586874.3164
  17198028.41416                  25055948.750
 11  8 21  2 35  0.0000000  0 10G26G10G29G12G15G05G02G30G25G21
    530816.79747    464822.19544  22720842.0084                   22720841.6684
 -25129233.21146 -19555745.45743  24444768.7734                   24444769.7584
  -7049795.21947  -5466826.44845  21779493.9224                   21779492.7154
 -28353150.73447 -22009290.44745  21953184.6094                   21953184.1914
   9827239.08647   7686095.21144  23592560.1724                   23592559.6684
 -30895288.40648 -24048050.64146  20592990.8524                   20592988.8714
 -45011690.57447 -35046211.41745  21866150.8834                   21866146.9494
 -13968138.26647 -10841232.52345  21797918.2734                   21797917.6524
 -16631136.02748 -12916736.67446  21581460.9224                   21581461.6454
  17088244.379 6                  25035057.969
 11  8 21  2 35 30.0000000  0  9G26G29G12G15G05G02G30G25G21
    389646.00847    354819.03744  22693978.0314                   22693977.6884
  -7179839.73847  -5568159.79545  21754747.2034                   21754746.3634
 -28328242.20747 -21989881.22845  21957924.8054                   21957923.4844
   9677110.83646   7569112.24844  23563992.2584                   23563991.7344
 -30900413.48448 -24052044.19646  20592015.2814                   20592013.5864
 -45023651.12147 -35055531.33845  21863875.0554                   21863871.4064
 -13981567.04747 -10851696.50545  21795362.6254                   21795361.9964
 -16659044.47348 -12938483.52146  21576149.7734                   21576151.0204
  16978475.375 5                  25014168.508
 11  8 21  2 36  0.0000000  0  9G26G29G12G15G05G02G30G25G21
   1824139.49647   1472606.25944  22966952.5314                   22966952.4384
  -5734287.06247  -4441755.07545  22029826.6174                   22029826.2074
 -26727609.63347 -20742635.06845  22262514.9924                   22262513.7934
  11102412.25047   8679736.82244  23835217.7274                   23835217.0744
 -29329693.35948 -22828106.44146  20890913.5944                   20890911.7704
 -43460104.54747 -33837183.35645  22161408.5004                   22161404.4344
 -12419079.74247  -9634173.94845  22092694.2114                   22092692.9774
 -15111001.80148 -11732216.50446  21870732.4384                   21870733.8284
  18444140.879 5                  25293075.602
 11  8 21  2 36 30.0000000  0  9G26G29G12G15G05G02G30G25G21
   1683462.15647   1362987.58344  22940182.6254                   22940182.4304
  -5863972.36347  -4542808.51545  22005148.5314                   22005147.1994
 -26702083.25447 -20722744.40545  22267372.6884                   22267371.3914
  10952307.27046   8562772.02044  23806653.1644                   23806653.0274
 -29333959.61748 -22831430.78846  20890101.9304                   20890099.7234
 -43471880.61747 -33846359.50445  22159167.5084                   22159163.4184
 -12431508.53947  -9643858.71245  22090328.8914                   22090328.5824
 -15137840.44548 -11753129.73846  21865625.0234                   21865626.3984
  18334403.598 5                  25272192.672
 11  8 21  2 37  0.0000000  0  9G26G29G12G15G05G02G30G25G21
   1543051.34047   1253576.62744  22913463.6484                   22913463.0354
  -5993460.70347  -4643708.49545  21980507.7974                   21980506.3284
 -26676237.96947 -20702605.22045  22272290.3914                   22272289.3134
  10802232.30547   8445830.55344  23778095.1804                   23778093.9144
 -29337785.86747 -22834412.28246  20889373.6484                   20889371.7974
 -43483549.88347 -33855452.44545  22156946.6334                   22156942.7114
 -12443426.64847  -9653145.56445  22088061.3054                   22088060.7194
 -15164132.41848 -11773616.98146  21860622.1884                   21860623.1884
  18224695.227 5                  25251316.055
 11  8 21  2 37 30.0000000  0  9G26G29G12G15G05G02G30G25G21
   1402911.51247   1144376.82844  22886795.7584                   22886795.1374
  -6122749.02747  -4744452.59345  21955904.7344                   21955903.8714
 -26650076.15247 -20682219.38645  22277269.2894                   22277268.3914
  10652191.47346   8328915.70444  23749543.2584                   23749542.3554
 -29341173.24247 -22837051.79646  20888728.9224                   20888727.4924
 -43495111.47747 -33864461.48645  22154746.6174                   22154743.1254
 -12454835.57447  -9662035.65045  22085890.3594                   22085888.8134
 -15189878.60548 -11793678.93946  21855722.7114                   21855723.8914
  18115016.01246  14136848.82553  25230445.0864                   25230443.5594
 11  8 21  2 38  0.0000000  0  9G26G29G12G15G05G02G30G25G21
   1263047.22347   1035391.71744  22860180.1414                   22860180.4304
  -6251834.04747  -4845038.28145  21931340.8364                   21931339.3054
 -26623600.23047 -20661588.80445  22282307.4924                   22282305.8674
  10502188.38747   8212030.27344  23720998.2894                   23720998.0354
 -29344123.36348 -22839350.57746  20888167.4384                   20888165.9024
 -43506564.38347 -33873385.82345  22152567.7344                   22152564.1174
 -12465736.82847  -9670530.14345  22083815.7974                   22083814.3364
 -15215079.72347 -11813316.16746  21850926.8444                   21850928.1884
  18005366.43446  14051407.58642  25209579.9924                   25209578.9454
 11  8 21  2 38 30.0000000  0  9G26G29G12G15G05G02G30G25G21
   1123457.89547    926620.87044  22833617.3364                   22833616.4024
  -6380717.81647  -4945467.14745  21906815.1334                   21906813.8364
 -26596817.18747 -20640718.90845  22287403.8284                   22287402.7734
  10352221.77046   8095173.24244  23692460.6334                   23692460.0944
 -29346642.93047 -22841313.87846  20887688.0864                   20887686.5864
 -43517912.56247 -33882228.54745  22150407.5004                   22150404.3754
 -12476137.13747  -9678634.30845  22081836.4774                   22081835.4924
 -15239741.82847 -11832533.40146  21846233.9144                   21846235.5314
  17895741.36346  13965985.71743  25188718.4384                   25188717.8324
 11  8 21  2 39  0.0000000  0  9G26G29G12G15G05G02G30G25G21
    984152.70747    818071.44144  22807108.8674                   22807108.3014
  -6509392.84847  -5045733.36645  21882329.1094                   21882327.8874
 -26569724.19147 -20619607.48045  22292559.3594                   22292558.7304
  10202300.09846   7978351.27744  23663931.2974                   23663930.4844
 -29348728.18747 -22842938.75046  20887291.3284                   20887289.4184
 -43529150.39847 -33890985.30145  22148269.0864                   22148265.9264
 -12486033.24247  -9686345.57445  22079953.2974                   22079952.5044
 -15263860.97748 -11851327.52546  21841644.1804                   21841645.2814
  17786146.14546  13880586.88643  25167862.4614                   25167863.0474
 11  8 21  2 39 30.0000000  0  9G26G29G12G15G05G02G30G25G21
    845132.33247    709743.90644  22780653.8204                   22780652.8324
  -6637859.54747  -5145837.24645  21857882.2344                   21857881.3404
 -26542327.40247 -20598259.34945  22297772.5004                   22297771.9844
  10052423.09846   7861564.07544  23635410.8834                   23635410.0124
 -29350384.79747 -22844229.62746  20886975.9304                   20886974.2194
 -43540280.52347 -33899658.13345  22146150.9694                   22146148.2544
 -12495430.69547  -9693668.27845  22078165.2344                   22078163.9414
 -15287442.06647 -11869702.41046  21837156.7894                   21837158.2154
  17676577.12946  13795208.53443  25147012.0474                   25147012.0514
 11  8 21  2 40  0.0000000  0  9G26G29G12G15G05G02G30G25G21
    706399.09847    601640.14044  22754253.3364                   22754253.0394
  -6766117.27747  -5245778.28345  21833476.1254                   21833475.1094
 -26514631.30947 -20576677.99145  22303043.4144                   22303041.6134
   9902592.34846   7744812.91244  23606898.8364                   23606898.1914
 -29351616.44147 -22845189.33546  20886741.6724                   20886739.9844
 -43551304.37147 -33908248.14145  22144053.3914                   22144050.5394
 -12504333.26647  -9700605.34945  22076470.7894                   22076469.6954
 -15310488.17647 -11887660.40646  21832771.6644                   21832772.8134
  17567032.24646  13709849.02443  25126166.4774                   25126166.6884
 11  8 21  2 40 30.0000000  0  9G26G29G12G15G05G02G30G25G21
    567952.93847    493760.05744  22727908.0004                   22727907.2304
  -6894167.39547  -5345557.55645  21809108.5394                   21809107.8324
 -26486642.52747 -20554868.53245  22308369.2114                   22308367.8594
   9752807.02046   7628097.16044  23578395.6884                   23578394.5984
 -29352429.10947 -22845822.58746  20886587.0864                   20886585.5164
 -43562225.28547 -33916757.95945  22141974.8364                   22141972.5594
 -12512747.11347  -9707161.59945  22074869.8054                   22074868.6884
 -15333004.81648 -11905205.83746  21828486.8914                   21828487.7034
  17457507.10946  13624504.84843  25105325.0314                   25105324.5164
 11  8 21  2 41  0.0000000  0  9G26G29G12G15G05G02G30G25G21
    429798.05547    386106.95644  22701618.1414                   22701617.3874
  -7022007.04347  -5445172.81645  21784781.2504                   21784780.3094
 -26458363.87147 -20532833.22945  22313750.4534                   22313748.9574
   9603070.89846   7511419.75944  23549901.4064                   23549900.7704
 -29352824.48447 -22846130.66546  20886511.5704                   20886509.7424
 -43573043.03547 -33925187.35345  22139916.8594                   22139913.2624
 -12520674.16847  -9713338.53345  22073361.4064                   22073360.8674
 -15354993.25447 -11922339.66346  21824302.4064                   21824303.1884
  17348001.52746  13539175.88443  25084486.0784                   25084485.9344
 11  8 21  2 41 30.0000000  0  9G26G29G12G15G05G02G30G25G21
    291937.31647    278683.04244  22675383.8364                   22675383.3874
  -7149634.69947  -5544622.89545  21760495.0314                   21760493.7304
 -26429798.92247 -20510574.84145  22319186.6884                   22319185.0164
   9453385.91846   7394782.17244  23521417.4144                   23521417.1884
 -29352806.08647 -22846116.32646  20886515.1644                   20886513.5944
 -43583757.77347 -33933536.51645  22137877.4844                   22137874.0904
 -12528117.78947  -9719138.77745  22071945.5474                   22071944.1174
 -15376456.19148 -11939064.03346  21820218.2194                   21820219.1374
  17238514.39146  13453861.34643  25063651.8754                   25063651.4574
 11  8 21  2 42  0.0000000  0  9G26G29G12G15G05G02G30G25G21
    154379.73047    171495.37244  22649207.8444                   22649206.6334
  -7277043.31247  -5643902.29446  21736249.9614                   21736248.5164
 -26400945.27047 -20488091.49645  22324676.9304                   22324675.7544
   9303760.35846   7278190.97544  23492944.7344                   23492944.5664
 -29352370.86347 -22845777.19046  20886597.8914                   20886595.9064
 -43594363.82447 -33941800.98045  22135859.6174                   22135856.0824
 -12535075.26247  -9724560.17345  22070621.2424                   22070620.2154
 -15397390.22348 -11955376.26146  21816234.6484                   21816235.5354
  17129050.18446  13368564.60243  25042822.0474                   25042821.2664
 11  8 21  2 42 30.0000000  0  9G26G29G12G15G05G02G30G25G21
     17120.84047     64540.43644  22623088.1024                   22623087.4884
  -7404238.21547  -5743015.16145  21712045.1024                   21712044.2034
 -26371814.21947 -20465391.98245  22330220.5864                   22330219.4184
   9154189.38746   7161642.20244  23464482.2424                   23464481.5984
 -29351528.92647 -22845121.14546  20886758.1644                   20886756.7624
 -43604869.37547 -33949987.10645  22133860.3914                   22133857.4304
 -12541557.19147  -9729611.02545  22069387.5314                   22069386.5354
 -15417805.27048 -11971284.08146  21812349.4694                   21812351.0204
  17019600.72346  13283279.40943  25021993.9144                   25021994.1644
 11  8 21  2 43  0.0000000  0  9G26G29G12G15G05G02G30G25G21
   -119828.96547    -42173.64144  22597027.2974                   22597026.5904
  -7531210.50447  -5841954.57745  21687883.4064                   21687882.0204
 -26342402.11347 -20442473.48145  22335817.3674                   22335816.1054
   9004682.19546   7045143.17144  23436031.3754                   23436030.9844
 -29350275.81647 -22844144.70146  20886996.3984                   20886995.2424
 -43615267.43047 -33958089.47245  22131881.8984                   22131878.6954
 -12547559.35947  -9734288.03245  22068245.1884                   22068244.9414
 -15437696.53948 -11986783.78146  21808564.2734                   21808565.2664
  16910171.51646  13198010.02543  25001169.8914                   25001170.1094
 11  8 21  2 43 30.0000000  0  9G26G29G12G15G05G02G30G25G21
   -256469.55547   -148646.77944  22571025.5554                   22571024.6884
  -7657961.41047  -5940721.47445  21663763.3754                   21663762.0204
 -26312715.48047 -20419341.03445  22341466.5314                   22341465.4654
   8855238.51646   6928693.61544  23407594.0554                   23407592.8444
 -29348618.11747 -22842852.99046  20887312.3834                   20887310.6684
 -43625561.07047 -33966110.48845  22129922.7584                   22129920.2504
 -12553087.80547  -9738595.90745  22067193.6884                   22067193.2154
 -15457069.39148 -12001879.51146  21804877.9694                   21804878.8714
  16800758.98846  13112753.53543  24980349.0704                   24980348.8524
 11  8 21  2 44  0.0000000  0  9G26G29G12G15G05G02G30G25G21
   -392792.92247   -254872.73844  22545083.7814                   22545083.4184
  -7784484.41047  -6039310.79445  21639686.7974                   21639685.6914
 -26282753.07847 -20395993.75245  22347168.1414                   22347166.7384
   8705865.40646   6812299.08444  23379168.7274                   23379167.8404
 -29346553.55148 -22841244.23546  20887705.3054                   20887703.2974
 -43635745.94147 -33974046.74745  22127984.8134                   22127982.0554
 -12558140.94947  -9742533.44345  22066232.2424                   22066231.1884
 -15475921.67248 -12016569.60545  21801290.5314                   21801291.8444
  16691366.13346  13027512.40943  24959532.1644                   24959532.0474
 11  8 21  2 44 30.0000000  0  9G26G29G12G15G05G02G30G25G21
   -528801.43747   -360853.34844  22519202.7274                   22519201.6684
  -7910782.95347  -6137725.22246  21615653.1254                   21615651.8954
 -26252523.30147 -20372438.09845  22352920.9064                   22352919.8014
   8556560.13746   6695957.42444  23350756.3674                   23350756.2194
 -29344090.21948 -22839324.76446  20888174.0944                   20888171.8874
 -43645827.66047 -33981902.64045  22126066.1174                   22126062.9964
 -12562727.18447  -9746107.12845  22065358.6954                   22065358.3554
 -15494261.03148 -12030860.01446  21797800.5704                   21797801.9104
  16581987.27046  12942282.22342  24938717.7034                   24938717.7774
 11  8 21  2 45  0.0000000  0  9G26G29G12G15G05G02G30G25G21
   -664486.22347   -466581.71544  22493382.4694                   22493381.8714
  -8036850.09447  -6235959.33945  21591663.2974                   21591662.1294
 -26222025.12547 -20348673.29845  22358725.0944                   22358723.8364
   8407330.31647   6579674.51744  23322359.1334                   23322357.7774
 -29341225.91448 -22837092.83646  20888719.1334                   20888717.4344
 -43655801.37947 -33989674.39345  22124168.4384                   22124164.5394
 -12566844.20347  -9749315.21245  22064575.4844                   22064574.6804
 -15512084.62548 -12044748.54645  21794408.9304                   21794409.8094
  16472626.16046  12857065.93043  24917907.5784                   24917907.1484
 11  8 21  2 45 30.0000000  0  9G26G29G12G15G05G02G30G25G21
   -799843.82447   -572055.12144  22467624.9534                   22467623.9694
  -8162683.34847  -6334011.18745  21567717.5634                   21567717.0044
 -26191261.51647 -20324701.65645  22364578.7274                   22364578.1524
   8258179.29347   6463453.01544  23293976.8524                   23293975.8594
 -29337962.69948 -22834550.05546  20889340.1414                   20889338.2384
 -43665666.32847 -33997361.35845  22122290.7814                   22122287.0084
 -12570494.65647  -9752159.72445  22063881.0554                   22063880.2854
 -15529394.41448 -12058236.71145  21791115.0164                   21791116.0554
  16363282.37546  12771863.03942  24897099.8364                   24897099.3364
 11  8 21  2 46  0.0000000  0  9G26G29G12G15G05G02G30G25G21
   -934871.54747   -677271.47544  22441929.9614                   22441928.7974
  -8288281.37147  -6431879.74646  21543817.1174                   21543816.2934
 -26160236.33647 -20300526.20645  22370482.1484                   22370481.8954
   8109109.07046   6347294.47944  23265609.3134                   23265608.9184
 -29334303.98848 -22831699.11746  20890036.5234                   20890034.5044
 -43675423.41447 -34004964.30545  22120434.6174                   22120429.8984
 -12573682.13347  -9754643.47445  22063274.1564                   22063273.4844
 -15546193.42648 -12071326.85346  21787918.2344                   21787919.3524
  16253954.91446  12686672.89542  24876295.7504                   24876294.0314
 11  8 21  2 46 30.0000000  0  9G26G29G12G15G05G02G30G25G21
  -1069567.04747   -782228.97844  22416298.2034                   22416296.7234
  -8413642.77748  -6529563.92846  21519961.2424                   21519960.3284
 -26128953.56647 -20276150.04945  22376435.4304                   22376434.2704
   7960121.57846   6231200.39544  23237257.9454                   23237256.9654
 -29330253.46947 -22828542.87246  20890806.9534                   20890805.3674
 -43685073.52747 -34012483.87545  22118597.9144                   22118594.0514
 -12576410.33247  -9756769.36845  22062755.2034                   22062754.4454
 -15562484.70348 -12084021.38346  21784818.0634                   21784819.2704
  16144641.56646  12601493.78542  24855493.9534                   24855492.1914
 11  8 21  2 47  0.0000000  0  9G26G29G12G15G05G02G30G25G21
  -1203927.88347   -886925.68644  22390730.1174                   22390729.2304
  -8538766.85947  -6627063.18746  21496151.2274                   21496150.4574
 -26097417.37547 -20251576.41445  22382436.4064                   22382435.5084
   7811218.28546   6115171.95343  23208922.9224                   23208921.4414
 -29325815.05148 -22825084.36146  20891651.5314                   20891649.4534
 -43694618.03147 -34019921.14445  22116781.6884                   22116778.1954
 -12578683.48447  -9758540.64845  22062322.5234                   22062322.3984
 -15578271.93047 -12096323.12645  21781813.9614                   21781815.5274
  16035340.25546  12516324.00842  24834694.7974                   24834692.4924
 11  8 21  2 47 30.0000000  0  9G26G29G12G15G05G02G30G25G21
  -1337951.57047   -991359.68044  22365225.5004                   22365225.1374
  -8663652.51648  -6724376.64946  21472385.7424                   21472385.1524
 -26065632.57447 -20226809.03545  22388485.4614                   22388484.0824
   7662400.80946   5999210.36744  23180602.8134                   23180601.9494
 -29320992.23047 -22821326.30746  20892569.3134                   20892567.1374
 -43704057.66047 -34027276.71945  22114985.3524                   22114981.4144
 -12580505.50447  -9759960.42445  22061976.0634                   22061975.2074
 -15593558.30547 -12108234.60446  21778904.9454                   21778906.1294
  15926049.29746  12431162.30542  24813897.2274                   24813895.0204
 11  8 21  2 48  0.0000000  0  9G26G29G12G15G05G02G30G25G21
  -1471633.68747  -1095527.51945  22339787.6564                   22339786.6604
  -8788296.60248  -6821501.87646  21448667.2424                   21448666.3054
 -26033601.03947 -20201849.40845  22394580.8134                   22394579.4064
   7513673.12946   5883318.73244  23152300.8674                   23152300.3364
 -29315786.52747 -22817269.91046  20893559.4924                   20893557.6724
 -43713391.29747 -34034549.69645  22113209.2504                   22113205.3914
 -12581877.96947  -9761029.86244  22061714.9774                   22061713.4454
 -15608344.91447 -12119756.64846  21776090.9694                   21776092.5944
  15816769.41846  12346009.25842  24793100.7114                   24793100.2734
 11  8 21  2 48 30.0000000  0  9G26G29G12G15G05G02G30G25G21
  -1604969.07447  -1199425.19044  22314414.5314                   22314413.2584
  -8912695.21947  -6918435.83646  21424995.1484                   21424993.7704
 -26001324.64147 -20176698.97045  22400722.3834                   22400721.4384
   7365039.89146   5767500.66044  23124017.8594                   23124016.4344
 -29310198.99647 -22812915.96946  20894622.8364                   20894621.1844
 -43722617.20347 -34041738.72445  22111453.9694                   22111450.2934
 -12582802.39847  -9761750.21844  22061538.9144                   22061537.8554
 -15622632.58248 -12130889.90046  21773372.1484                   21773374.0354
  15707500.86746  12260865.04742  24772307.9614                   24772306.9264
 11  8 21  2 49  0.0000000  0  9G26G29G12G15G05G02G30G25G21
  -1737954.93747  -1303050.50044  22289107.5944                   22289107.1604
  -9036846.91848  -7015177.38146  21401369.8364                   21401368.4844
 -25968807.23447 -20151360.75145  22406910.1334                   22406909.5394
   7216503.66846   5651758.25544  23095751.4454                   23095751.4064
 -29304232.34447 -22808266.63746  20895758.1024                   20895756.9064
 -43731735.73047 -34048844.07145  22109718.9774                   22109715.1954
 -12583282.16447  -9762124.08945  22061447.5634                   22061447.1644
 -15636424.14547 -12141636.60546  21770747.8524                   21770749.2704
  15598242.53146  12175728.74242  24751516.7034                   24751515.6374
 11  8 21  2 49 30.0000000  0  9G26G29G12G15G05G02G30G25G21
  -1870588.24647  -1406401.08944  22263868.4454                   22263867.4924
  -9160749.92247  -7111725.15146  21377791.8364                   21377790.9844
 -25936052.16047 -20125837.35645  22413143.6564                   22413142.4774
   7068066.47346   5536092.97044  23067505.2814                   23067504.3914
 -29297890.13747 -22803324.66146  20896965.2424                   20896963.5164
 -43740747.32447 -34055866.10745  22108004.2274                   22108000.1414
 -12583320.65647  -9762154.09245  22061440.5234                   22061439.0274
 -15649722.34447 -12151998.83646  21768216.9304                   21768218.9264
  15488993.81346  12090599.99642  24730727.4064                   24730726.4384
 11  8 21  2 50  0.0000000  0  9G26G29G12G15G05G02G30G25G21
  -2002865.48447  -1509474.21845  22238697.2504                   22238696.3834
  -9284401.94147  -7208077.32946  21354261.3984                   21354260.4344
 -25903062.95347 -20100131.49245  22419421.2274                   22419419.6054
   6919731.10247   5420507.02144  23039278.1724                   23039276.8484
 -29291174.97747 -22798092.08646  20898243.1884                   20898241.4414
 -43749651.77347 -34062804.63345  22106309.5704                   22106306.3244
 -12582920.87547  -9761842.55745  22061516.5314                   22061515.3634
 -15662529.67648 -12161978.59145  21765780.3524                   21765782.0984
  15379753.16046  12005477.53943  24709939.8444                   24709939.3094
 11  8 21  2 50 30.0000000  0  9G26G29G12G15G05G02G30G25G21
  -2134783.09047  -1612267.11244  22213594.0944                   22213593.1214
  -9407800.57847  -7304232.06546  21330779.5554                   21330778.2544
 -25869842.65647 -20074245.53445  22425742.7424                   22425741.4024
   6771501.02347   5305003.13244  23011070.8364                   23011069.9384
 -29284088.92647 -22792570.48046  20899591.6254                   20899589.9574
 -43758448.71547 -34069659.39445  22104635.0784                   22104632.1844
 -12582085.30147  -9761191.47645  22061675.7664                   22061674.7344
 -15674848.04348 -12171577.32246  21763436.0084                   21763437.7304
  15270520.37946  11920361.19942  24689153.7114                   24689152.9774
 11  8 21  2 51  0.0000000  0  9G26G29G12G15G05G02G30G25G21
   -690912.57847   -487173.15544  22488353.2034                   22488352.2464
  -7955519.24648  -6172584.23446  21607139.8134                   21607138.1334
 -24260974.84847 -18820582.34445  22731900.0394                   22731898.7384
   8198804.09446   6417187.42744  23282677.3834                   23282676.9884
 -27701214.47747 -21559161.82146  21200802.2664                   21200800.5984
 -42191717.50047 -32848829.87745  22402774.2664                   22402770.5904
 -11005396.62947  -8532602.88745  22361709.2114                   22361708.0234
 -14111259.07448 -10953196.34546  22060977.4304                   22060978.4654
  16736719.00846  13062853.73842  24968161.5554                   24968159.9614
 11  8 21  2 51 30.0000000  0  9G26G29G12G15G05G02G30G25G21
   -822097.27347   -589394.94344  22463389.6804                   22463388.9534
  -8078401.68047  -6268336.73346  21583755.5864                   21583754.6524
 -24227298.66047 -18794341.17645  22738308.6254                   22738307.1684
   8050795.39147   6301856.01544  23254512.0784                   23254511.0554
 -27693391.85247 -21553066.29146  21202291.3054                   21202289.5124
 -42200296.31647 -32855514.66145  22401141.9774                   22401138.4414
 -11003695.60947  -8531277.40645  22362032.3834                   22362032.2114
 -14122603.87548 -10962036.45745  22058818.7814                   22058819.5634
  16627502.94146  12977750.41043  24947378.4144                   24947377.0664
 11  8 21  2 52  0.0000000  0  9G26G29G12G15G05G02G30G25G21
   -952907.57047   -691325.00345  22438497.5634                   22438496.4144
  -8201020.05948  -6363883.47546  21560422.1884                   21560420.8674
 -24193396.68047 -18767924.07045  22744760.0314                   22744758.5554
   7902904.91047   6186616.77144  23226369.2734                   23226367.8404
 -27685201.86748 -21546684.50346  21203849.6724                   21203848.2034
 -42208762.85947 -32862111.99345  22399530.5164                   22399527.0234
 -11001563.43447  -8529615.97944  22362438.6644                   22362437.9024
 -14133462.53548 -10970497.76445  22056752.4064                   22056753.8094
  16518297.35546  12892655.27943  24926596.9694                   24926596.6294
 11  8 21  2 52 30.0000000  0  9G26G29G12G15G05G02G30G25G21
  -1083340.94547   -792961.35345  22413676.9534                   22413675.4694
  -8323372.92647  -6459223.32946  21537139.1804                   21537137.9414
 -24159272.69147 -18741333.98145  22751253.7194                   22751251.8754
   7755134.63347   6071471.12744  23198249.7034                   23198248.3164
 -27676648.21548 -21540019.31446  21205477.4924                   21205475.8444
 -42217117.83647 -32868622.35145  22397940.3594                   22397937.5664
 -10999003.94147  -8527621.55845  22362925.3754                   22362925.0434
 -14143838.53548 -10978582.96145  22054777.5944                   22054778.4344
  16409100.18446  12807566.78643  24905817.5394                   24905817.2854
 11  8 21  2 53  0.0000000  0  9G26G29G12G15G05G02G30G25G21
  -1213396.81647   -894303.56645  22388927.7894                   22388927.1414
  -8445460.69547  -6554356.60046  21513906.7584                   21513905.5084
 -24124933.09047 -18714575.86445  22757788.4384                   22757787.0984
   7607484.60246   5956419.18644  23170152.4064                   23170152.1484
 -27667736.18748 -21533074.90046  21207173.2814                   21207171.9224
 -42225364.23447 -32875048.11645  22396371.5634                   22396368.1484
 -10996023.01247  -8525298.75845  22363493.3364                   22363492.4344
 -14153737.02348 -10986296.08145  22052894.0864                   22052895.1454
  16299907.83246  12722481.96143  24885038.5554                   24885037.8594
 11  8 21  2 53 30.0000000  0  9G26G29G12G15G05G02G30G25G21
  -1343073.73447   -995350.44445  22364251.4224                   22364250.2234
  -8567283.39547  -6649283.34346  21490724.6094                   21490723.5204
 -24090383.33647 -18687653.98845  22764362.4774                   22764361.1684
   7459955.57046   5841461.57444  23142078.5164                   23142077.9804
 -27658470.62148 -21525854.98246  21208936.5634                   21208934.7664
 -42233503.65647 -32881390.51945  22394822.0784                   22394819.0084
 -10992625.82047  -8522651.61645  22364139.7194                   22364138.7274
 -14163162.75447 -10993640.81545  22051100.4304                   22051101.6174
  16190717.99646  12637399.04743  24864260.9694                   24864259.2034
 11  8 21  2 54  0.0000000  0  9G26G29G12G15G05G02G30G25G21
  -1472365.90247  -1096097.53645  22339647.6564                   22339646.1914
  -8688836.68447  -6744000.14646  21467593.3594                   21467592.2234
 -24055624.07847 -18660568.88244  22770977.2424                   22770975.8324
   7312552.66446   5726602.19144  23114029.7194                   23114027.4534
 -27648851.69147 -21518359.71846  21210767.1484                   21210765.2664
 -42241533.71147 -32887647.70145  22393293.8524                   22393291.4964
 -10988812.86347  -8519680.46845  22364865.2584                   22364864.3674
 -14172115.62548 -11000617.08945  22049396.8754                   22049397.7734
  16081531.76246  12552319.00043  24843482.9304                   24843482.6484
 11  8 21  2 54 30.0000000  0  9G26G29G12G15G05G02G30G25G21
  -1601267.61747  -1196540.38045  22315118.0634                   22315117.6334
  -8810115.84447  -6838503.35246  21444515.3204                   21444513.7894
 -24020656.19547 -18633321.19945  22777630.6884                   22777629.8594
   7165281.33246   5611845.31444  23086004.1954                   23086002.5554
 -27638879.43748 -21510589.14346  21212664.5004                   21212663.0204
 -42249451.57047 -32893817.48845  22391787.8134                   22391784.7504
 -10984584.81647  -8516385.91645  22365669.8524                   22365668.5314
 -14180595.77748 -11007224.99645  22047782.8674                   22047784.1134
  15972351.16046  12467243.38243  24822705.9144                   24822705.8204
 11  8 21  2 55  0.0000000  0  9G26G29G12G15G05G02G30G25G21
  -1729774.55147  -1296675.63145  22290664.4694                   22290663.4774
  -8931117.64147  -6932790.42446  21421488.9064                   21421487.8204
 -23985482.09847 -18605912.83245  22784324.7194                   22784323.9574
   7018145.39847   5497193.97044  23058004.9064                   23058003.8094
 -27628555.85547 -21502544.78946  21214629.2734                   21214627.4574
 -42257256.38347 -32899899.15645  22390302.6334                   22390299.1374
 -10979943.86347  -8512769.59145  22366553.1334                   22366552.5124
 -14188604.84448 -11013465.82645  22046258.7894                   22046260.3324
  15863176.27746  12382172.13043  24801930.7664                   24801930.4804
 11  8 21  2 55 30.0000000  0  9G26G29G12G15G05G02G30G25G21
  -1857886.18747  -1396502.81945  22266285.7034                   22266284.4414
  -9051842.38347  -7026861.61046  21398516.0704                   21398515.0314
 -23950107.56647 -18578348.27745  22791056.2344                   22791055.5984
   6871145.28947   5382648.46744  23030031.9614                   23030031.3014
 -27617886.27347 -21494230.82746  21216659.3444                   21216657.9104
 -42264950.73047 -32905894.72945  22388838.6804                   22388835.6334
 -10974895.87147  -8508836.09544  22367513.5314                   22367513.1294
 -14196148.12148 -11019343.68445  22044823.8054                   22044824.5904
  15754003.87946  12297102.85543  24781156.7344                   24781155.3204
 11  8 21  2 56  0.0000000  0  9G26G29G12G15G05G02G30G25G21
  -1985596.28947  -1496017.13445  22241983.1414                   22241981.8324
  -9172285.92247  -7120713.68046  21375596.4694                   21375594.8674
 -23914533.27347 -18550628.07444  22797825.4774                   22797824.9924
   6724286.33247   5268212.97045  23002085.4064                   23002084.7114
 -27606870.79747 -21485647.34946  21218755.6484                   21218754.4224
 -42272531.88347 -32911802.11945  22387396.1024                   22387392.7194
 -10969441.02047  -8504585.59344  22368551.5864                   22368550.8364
 -14203225.48447 -11024858.51745  22043476.7344                   22043478.1214
  15644835.84046  12212037.04443  24760382.2114                   24760382.2234
 11  8 21  2 56 30.0000000  0 10G26G18G29G12G15G05G02G30G25G21
  -2112906.95747  -1595220.21345  22217756.5164                   22217755.3404
  20309674.75056  15833422.20352  24698943.5944                   24698941.8754
  -9292451.13347  -7214348.88046  21352729.4304                   21352728.1454
 -23878768.02347 -18522759.06044  22804631.6564                   22804629.9304
   6577565.89847   5153885.38544  22974165.5314                   22974164.4574
 -27595517.03547 -21476800.26046  21220916.3134                   21220914.9414
 -42280004.80947 -32917625.16045  22385973.5634                   22385970.1684
 -10963588.02047  -8500024.84044  22369665.0704                   22369664.4454
 -14209844.96947 -11030016.57046  22042216.6884                   22042218.4344
  15535665.93046  12126969.72843  24739607.8204                   24739607.0514
 11  8 21  2 57  0.0000000  0 10G26G18G29G12G15G05G02G30G25G21
  -2239817.70747  -1694111.65745  22193605.8834                   22193604.6564
  20167239.65245  15722433.96142  24671839.5004                   24671838.3714
  -9412338.50847  -7307767.58546  21329915.7584                   21329914.4104
 -23842817.78547 -18494745.92045  22811472.5784                   22811471.5124
   6430984.27047   5039665.99545  22946272.4614                   22946271.0164
 -27583830.65648 -21467694.00246  21223140.4924                   21223138.2814
 -42287372.25447 -32923366.03145  22384571.8204                   22384568.4574
 -10957342.65247  -8495158.31044  22370853.2814                   22370852.8674
 -14216011.88748 -11034821.93346  22041043.5394                   22041044.6684
  15426490.93046  12041898.42643  24718832.1334                   24718830.8164
 11  8 21  2 57 30.0000000  0 10G26G18G29G12G15G05G02G30G25G21
  -2366330.73047  -1792693.18545  22169531.5554                   22169530.4104
  20024975.66845  15611579.03942  24644767.5084                   24644767.0004
  -9531951.52747  -7400972.51046  21307153.5944                   21307152.6724
 -23806691.42647 -18466595.53044  22818347.3204                   22818345.8554
   6284538.69547   4925552.60245  22918404.1884                   22918403.1804
 -27571820.16448 -21458335.17246  21225425.6414                   21225423.6024
 -42294639.53547 -32929028.82545  22383188.7814                   22383185.2974
 -10950713.70747  -8489992.92344  22372114.2114                   22372114.1884
 -14221734.44147 -11039281.07246  22039954.7974                   22039956.1174
  15317304.25446  11956818.06043  24698054.6484                   24698054.6254
 11  8 21  2 58  0.0000000  0 10G26G18G29G12G15G05G02G30G25G21
  -2492439.87147  -1890960.00945  22145533.6804                   22145532.4844
  19882886.77045  15500860.62542  24617726.9144                   24617729.3404
  -9651285.18747  -7493959.75446  21284445.5234                   21284444.3674
 -23770389.18447 -18438308.08845  22825255.8134                   22825254.4384
   6138234.91047   4811549.71244  22890563.3054                   22890562.2154
 -27559485.19548 -21448723.51646  21227772.8204                   21227771.0704
 -42301803.86747 -32934611.42645  22381824.7344                   22381822.1174
 -10943701.50047  -8484528.87044  22373449.5784                   22373448.6174
 -14227012.56647 -11043393.90646  22038950.4534                   22038951.6604
  15208108.05146  11871730.28343  24677274.9064                   24677274.5204
 11  8 21  2 58 30.0000000  0 10G26G18G29G12G15G05G02G30G25G21
  -2618145.08247  -1988912.09045  22121612.9384                   22121612.1094
  19740971.02346  15390277.02042  24590722.2664                   24590723.0864
  -9770340.22747  -7586729.88246  21261790.1334                   21261788.9064
 -23733917.94547 -18409888.95444  22832195.8364                   22832194.7034
   5992072.87547   4697657.26345  22862749.7114                   22862748.9964
 -27546831.60548 -21438863.58446  21230180.6884                   21230178.8244
 -42308868.13747 -32940116.04545  22380481.0234                   22380478.2114
 -10936312.31647  -8478771.07244  22374855.9304                   22374854.4264
 -14231851.99247 -11047164.88246  22038029.3444                   22038030.1484
  15098898.39146  11786631.94743  24656493.0784                   24656492.2894
 11  8 21  2 59  0.0000000  0 10G26G18G29G12G15G05G02G30G25G21
  -2743435.79747  -2086541.17545  22097770.6644                   22097769.5274
  19599236.43846  15279834.73643  24563751.9454                   24563751.5554
  -9889107.69548  -7679275.93546  21239189.1804                   21239188.2504
 -23697273.85247 -18381335.13744  22839169.7194                   22839167.9774
   5846062.25847   4583882.83944  22834964.9304                   22834964.1954
 -27533854.99647 -21428751.95046  21232649.9304                   21232648.3204
 -42315825.29747 -32945537.20845  22379157.0084                   22379154.7074
 -10928542.24647  -8472716.47444  22376334.6484                   22376332.8834
 -14236248.38347 -11050590.63845  22037192.8054                   22037193.7774
  14989681.77046  11701528.21943  24635709.2114                   24635708.3914
 11  8 21  2 59 30.0000000  0 10G26G18G29G12G15G05G02G30G25G21
  -2868311.87547  -2183847.16445  22074007.0704                   22074006.4104
  19457681.03946  15169531.91643  24536815.1174                   24536813.3834
 -10007588.20747  -7771598.40246  21216643.1094                   21216641.6414
 -23660462.98847 -18352651.38945  22846174.2344                   22846173.0784
   5700202.69547   4470226.10544  22807208.2344                   22807208.3284
 -27520560.89847 -21418392.92146  21235179.9774                   21235177.9494
 -42322677.79747 -32950876.83245  22377853.2664                   22377850.4104
 -10920397.46147  -8466369.91445  22377884.1884                   22377883.1174
 -14240207.35947 -11053675.55345  22036439.2584                   22036440.8094
  14880454.35946  11616416.06343  24614924.1334                   24614923.4264
 11  8 21  3  0  0.0000000  0 10G26G18G29G12G15G05G02G30G25G21
  -2992767.26647  -2280825.35945  22050324.5704                   22050323.1214
  19316308.93846  15059371.96542  24509912.9534                   24509912.1294
 -10125777.00447  -7863693.53646  21194152.9774                   21194151.2344
 -23623485.56247 -18323837.80345  22853210.6334                   22853209.1024
   5554500.48847   4356691.96644  22779481.9534                   22779481.6054
 -27506949.59848 -21407786.71046  21237770.0864                   21237768.7154
 -42329423.09047 -32956132.91745  22376569.6884                   22376566.6294
 -10911878.38747  -8459731.68644  22379505.5164                   22379503.6884
 -14243728.94947 -11056419.64845  22035768.9454                   22035770.2234
  14771218.23046  11531297.13243  24594136.8524                   24594136.8874
 11  8 21  3  0 30.0000000  0 10G26G18G29G12G15G05G02G30G25G21
  -3116799.48847  -2377473.80945  22026721.6484                   22026720.8404
  19175120.03946  14949354.78142  24483045.3834                   24483043.8054
 -10243672.66847  -7955560.26846  21171718.1884                   21171716.5904
 -23586346.14847 -18294898.01344  22860277.8984                   22860276.7584
   5408957.57047   4243281.95344  22751786.1804                   22751785.8794
 -27493024.12548 -21396935.68246  21240419.9384                   21240418.6524
 -42336061.58647 -32961305.76945  22375306.7424                   22375303.4534
 -10902988.95747  -8452804.89645  22381197.1024                   22381196.0514
 -14246816.56247 -11058825.58945  22035181.2114                   22035182.7974
  14661972.02746  11446170.28143  24573348.3594                   24573347.1484
 11  8 21  3  1  0.0000000  0 10G26G18G29G12G15G05G02G30G25G21
  -3240401.82047  -2473787.27745  22003201.1414                   22003199.7504
  19034119.21546  14839484.16842  24456213.4304                   24456212.0944
 -10361269.67647  -8047194.27046  21149339.8754                   21149338.6724
 -23549044.28947 -18265831.66345  22867376.3594                   22867375.0084
   5263580.16047   4130000.90444  22724121.6414                   22724121.2034
 -27478783.86347 -21385839.38146  21243129.9384                   21243128.8674
 -42342589.46547 -32966392.41745  22374065.0784                   22374061.4024
 -10893729.02347  -8445589.35844  22382959.4304                   22382958.3164
 -14249469.58647 -11060892.88145  22034676.6484                   22034678.4144
  14552718.44946  11361037.78643  24552558.0554                   24552556.9184
 11  8 21  3  1 30.0000000  0 10G26G18G29G12G15G05G02G30G25G21
  -3363571.61747  -2569763.70145  21979762.3914                   21979761.5634
  18893306.56646  14729760.12142  24429417.0554                   24429415.5124
 -10478566.16447  -8138594.10546  21127018.9144                   21127017.4804
 -23511583.93047 -18236641.80045  22874504.6094                   22874504.3954
   5118370.66047   4016850.71344  22696490.1334                   22696488.6174
 -27464232.28148 -21374500.47546  21245898.7504                   21245897.1484
 -42349007.41047 -32971393.41145  22372843.0084                   22372839.9144
 -10884102.34047  -8438088.05745  22384791.2034                   22384790.0274
 -14251691.33247 -11062624.13945  22034253.6174                   22034255.6804
  14443456.10246  11275898.39243  24531766.3524                   24531763.6804
 11  8 21  3  2  0.0000000  0 10G26G18G29G12G15G05G02G30G25G21
  -3486306.52047  -2665401.27045  21956406.7894                   21956405.5704
  18752682.12546  14620182.80542  24402656.7664                   24402655.3204
 -10595561.16047  -8229759.01146  21104755.1724                   21104753.7854
 -23473969.44947 -18207331.81645  22881662.1094                   22881662.0904
   4973331.07447   3903832.89545  22668889.3054                   22668888.4344
 -27449372.96148 -21362921.77046  21248726.5944                   21248724.5234
 -42355316.18447 -32976309.32245  22371642.6564                   22371639.0084
 -10874113.13747  -8430304.26045  22386691.6414                   22386691.4304
 -14253485.57847 -11064022.25445  22033912.4844                   22033913.7194
  14334183.39546  11190750.96643  24510972.4384                   24510970.8554
 11  8 21  3  2 30.0000000  0 10G26G18G29G12G15G05G02G30G25G21
  -3608600.10947  -2760694.91745  21933135.1414                   21933134.2304
  18612250.70746  14510755.83642  24375933.1804                   24375930.9264
 -10712248.91447  -8320684.49946  21082550.4614                   21082549.1764
 -23436200.74246 -18177901.69745  22888849.4844                   22888848.5744
   4828467.41447   3790952.17645  22641323.3284                   22641321.8284
 -27434205.00048 -21351102.56546  21251612.7894                   21251611.3524
 -42361512.13347 -32981137.34445  22370463.5474                   22370459.4804
 -10863761.26647  -8422237.88344  22388661.6254                   22388661.5044
 -14254851.72347 -11065086.77445  22033652.3364                   22033654.0744
  14224903.03146  11105597.41042  24490176.3054                   24490174.2384
 11  8 21  3  3  0.0000000  0 10G26G18G29G12G15G05G02G30G25G21
  -3730448.05547  -2855641.33945  21909948.1254                   21909946.5124
  18472014.28546  14401480.82042  24349246.6564                   24349245.7154
 -10828626.54347  -8411368.35046  21060404.8204                   21060402.8914
 -23398279.99247 -18148353.09244  22896065.5784                   22896064.8674
   4683783.70747   3678211.66145  22613790.1804                   22613789.3754
 -27418730.44948 -21339044.48646  21254557.9224                   21254555.9694
 -42367594.24647 -32985876.62944  22369306.2034                   22369302.4384
 -10853049.04347  -8413890.70644  22390699.9304                   22390699.7584
 -14255791.55947 -11065819.12745  22033474.2584                   22033474.9344
  14115615.37546  11020438.29243  24469379.9304                   24469377.1094
 11  8 21  3  3 30.0000000  0 10G26G18G29G12G15G05G02G30G25G21
  -3851851.55947  -2950241.44345  21886845.7894                   21886844.5434
  18331969.26646  14292354.93842  24322596.9224                   24322596.3164
 -10944696.26647  -8501812.27046  21038317.6024                   21038315.7814
 -23360215.01646 -18118692.10144  22903308.8284                   22903308.3244
   4539278.34847   3565610.13344  22586291.6884                   22586290.2734
 -27402956.12948 -21326752.80746  21257559.4064                   21257557.9534
 -42373566.78947 -32990530.55545  22368170.0084                   22368166.0904
 -10841984.11747  -8405268.68244  22392805.2344                   22392805.5044
 -14256312.42647 -11066225.02345  22033374.8444                   22033376.4064
  14006315.19146  10935269.44743  24448580.7034                   24448578.9924
 11  8 21  3  4  0.0000000  0 10G26G18G29G12G15G05G02G30G25G21
  -3972802.51647  -3044488.91945  21863829.6334                   21863828.4654
  18192121.85546  14183383.02342  24295984.5864                   24295984.4064
 -11060450.80147  -8592010.58046  21016290.0234                   21016288.2344
 -23322003.83247 -18088917.17644  22910581.1414                   22910579.8794
   4394959.38747   3453153.83945  22558828.8134                   22558827.5594
 -27386879.87148 -21314225.84646  21260618.8134                   21260616.9924
 -42379424.16847 -32995094.71544  22367054.9454                   22367051.0084
 -10830564.59047  -8396370.35544  22394978.4774                   22394978.1334
 -14256411.96147 -11066302.57945  22033356.0084                   22033357.3364
  13897007.01646  10850094.27143  24427780.2344                   24427778.9224
 11  8 21  3  4 30.0000000  0 10G26G18G29G12G15G05G02G30G25G21
  -4093296.01247  -3138379.93145  21840900.5164                   21840899.6914
  18052475.07846  14074567.45843  24269411.7424                   24269411.5004
 -11175885.98447  -8681960.03846  20994323.4774                   20994321.6214
 -23283647.95747 -18059029.49744  22917879.7274                   22917878.8754
   4250831.58246   3340846.50945  22531402.2034                   22531401.0124
 -27370502.28547 -21301464.07646  21263735.2504                   21263733.1564
 -42385164.72747 -32999567.87144  22365962.9694                   22365958.7114
 -10818792.03147  -8387196.93344  22397218.5234                   22397219.1524
 -14256091.34047 -11066052.75145  22033416.7274                   22033418.1644
  13787691.88746  10764913.77543  24406978.1644                   24406976.5664
 11  8 21  3  5  0.0000000  0 10G26G18G29G12G15G05G02G30G25G21
  -4213330.05147  -3231912.92045  21818058.8364                   21818058.0434
  17913027.71546  13965907.25143  24242876.3364                   24242875.8204
 -11291001.15247  -8771660.13146  20972417.8524                   20972416.0314
 -23245152.28547 -18029032.89544  22925205.0164                   22925204.2704
   4106896.42647   3228689.30244  22504011.7034                   22504010.9774
 -27353827.72348 -21288470.88646  21266908.3134                   21266906.4734
 -42390789.68047 -33003950.94144  22364891.8284                   22364888.3594
 -10806671.14147  -8377752.04544  22399525.3204                   22399525.2664
 -14255354.77047 -11065478.77345  22033556.7344                   22033558.0904
  13678367.62146  10679726.09043  24386174.2814                   24386173.0274
 11  8 21  3  5 30.0000000  0 10G26G18G29G12G15G05G02G30G25G21
  -2757478.77747  -2097483.32245  22095098.0864                   22095096.6914
  19349204.69546  15085006.33743  24516171.7424                   24516170.9264
  -9830371.31647  -7633506.98446  21250366.6414                   21250364.7704
 -21631102.16847 -16771331.52244  23232348.8054                   23232347.4064
   5538580.56346   4344287.37345  22776452.3364                   22776451.5784
 -25761440.48847 -20047649.64346  21569929.3674                   21569927.9064
 -40820879.43447 -31780644.25844  22663635.5784                   22663632.4224
  -9218786.61747  -7140439.45945  22701690.4384                   22701689.4534
 -12678786.17647  -9836983.77745  22333568.0554                   22333569.0904
  15144456.18046  11822132.78043  24665161.1954                   24665160.3014
 11  8 21  3  6  0.0000000  0 10G26G18G29G12G15G05G02G30G25G21
  -2876586.20347  -2190294.26545  22072432.2814   22072431.4614   19210158.48846
  14976658.76143                  24489712.0864                   24489711.4774
  -9944841.37147  -7722704.39246  21228583.2664                   21228581.9654
 -21592337.73847 -16741125.51144  23239725.2114                   23239724.1054
   5395038.13747   4232436.18045  22749137.0234                   22749135.9024
 -25744181.47747 -20034201.03946  21573213.8054                   21573212.2154
 -40826273.37947 -31784847.30444  22662609.4304                   22662605.8554
  -9205980.27347  -7130460.48944  22704127.1024                   22704126.0594
 -12677227.75447  -9835769.42145  22333864.5164                   22333865.5864
  15035110.19546  11736928.23843  24644353.3444                   24644352.7304
 11  8 21  3  6 30.0000000  0 10G26G18G29G12G15G05G02G30G25G21
  -2995228.57047  -2282742.83645  22049855.7194   22049854.9574   19071311.43446
  14868466.32743                  24463290.5704                   24463288.7774
 -10058988.73447  -7811650.36446  21206861.9774                   21206860.3014
 -21553446.85947 -16710820.92344  23247126.5004                   23247124.3794
   5251692.96147   4120738.68945  22721858.7894                   22721858.2664
 -25726637.09047 -20020530.08046  21576552.2504                   21576551.0554
 -40831554.97347 -31788962.84544  22661604.6564                   22661600.6484
  -9192839.23447  -7120220.72444  22706628.0554                   22706627.0434
 -12675265.81247  -9834240.61445  22334237.5864                   22334239.2624
  14925749.47746  11651712.25143  24623542.7034                   24623542.1764
 11  8 21  3  7  0.0000000  0 10G26G18G29G12G15G05G02G30G25G21
  -3113395.94547  -2374821.28945  22027369.3204   22027367.8954   18932671.48446
  14760435.27343                  24436907.0554                   24436906.1134
 -10172804.35547  -7900337.83546  21185203.2814                   21185201.7544
 -21514425.82047 -16680414.95744  23254551.6954                   23254549.8714
   5108555.47347   4009203.04345  22694621.4844                   22694620.6414
 -25708802.88747 -20006633.29846  21579946.3134                   21579944.7814
 -40836716.61347 -31792984.90044  22660622.5784                   22660618.9414
  -9179359.69547  -7109717.18044  22709192.9384                   22709191.8874
 -12672896.16047  -9832394.13945  22334688.2504                   22334690.0044
  14816380.30946  11566489.59543  24602730.2194                   24602729.5784
 11  8 21  3  7 30.0000000  0 10G26G18G29G12G15G05G02G30G25G21
  -3231086.03547  -2466527.82045  22004973.3524   22004972.2664   18794238.39146
  14652565.42643                  24410563.6484                   24410562.7424
 -10286286.72347  -7988765.61446  21163608.3984                   21163607.0634
 -21475279.04347 -16649910.96844  23262001.1254                   23261999.5394
   4965627.08247   3897830.31445  22667423.1094                   22667421.9534
 -25690683.00047 -19992513.88446  21583394.1094                   21583392.7734
 -40841759.34847 -31796914.30944  22659662.6954                   22659658.9184
  -9165546.18747  -7098953.42944  22711821.8674                   22711820.7304
 -12670122.94147  -9830233.19745  22335216.4304                   22335217.5474
  14707000.93846  11481259.00743  24581917.0944                   24581914.6254
 11  8 21  3  8  0.0000000  0 10G26G18G29G12G15G05G02G30G25G21
  -3348294.41847  -2557859.00445  21982669.4304   21982668.2034   18656014.73446
  14544858.82943                  24384260.6414                   24384259.1564
 -10399432.53147  -8076931.15046  21142077.2034                   21142076.1024
 -21436008.16047 -16619310.32944  23269473.9304                   23269472.8324
   4822913.04347   3786624.61745  22640265.4534                   22640264.6214
 -25672278.27048 -19978172.53346  21586896.3134                   21586894.9454
 -40846681.32847 -31800749.62344  22658726.5234                   22658722.4104
  -9151400.21947  -7087930.63144  22714513.3054                   22714512.4384
 -12666947.35247  -9827758.70745  22335820.6884                   22335822.6094
  14597612.10946  11396021.07243  24561099.5164                   24561098.6214
 11  8 21  3  8 30.0000000  0 10G26G18G29G12G15G05G02G30G25G21
  -3465022.83247  -2648816.17545  21960456.9064   21960455.7234   18517996.25046
  14437311.97742                  24357996.1564                   24357995.1214
 -10512244.42247  -8164836.48646  21120609.9774                   21120608.6954
 -21396621.43746 -16588619.40944  23276969.2894                   23276968.0204
   4680410.77747   3675583.94845  22613147.6254                   22613146.9024
 -25653596.39548 -19963615.21746  21590451.6484                   21590450.1374
 -40851487.34847 -31804494.57244  22657811.4924                   22657808.0944
  -9136930.35247  -7076655.39144  22717267.1884                   22717266.3754
 -12663377.46147  -9824976.97145  22336500.3364                   22336501.4144
  14488208.37146  11310771.55243  24540280.5314                   24540279.9024
 11  8 21  3  9  0.0000000  0 10G26G18G29G12G15G05G02G30G25G21
  -3581265.75447  -2739395.02545  21938336.3594   21938335.6564   18380186.91446
  14329928.15642                  24331770.9614                   24331771.2304
 -10624717.82447  -8252478.06946  21099206.7504                   21099205.5864
 -21357119.17247 -16557838.47744  23284486.3674                   23284484.6844
   4538125.68047   3564712.49045  22586071.9144                   22586070.8834
 -25634637.75848 -19948842.23346  21594059.2974                   21594057.5784
 -40856174.62947 -31808147.00945  22656919.7664                   22656916.1644
  -9122137.13747  -7065128.25044  22720081.2274                   22720080.9694
 -12659413.48847  -9821888.16545  22337254.3914                   22337256.0084
  14378791.73446  11225511.88143  24519460.5004                   24519458.8954
 11  8 21  3  9 30.0000000  0 10G26G18G29G12G15G05G02G30G25G21
  -3697019.78147  -2829592.94845  21916309.0634   21916307.9144   18242587.68446
  14222708.07442                  24305587.9304                   24305586.3754
 -10736850.05547  -8339853.79946  21077868.7734                   21077867.3524
 -21317504.70347 -16526970.09444  23292024.5234                   23292023.1764
   4396061.26647   3454013.00545  22559038.6174                   22559037.1684
 -25615404.23848 -19933855.06846  21597719.1564                   21597717.3364
 -40860742.60247 -31811706.48444  22656050.2114                   22656047.3164
  -9107023.68047  -7053351.51244  22722957.2424                   22722956.9734
 -12655058.12947  -9818494.41045  22338083.3054                   22338085.0124
  14269361.90646  11140242.05143  24498636.5314                   24498633.7624
 11  8 21  3 10  0.0000000  0 10G26G18G29G12G15G05G02G30G25G21
  -3812281.16047  -2919406.99745  21894376.0164   21894374.4144   18105200.13746
  14115652.97342                  24279444.7504                   24279443.0594
 -10848638.14147  -8426961.37446  21056596.2114                   21056594.8524
 -21277780.45346 -16496016.16944  23299584.1334                   23299582.3404
   4254220.84047   3343488.00245  22532046.5164                   22532045.5514
 -25595897.84448 -19918655.27446  21601431.0004                   21601429.3954
 -40865190.16847 -31815172.16044  22655204.0004                   22655200.8634
  -9091592.57847  -7041327.29644  22725894.2424                   22725892.9064
 -12650313.69547  -9814797.46445  22338986.0944                   22338987.7544
  14159918.67246  11054961.67943  24477810.1564                   24477807.4804
 11  8 21  3 10 30.0000000  0 10G26G18G29G12G15G05G02G30G25G21
  -3927043.96547  -3008832.52545  21872536.9774   21872535.6564   17968027.97746
  14008765.61943                  24253341.0394                   24253339.6024
 -10960077.17647  -8513796.95746  21035390.1564                   21035388.9734
 -21237947.02046 -16464977.14944  23307164.3054                   23307162.7304
   4112610.53547   3233142.35545  22505099.0864                   22505097.8324
 -25576118.51248 -19903242.80846  21605194.9614                   21605192.8594
 -40869514.40247 -31818541.69844  22654380.8834                   22654377.3634
  -9075844.33647  -7029055.95944  22728890.9694                   22728890.0944
 -12645180.30547  -9810797.43845  22339962.9064                   22339964.4144
  14050464.33046  10969672.69643  24456981.2584                   24456979.9494
 11  8 21  3 11  0.0000000  0 10G26G18G29G12G15G05G02G30G25G21
  -4041305.52747  -3097867.46145  21850793.6414   21850792.5514   17831071.92246
  13902046.69143                  24227279.0864                   24227278.0664
 -11071165.41447  -8600359.18746  21014250.6414                   21014249.3754
 -21198007.75446 -16433855.68345  23314764.1024                   23314763.4064
   3971232.59847   3122977.77645  22478196.1174                   22478194.5824
 -25556069.60947 -19887620.27046  21609010.1024                   21609008.2344
 -40873715.39847 -31821815.24944  22653581.7584                   22653578.2234
  -9059782.81247  -7016540.50044  22731948.1024                   22731947.1994
 -12639661.41047  -9806497.00045  22341012.5554                   22341014.9064
  13940997.97346  10884374.29343  24436150.2584                   24436148.9534
 11  8 21  3 11 30.0000000  0 10G26G18G29G12G15G05G02G30G25G21
  -4155066.21547  -3186512.12645  21829145.3914   21829144.1054   17694329.65246
  13795494.43343                  24201258.0394                   24201257.7464
 -11181904.03547  -8686648.99446  20993177.6484                   20993176.5204
 -21157969.11346 -16402656.77844  23322383.2734                   23322382.3204
   3830086.74247   3012994.03245  22451336.3134                   22451335.1484
 -25535756.76248 -19871792.07646  21612875.6024                   21612873.8444
 -40877796.30547 -31824995.19844  22652804.9924                   22652801.9774
  -9043414.43047  -7003785.94344  22735062.7664                   22735061.4414
 -12633763.12547  -9801900.96445  22342135.2034                   22342136.6054
  13831515.87146  10799063.59943  24415316.7344                   24415314.4534
 11  8 21  3 12  0.0000000  0 10G26G18G29G12G15G05G02G30G25G21
  -4268322.95747  -3274764.09145  21807593.6804   21807592.6254   17557802.27746
  13689109.51743                  24175277.9774                   24175277.2384
 -11292290.50047  -8772664.40646  20972172.3524                   20972170.8794
 -21117833.82846 -16371382.55344  23330020.2114                   23330019.8874
   3689176.27047   2903193.71145  22424522.2664                   22424520.8164
 -25515182.21148 -19855759.94646  21616790.8674                   21616789.0354
 -40881756.49647 -31828081.08144  22652051.0864                   22652047.8674
  -9026742.32047  -6990794.68444  22738235.7894                   22738234.4224
 -12627488.34847  -9797011.54745  22343329.8914                   22343330.5434
  13722017.23446  10713740.07243  24394480.0314                   24394477.7234
 11  8 21  3 12 30.0000000  0 10G26G18G29G12G15G05G02G30G25G21
  -4381075.94947  -3362623.53045  21786137.7034   21786135.9694   17421486.97346
  13582889.91443                  24149337.6334                   24149336.8634
 -11402326.28147  -8858406.55146  20951233.0864                   20951231.6024
 -21077608.85946 -16340038.43644  23337674.7424                   23337674.9414
   3548500.37147   2793576.15945  22397752.5704                   22397751.6334
 -25494352.17647 -19839528.73746  21620754.7194                   21620752.9144
 -40885599.09447 -31831075.34644  22651319.7664                   22651316.2194
  -9009773.36347  -6977572.13145  22741464.9144                   22741463.8674
 -12620843.47747  -9791833.73645  22344593.9064                   22344595.3204
  13612498.38346  10628400.79543  24373638.3914                   24373636.9184
 11  8 21  3 13  0.0000000  0 10G26G18G29G12G15G05G02G30G25G21
  -4493313.79747  -3450081.58545  21764779.2974   21764778.1644   17285393.43046
  13476843.21143                  24123440.1484                   24123439.0984
 -11512000.52347  -8943866.97446  20930362.5234                   20930361.4884
 -21037288.98446 -16308620.38544  23345347.3594                   23345347.3484
   3408070.76247   2684150.53245  22371029.4924                   22371028.4384
 -25473260.78148 -19823093.87246  21624768.3364                   21624766.3954
 -40889315.39147 -31833971.17544  22650613.1564                   22650608.9694
  -8992502.35947  -6964114.22045  22744750.9534                   22744750.3954
 -12613822.96547  -9786363.20745  22345929.7734                   22345931.0904
  13502967.29346  10543051.91143  24352795.9694                   24352793.8674
 11  8 21  3 13 30.0000000  0 10G26G18G29G12G15G05G02G30G25G21
  -4605035.24647  -3537137.20645  21743519.4454   21743518.0634   17149520.65646
  13370968.38043                  24097583.7114                   24097583.6254
 -11621312.95747  -9029045.47746  20909561.0164                   20909559.5864
 -20996879.15246 -16277132.23844  23353037.6954                   23353037.0634
   3267888.80947   2574917.88745  22344353.9384                   22344352.4964
 -25451912.23848 -19806458.62646  21628830.7274                   21628828.8834
 -40892906.71547 -31836769.61344  22649929.9224                   22649925.7664
  -8974934.31247  -6950424.86444  22748093.8984                   22748093.8554
 -12606431.67247  -9780603.78445  22347336.2584                   22347337.0944
  13393421.72746  10457691.84143  24331949.5314                   24331947.6764
 11  8 21  3 14  0.0000000  0 10G26G18G29G12G15G05G02G30G25G21
  -4716237.32447  -3623788.12545  21722358.3444   21722356.8484   17013869.66446
  13265266.41743                  24071769.8674                   24071769.7304
 -11730261.20747  -9113940.20946  20888828.7974                   20888827.5664
 -20956382.21946 -16245576.21044  23360743.9384                   23360743.3324
   3127957.23047   2465880.33545  22317725.6334                   22317724.2424
 -25430309.21548 -19789625.10946  21632941.5864                   21632940.1214
 -40896372.55547 -31839470.29044  22649270.3444                   22649266.3484
  -8957072.40647  -6936506.50644  22751493.2894                   22751492.5594
 -12598672.31247  -9774557.55245  22348813.1884                   22348813.7664
  13283860.75846  10372319.69343  24311100.7974                   24311099.4774
 11  8 21  3 14 30.0000000  0 10G26G18G29G12G15G05G02G30G25G21
  -4826917.58247  -3710032.44945  21701296.3674   21701295.4304   16878440.86346
  13159737.53643                  24045998.3284                   24045997.5744
 -11838843.53547  -9198549.79746  20868166.1804                   20868164.9224
 -20915801.80146 -16213955.12044  23368466.5394                   23368465.4344
   2988278.56647   2357039.84145  22291145.7814                   22291143.9734
 -25408454.72748 -19772595.61346  21637100.3984                   21637098.7894
 -40899713.48447 -31842073.63444  22648634.5864                   22648631.0044
  -8938920.52747  -6922362.21044  22754946.7734                   22754946.9804
 -12590548.50447  -9768227.32945  22350358.9224                   22350360.5044
  13174283.93846  10286935.23143  24290248.6254                   24290247.9344
 11  8 21  3 15  0.0000000  0 10G26G18G29G12G15G05G02G30G25G21
  -4937071.78947  -3795866.86445  21680335.2584   21680334.1054   16743236.43846
  13054383.56143                  24020270.2424                   24020269.1334
 -11947056.19147  -9282871.34046  20847574.4924                   20847572.5274
 -20875139.95346 -16182270.58544  23376203.7814                   23376203.3834
   2848857.43047   2248400.04745  22264614.8054                   22264613.7424
 -25386350.01247 -19755371.15146  21641306.7894                   21641304.9654
 -40902927.94547 -31844578.39544  22648022.6254                   22648019.6454
  -8920480.85247  -6907993.64244  22758456.1884                   22758455.8834
 -12582061.98447  -9761614.49245  22351974.1954                   22351975.0474
  13064692.03946  10201539.04143  24269394.2734                   24269392.4924
 11  8 21  3 15 30.0000000  0 10G26G18G29G12G15G05G02G30G25G21
  -5046697.80147  -3881289.71445  21659473.5864   21659472.5434   16608256.41846
  12949204.41143                  23994583.9144                   23994582.7034
 -12054897.88747  -9366903.81246  20827052.9304                   20827051.1054
 -20834400.00046 -16150525.18244  23383956.4924                   23383955.7464
   2709695.66847   2139962.36745  22238132.7114                   22238131.6994
 -25363998.43448 -19737954.32846  21645560.1094                   21645558.2384
 -40906016.08247 -31846984.78144  22647434.9064                   22647432.1644
  -8901757.22747  -6893403.82444  22762018.9694                   22762018.1604
 -12573216.52347  -9754721.95545  22353657.5164                   22353658.4534
  12955083.48846  10116129.80443  24248536.7034                   24248535.1334
 11  8 21  3 16  0.0000000  0 10G26G18G29G12G15G05G02G30G25G21
  -5155794.52747  -3966300.12245  21638713.2194   21638711.6804   16473499.92646
  12844199.50042                  23968941.3674                   23968938.3554
 -12162368.73047  -9450647.31846  20806601.4144                   20806599.9884
 -20793587.30546 -16118723.14544  23391723.3134                   23391722.1214
   2570794.54747   2031727.78545  22211700.8914                   22211699.6524
 -25341404.17248 -19720348.41045  21649859.5634                   21649858.0864
 -40908979.38347 -31849293.87544  22646871.1644                   22646867.8594
  -8882754.90247  -6878596.83944  22765635.1804                   22765634.1454
 -12564016.94147  -9747553.46945  22355408.1724                   22355409.5784
  12845455.91446  10030705.78243  24227674.6484                   24227673.4924
